[[{"header":{"parameterUnit":"m.s-1","parameterCategory":1,"la1":30.6,"la2":29.2853,"lo1":-89.7004,"lo2":-87.6739,"dy":0.0162,"dx":0.0183,"nx":112,"ny":82,"refTime":"2023-06-28T06:00:00:Z","depth":0,"parameterNumber":2,"parameterNumberName":"U-component_of_WINDS"},"data":[0.0,0.0,0.0,0.0,0.0,0.0,0.0,0.0,0.0,0.0,0.0,0.0,0.0,0.0,0.0,0.0,0.0,0.0,0.0,0.0,0.0,0.0,0.0,0.0,0.0,0.0,0.0,0.0,0.0,0.0,0.0,0.0,0.0,0.0,0.0,0.0,0.0,0.0,0.0,0.0,0.0,0.0,0.0,0.0,0.0,0.0,0.0,0.0,0.0,0.0,0.0,0.0,0.0,0.0,0.0,0.0,0.0,0.0,0.0,0.0,0.0,0.0,0.0,0.0,0.0,0.0,0.0,0.0,0.0,0.0,0.0,0.0,0.0,0.0,0.0,0.0,0.0,0.0,0.0,0.0,0.0,0.0,0.0,0.0,0.0,0.0,0.0,0.0,0.0,0.0,0.0,-3.0191,-3.5532,-3.8377,-3.7566,-3.6538,-3.3415,-2.7578,0.0,0.0,0.0,0.0,0.0,0.0,0.0,0.0,0.0,0.0,0.0,0.0,0.0,0.0,0.0,0.0,0.0,0.0,0.0,0.0,0.0,0.0,0.0,0.0,0.0,0.0,0.0,0.0,0.0,0.0,0.0,0.0,0.0,0.0,0.0,0.0,0.0,0.0,0.0,0.0,0.0,0.0,0.0,0.0,0.0,0.0,0.0,0.0,0.0,0.0,0.0,0.0,0.0,0.0,0.0,0.0,0.0,0.0,0.0,0.0,0.0,0.0,0.0,0.0,0.0,0.0,0.0,0.0,0.0,0.0,0.0,0.0,0.0,0.0,0.0,0.0,0.0,0.0,0.0,0.0,0.0,0.0,0.0,0.0,0.0,0.0,0.0,0.0,0.0,0.0,0.0,0.0,0.0,0.0,0.0,0.0,0.0,0.0,0.0,0.0,0.0,0.0,0.0,0.0,-2.4879,-3.2449,-3.6523,-3.8377,-3.7566,-3.5459,-3.2177,-2.7505,0.0,0.0,0.0,0.0,0.0,0.0,0.0,0.0,0.0,0.0,0.0,0.0,0.0,0.0,0.0,0.0,0.0,0.0,0.0,0.0,0.0,0.0,0.0,0.0,0.0,0.0,0.0,0.0,0.0,0.0,0.0,0.0,0.0,0.0,0.0,0.0,0.0,0.0,0.0,0.0,0.0,0.0,0.0,0.0,0.0,0.0,0.0,0.0,0.0,0.0,0.0,0.0,0.0,0.0,0.0,0.0,0.0,0.0,0.0,0.0,0.0,0.0,0.0,0.0,0.0,0.0,0.0,0.0,0.0,0.0,0.0,0.0,0.0,0.0,0.0,0.0,0.0,0.0,0.0,0.0,0.0,0.0,0.0,0.0,0.0,0.0,0.0,0.0,0.0,0.0,0.0,0.0,0.0,0.0,0.0,0.0,0.0,0.0,0.0,0.0,0.0,0.0,0.0,-2.4034,-2.8613,-3.4523,-3.689,-3.7915,-3.7529,-3.4426,-3.0819,-2.685,-2.3563,0.0,0.0,0.0,0.0,0.0,0.0,0.0,0.0,0.0,0.0,0.0,0.0,0.0,0.0,0.0,0.0,0.0,0.0,0.0,0.0,0.0,0.0,0.0,0.0,0.0,0.0,0.0,0.0,0.0,0.0,0.0,0.0,0.0,0.0,0.0,0.0,0.0,0.0,0.0,0.0,0.0,0.0,0.0,0.0,0.0,0.0,0.0,0.0,0.0,0.0,0.0,0.0,0.0,0.0,0.0,0.0,0.0,0.0,0.0,0.0,0.0,0.0,0.0,0.0,0.0,0.0,0.0,0.0,0.0,0.0,0.0,0.0,0.0,0.0,0.0,0.0,0.0,0.0,0.0,0.0,0.0,0.0,0.0,0.0,0.0,0.0,0.0,0.0,0.0,0.0,0.0,0.0,0.0,0.0,0.0,0.0,0.0,0.0,0.0,0.0,0.0,0.0,-2.7339,-3.1696,-3.5587,-3.6725,-3.707,-3.6666,-3.2719,-2.8918,-2.5725,-2.1406,0.0,0.0,0.0,0.0,0.0,0.0,0.0,0.0,0.0,0.0,0.0,0.0,0.0,0.0,0.0,0.0,0.0,0.0,0.0,0.0,0.0,0.0,0.0,0.0,0.0,0.0,0.0,0.0,0.0,0.0,0.0,0.0,0.0,0.0,0.0,0.0,0.0,0.0,0.0,0.0,0.0,0.0,0.0,0.0,0.0,0.0,0.0,0.0,0.0,0.0,0.0,0.0,0.0,0.0,0.0,0.0,0.0,0.0,0.0,0.0,0.0,0.0,0.0,0.0,0.0,0.0,0.0,0.0,0.0,0.0,0.0,0.0,0.0,0.0,0.0,0.0,0.0,0.0,0.0,0.0,0.0,0.0,0.0,0.0,0.0,0.0,0.0,0.0,0.0,0.0,0.0,0.0,0.0,0.0,0.0,0.0,0.0,0.0,0.0,0.0,0.0,0.0,-2.7677,-3.1445,-3.4747,-3.5881,-3.5752,-3.4192,-2.9677,-2.6063,-2.3988,-1.8698,0.0,0.0,0.0,0.0,0.0,0.0,0.0,0.0,0.0,0.0,0.0,0.0,0.0,0.0,0.0,0.0,0.0,0.0,0.0,0.0,0.0,0.0,0.0,0.0,0.0,0.0,0.0,0.0,0.0,0.0,0.0,0.0,0.0,0.0,0.0,0.0,0.0,0.0,0.0,0.0,0.0,0.0,0.0,0.0,0.0,0.0,0.0,0.0,0.0,0.0,0.0,0.0,0.0,0.0,0.0,0.0,0.0,0.0,0.0,0.0,0.0,0.0,0.0,0.0,0.0,0.0,0.0,0.0,0.0,0.0,0.0,0.0,0.0,0.0,0.0,0.0,0.0,0.0,0.0,0.0,0.0,0.0,0.0,0.0,0.0,0.0,0.0,0.0,0.0,0.0,0.0,0.0,0.0,0.0,0.0,0.0,0.0,0.0,0.0,0.0,0.0,0.0,-2.6833,-3.032,0.0,-3.4853,-3.4284,-3.3146,-2.9549,-2.5873,-2.2419,0.0,0.0,0.0,0.0,0.0,0.0,0.0,0.0,0.0,0.0,0.0,0.0,0.0,0.0,0.0,0.0,0.0,0.0,0.0,0.0,0.0,0.0,0.0,0.0,0.0,0.0,0.0,0.0,0.0,0.0,0.0,0.0,0.0,0.0,0.0,0.0,0.0,0.0,0.0,0.0,0.0,0.0,0.0,0.0,0.0,0.0,0.0,0.0,0.0,0.0,0.0,0.0,0.0,0.0,0.0,0.0,0.0,0.0,0.0,0.0,0.0,0.0,0.0,0.0,0.0,0.0,0.0,0.0,0.0,0.0,0.0,0.0,0.0,0.0,0.0,0.0,0.0,0.0,0.0,0.0,0.0,0.0,0.0,0.0,0.0,0.0,0.0,0.0,0.0,0.0,0.0,0.0,0.0,0.0,0.0,0.0,0.0,0.0,0.0,0.0,0.0,0.0,-2.3327,-2.6594,-2.9916,0.0,-3.3592,-3.2889,-3.1574,-2.8282,-2.474,-2.1147,0.0,0.0,0.0,0.0,0.0,0.0,0.0,0.0,0.0,0.0,0.0,0.0,0.0,0.0,0.0,0.0,0.0,0.0,0.0,0.0,0.0,0.0,0.0,0.0,0.0,0.0,0.0,0.0,0.0,0.0,0.0,0.0,0.0,0.0,0.0,0.0,0.0,0.0,0.0,0.0,0.0,0.0,0.0,0.0,0.0,0.0,0.0,0.0,0.0,0.0,0.0,0.0,0.0,0.0,0.0,0.0,0.0,0.0,0.0,0.0,0.0,0.0,0.0,0.0,0.0,0.0,0.0,0.0,0.0,0.0,0.0,0.0,0.0,0.0,0.0,0.0,0.0,0.0,0.0,0.0,0.0,0.0,0.0,0.0,0.0,0.0,0.0,0.0,0.0,0.0,0.0,0.0,0.0,0.0,0.0,0.0,0.0,0.0,0.0,0.0,0.0,0.0,-2.2786,-2.7218,-3.0503,-3.1323,-3.21,-3.1592,-2.9189,-2.5318,-2.2182,0.0,0.0,0.0,0.0,0.0,0.0,0.0,0.0,0.0,0.0,0.0,0.0,0.0,0.0,0.0,0.0,0.0,0.0,0.0,0.0,0.0,0.0,0.0,0.0,0.0,0.0,0.0,0.0,0.0,0.0,0.0,0.0,0.0,0.0,0.0,0.0,0.0,0.0,0.0,0.0,0.0,0.0,0.0,0.0,0.0,0.0,0.0,0.0,0.0,0.0,0.0,0.0,0.0,0.0,0.0,0.0,0.0,0.0,0.0,0.0,0.0,0.0,0.0,0.0,0.0,0.0,0.0,0.0,0.0,0.0,0.0,0.0,0.0,0.0,0.0,0.0,0.0,0.0,0.0,0.0,0.0,0.0,0.0,0.0,0.0,0.0,0.0,0.0,0.0,0.0,0.0,0.0,0.0,0.0,0.0,0.0,0.0,0.0,0.0,0.0,0.0,0.0,0.0,-2.2712,-2.6712,-2.9879,-3.125,-3.1109,-3.0173,-2.8319,-2.6025,-2.3132,-1.948,0.0,0.0,0.0,0.0,0.0,0.0,0.0,0.0,0.0,0.0,0.0,0.0,0.0,0.0,0.0,0.0,0.0,0.0,0.0,0.0,0.0,0.0,0.0,0.0,0.0,0.0,0.0,0.0,0.0,0.0,0.0,0.0,0.0,0.0,0.0,0.0,0.0,0.0,0.0,0.0,0.0,0.0,0.0,0.0,0.0,0.0,0.0,0.0,0.0,0.0,0.0,0.0,0.0,0.0,0.0,0.0,0.0,0.0,0.0,0.0,0.0,0.0,0.0,0.0,0.0,0.0,0.0,0.0,0.0,0.0,0.0,0.0,0.0,0.0,0.0,0.0,0.0,0.0,0.0,0.0,0.0,0.0,0.0,0.0,0.0,0.0,0.0,0.0,0.0,0.0,0.0,0.0,0.0,0.0,0.0,0.0,0.0,0.0,0.0,0.0,0.0,0.0,-2.2712,-2.651,-2.9482,-3.0779,-3.021,-2.906,-2.7457,-2.6146,-2.3838,-2.0174,0.0,0.0,0.0,0.0,0.0,0.0,0.0,0.0,0.0,0.0,0.0,0.0,0.0,0.0,0.0,0.0,0.0,0.0,0.0,0.0,0.0,0.0,0.0,0.0,0.0,0.0,0.0,0.0,0.0,0.0,0.0,0.0,0.0,0.0,0.0,0.0,0.0,0.0,0.0,0.0,0.0,0.0,0.0,0.0,0.0,0.0,0.0,0.0,0.0,0.0,0.0,0.0,0.0,0.0,0.0,0.0,0.0,0.0,0.0,0.0,0.0,0.0,0.0,0.0,0.0,0.0,0.0,0.0,0.0,0.0,0.0,0.0,0.0,0.0,0.0,0.0,0.0,0.0,0.0,0.0,0.0,0.0,0.0,0.0,0.0,0.0,0.0,0.0,0.0,0.0,0.0,0.0,0.0,0.0,0.0,0.0,0.0,0.0,0.0,0.0,0.0,0.0,-2.2786,-2.651,-2.9317,-3.0118,-2.9409,-2.8271,-2.673,-2.5797,-2.4196,-2.1662,0.0,0.0,0.0,0.0,0.0,0.0,0.0,0.0,0.0,0.0,0.0,0.0,0.0,0.0,0.0,0.0,0.0,0.0,0.0,0.0,0.0,0.0,0.0,0.0,0.0,0.0,0.0,0.0,0.0,0.0,0.0,0.0,0.0,0.0,0.0,0.0,0.0,0.0,0.0,0.0,0.0,0.0,0.0,0.0,0.0,0.0,0.0,0.0,0.0,0.0,0.0,0.0,0.0,0.0,0.0,0.0,0.0,0.0,0.0,0.0,-2.6483,0.0,0.0,0.0,0.0,0.0,0.0,0.0,0.0,0.0,0.0,0.0,0.0,0.0,0.0,0.0,0.0,0.0,0.0,0.0,0.0,0.0,0.0,0.0,0.0,0.0,0.0,0.0,0.0,0.0,0.0,0.0,0.0,0.0,0.0,0.0,0.0,0.0,0.0,0.0,0.0,0.0,-2.2713,-2.647,-2.9317,-3.0118,-2.8906,-2.7658,-2.6675,-2.5273,-2.361,-2.1625,0.0,0.0,0.0,0.0,0.0,0.0,0.0,0.0,0.0,0.0,0.0,0.0,0.0,0.0,0.0,0.0,0.0,0.0,0.0,0.0,0.0,0.0,0.0,0.0,0.0,0.0,0.0,0.0,0.0,0.0,0.0,0.0,0.0,0.0,0.0,0.0,0.0,0.0,0.0,0.0,0.0,0.0,0.0,0.0,0.0,0.0,0.0,0.0,0.0,0.0,0.0,0.0,0.0,0.0,0.0,0.0,0.0,0.0,0.0,0.0,0.0,-2.5875,0.0,0.0,0.0,0.0,0.0,0.0,0.0,0.0,0.0,0.0,0.0,0.0,0.0,0.0,0.0,0.0,0.0,0.0,0.0,0.0,0.0,0.0,0.0,0.0,0.0,0.0,0.0,0.0,0.0,0.0,0.0,0.0,0.0,0.0,0.0,0.0,0.0,0.0,0.0,0.0,-2.4789,-2.7094,-2.8888,-3.0063,-2.8411,-2.6906,-2.608,-2.4905,-2.3959,-2.3407,-2.2227,0.0,0.0,0.0,0.0,0.0,0.0,0.0,0.0,0.0,0.0,0.0,0.0,0.0,0.0,0.0,0.0,0.0,0.0,0.0,0.0,0.0,0.0,0.0,0.0,0.0,0.0,0.0,0.0,0.0,0.0,0.0,0.0,0.0,0.0,0.0,0.0,0.0,0.0,0.0,0.0,0.0,0.0,0.0,0.0,0.0,0.0,0.0,0.0,0.0,0.0,0.0,0.0,0.0,-4.0701,-3.9979,-3.873,-3.7305,-3.537,-3.3023,-2.9646,-2.9824,-3.1847,0.0,0.0,0.0,0.0,0.0,0.0,0.0,0.0,0.0,0.0,0.0,0.0,0.0,0.0,0.0,0.0,0.0,0.0,0.0,0.0,0.0,0.0,0.0,0.0,0.0,-3.1511,-3.0954,0.0,0.0,0.0,0.0,0.0,0.0,0.0,0.0,0.0,0.0,0.0,0.0,-2.7127,-2.7999,-2.8767,-3.0222,-2.8363,-2.6649,-2.5686,-2.4879,-2.464,-2.5154,-2.3216,-2.2383,0.0,0.0,0.0,0.0,0.0,0.0,0.0,0.0,0.0,0.0,0.0,0.0,0.0,0.0,0.0,0.0,0.0,0.0,0.0,0.0,0.0,0.0,0.0,0.0,0.0,0.0,0.0,0.0,0.0,0.0,0.0,0.0,-2.5061,-2.9961,0.0,0.0,0.0,0.0,0.0,0.0,0.0,0.0,0.0,0.0,0.0,0.0,0.0,-3.6009,-3.6679,-3.9765,-4.3199,-4.6851,-4.5856,-4.5291,-4.5098,-4.4863,-4.4021,-4.2437,-3.6078,0.0,-2.9841,-3.2419,0.0,0.0,0.0,0.0,0.0,0.0,0.0,0.0,0.0,0.0,0.0,0.0,0.0,0.0,0.0,0.0,0.0,0.0,0.0,0.0,0.0,0.0,-3.5333,-3.5622,-3.5178,-3.4116,0.0,-2.8531,-2.5418,-2.4105,-2.3412,0.0,0.0,0.0,0.0,0.0,0.0,0.0,-2.7337,-2.8893,-3.0155,-3.1058,-2.9667,-2.8069,-2.6576,-2.5705,-2.4989,-2.4401,-2.4033,-2.4091,-2.4603,-2.2584,0.0,0.0,0.0,0.0,0.0,0.0,0.0,0.0,0.0,0.0,0.0,0.0,0.0,0.0,0.0,0.0,0.0,0.0,0.0,0.0,0.0,0.0,0.0,0.0,0.0,0.0,0.0,0.0,0.0,-2.5161,-2.8829,-3.2978,-3.1877,-3.0293,0.0,0.0,0.0,0.0,0.0,0.0,0.0,0.0,0.0,-3.8164,-3.9941,-4.162,-4.3192,-4.5552,-4.7793,-4.9911,-4.9891,-5.0145,-5.0614,-5.0088,-4.9312,-4.8218,-4.4511,-4.2031,-4.0072,-3.3042,-3.2434,-3.5606,0.0,0.0,0.0,0.0,-3.3806,-3.3465,-3.1077,-2.841,0.0,-3.5381,0.0,0.0,0.0,0.0,0.0,0.0,0.0,0.0,0.0,0.0,0.0,-3.6763,-3.6895,-3.6137,-3.4435,-3.254,-3.004,0.0,-2.5788,-2.5064,-2.1832,0.0,0.0,0.0,0.0,0.0,-2.9314,-3.0326,-3.0766,-3.0637,-2.9624,-2.8281,-2.6669,-2.6222,-2.5884,-2.5566,-2.5548,-2.5643,-2.5845,-2.4283,-2.2987,0.0,0.0,0.0,0.0,0.0,0.0,0.0,0.0,0.0,0.0,0.0,0.0,0.0,0.0,0.0,0.0,0.0,0.0,0.0,0.0,0.0,0.0,0.0,0.0,0.0,0.0,0.0,0.0,-2.9011,-3.2294,-3.5697,-3.538,-3.4313,0.0,0.0,0.0,0.0,0.0,0.0,-3.6501,-3.8669,-4.1133,-4.3977,-4.5753,-4.7719,-4.987,-5.0924,-5.1863,-5.2722,-5.2928,-5.346,-5.428,-5.334,-5.2515,-5.1731,-5.0533,-5.0016,-4.9005,-3.6125,-3.3628,-3.7907,-3.7809,-3.931,-4.1568,-4.1568,-4.1568,-4.1451,-4.064,-4.0057,-3.9465,-3.7953,0.0,-3.3688,-3.1898,0.0,0.0,0.0,0.0,-2.9707,-3.267,-3.3815,-3.4886,-3.7668,-3.8136,-3.7555,-3.6061,-3.553,-3.3823,0.0,-2.8617,-2.8188,-2.4543,0.0,0.0,0.0,0.0,-2.846,-3.0903,-3.1283,-3.1102,-3.0448,-2.9887,-2.88,-2.6988,-2.6823,-2.6771,-2.6602,-2.6602,-2.6602,-2.6602,-2.5586,-2.4375,-2.2984,0.0,0.0,0.0,0.0,0.0,0.0,0.0,0.0,0.0,0.0,0.0,0.0,0.0,0.0,0.0,0.0,0.0,0.0,0.0,0.0,0.0,0.0,0.0,0.0,0.0,0.0,0.0,0.0,0.0,-3.6538,-4.0476,0.0,0.0,0.0,0.0,-3.5497,-3.6418,-3.8475,-4.1833,-4.5173,-4.8567,-5.2003,-5.3817,-5.5183,-5.6138,-5.5415,-5.5474,-5.6313,-5.4644,-5.4297,-5.5117,-5.4163,-5.3442,-5.2841,-5.1635,-5.1113,-5.0798,-4.6668,-4.4244,-4.3122,-4.3127,-4.3214,-4.3369,-4.3369,-4.3369,-4.3588,-4.5084,-4.4579,-4.3136,-4.2476,-4.0746,-3.8331,-3.5007,-3.384,0.0,0.0,-3.0599,-3.3518,-3.2905,-3.5602,-3.8746,-3.9736,-3.9294,-3.8374,-3.74,-3.6389,-3.5002,0.0,-3.2381,-3.1824,-2.9763,0.0,-3.0738,-2.83,-2.8968,-3.0095,-3.1076,-3.1224,-3.1188,-3.1144,-3.1217,-3.0301,-2.7934,-2.7732,-2.7402,-2.6638,-2.6602,-2.6602,-2.6602,-2.5813,-2.5176,-2.4775,-2.1601,0.0,0.0,0.0,0.0,0.0,0.0,0.0,0.0,0.0,0.0,0.0,0.0,0.0,0.0,0.0,0.0,0.0,0.0,0.0,0.0,0.0,0.0,0.0,0.0,0.0,0.0,0.0,0.0,-4.0758,-4.3108,0.0,0.0,-4.1874,-4.1481,-4.1735,-4.4608,-4.7374,-4.9735,-5.2073,-5.4156,-5.5925,-5.7133,-5.7894,-5.8207,-5.7861,-5.7575,-5.7359,-5.6675,-5.6214,-5.596,-5.558,-5.4722,-5.3495,-5.3006,-5.2205,-5.1066,-4.924,-4.7167,-4.5045,-4.4302,-4.4462,-4.5025,-4.4282,-4.4481,-4.5045,-4.4559,-4.4335,-4.4042,-4.2701,-4.1374,-4.0031,-3.8831,-3.8264,-3.7739,-3.6236,-3.6776,-3.7719,-3.7414,-3.8429,-3.9615,-4.001,-3.9829,-3.9209,-3.7802,-3.7233,-3.6435,-3.457,-3.3155,-3.1855,-3.0641,-3.0481,-3.0103,-2.8867,-2.9991,-3.1066,-3.1239,-3.2211,-3.2449,-3.1316,-3.1271,-3.0558,-2.8614,-2.8478,-2.7962,-2.6675,-2.6602,-2.6135,-2.5107,-2.4777,-2.4405,-2.3934,-2.2933,-2.0774,0.0,0.0,0.0,0.0,0.0,0.0,0.0,0.0,0.0,0.0,0.0,0.0,0.0,0.0,0.0,0.0,0.0,0.0,0.0,0.0,0.0,0.0,0.0,0.0,0.0,0.0,-4.1294,-4.4238,-4.7321,-4.8902,-4.8105,-4.8047,-4.8299,-4.8867,-5.1823,-5.4097,-5.5217,-5.6928,-5.8121,-5.8621,-5.9497,-5.9793,-5.9507,-5.9179,-5.8589,-5.777,-5.7404,-5.6929,-5.6361,-5.6323,-5.5541,-5.4193,-5.4158,-5.3164,-5.1552,-5.0969,-4.9401,-4.7187,-4.5841,-4.5589,-4.5905,-4.5142,-4.5356,-4.5846,-4.4734,-4.451,-4.4547,-4.335,-4.2385,-4.1678,-4.1683,-4.1505,-4.128,-4.1206,-4.1017,-4.0834,-4.0756,-4.0719,-4.0632,-4.0444,-4.0369,-3.9957,-3.8565,-3.8077,-3.7489,-3.6055,-3.4329,-3.2458,-3.047,-2.9452,-2.8482,-2.7253,-2.7034,-2.7359,-2.8338,-2.9673,-3.0296,-2.968,-3.0405,-3.0472,-2.9363,-2.7796,-2.7035,-2.7391,-2.6114,-2.5252,-2.5016,-2.4179,-2.332,-2.2409,-2.1359,-1.9529,-1.6884,0.0,0.0,0.0,0.0,0.0,0.0,0.0,0.0,0.0,0.0,0.0,0.0,0.0,0.0,0.0,0.0,0.0,0.0,0.0,0.0,0.0,0.0,0.0,-3.6864,-4.4101,-4.8378,-4.6953,-5.3437,-5.703,-5.451,-5.5776,-5.6766,-5.6761,-5.754,-5.7988,-5.7929,-5.9511,-6.0403,-6.0349,-6.1152,-6.1187,-6.0297,-5.9454,-5.8575,-5.768,-5.6776,-5.6327,-5.6303,-5.6294,-5.5806,-5.4971,-5.4971,-5.398,-5.2368,-5.2368,-5.1396,-4.9732,-4.8036,-4.6851,-4.6079,-4.606,-4.6021,-4.6002,-4.5997,-4.5491,-4.4826,-4.4755,-4.4167,-4.3483,-4.3468,-4.3427,-4.3308,-4.3002,-4.2823,-4.2678,-4.2458,-4.2295,-4.202,-4.1222,-4.0935,-4.0622,-3.9789,-3.8944,-3.8106,-3.7272,-3.6121,-3.3925,-2.9687,-2.8097,-2.6527,-2.3921,-2.0588,0.0,-2.2757,-2.3864,-2.4935,-2.6432,-2.8769,-3.0179,-3.0099,-2.5782,-2.4774,-2.8712,-2.5232,-2.4114,-2.6492,-2.423,-2.2163,-2.057,-1.7033,-1.6475,-1.9065,0.0,0.0,0.0,0.0,0.0,0.0,0.0,0.0,0.0,0.0,0.0,0.0,0.0,0.0,0.0,0.0,0.0,0.0,0.0,0.0,0.0,0.0,-4.4061,-4.5487,-4.7539,-5.1035,-5.6777,-5.9355,-6.0625,-6.0527,-6.0389,-6.029,-6.0292,-6.0517,-6.0646,-6.0633,-6.1031,-6.1269,-6.1248,-6.1427,-6.1093,-6.0154,-5.9915,-5.9072,-5.7615,-5.737,-5.6911,-5.6308,-5.6291,-5.5476,-5.4058,-5.4058,-5.3106,-5.1532,-5.1532,-5.0891,-4.9848,-4.9382,-4.8638,-4.7803,-4.7181,-4.654,-4.5997,-4.5994,-4.5853,-4.5667,-4.5595,-4.5402,-4.5183,-4.4978,-4.4816,-4.4518,-4.3768,-4.3425,-4.314,-4.2545,-4.23,-4.2195,-4.2174,-4.199,-4.1474,-4.0233,-3.9773,-3.9185,-3.7734,-3.7214,-3.599,-3.2767,-3.0771,-2.9395,-2.8755,-2.7592,0.0,-2.8872,-2.9782,-2.974,-2.8393,-2.9887,-3.0045,-2.772,-2.7343,-2.7512,-2.8099,-2.706,-2.6492,-2.6602,-2.5685,-2.4804,-2.3973,-2.1162,-2.0032,0.0,0.0,0.0,0.0,0.0,0.0,0.0,0.0,0.0,0.0,0.0,0.0,0.0,0.0,0.0,0.0,0.0,0.0,0.0,0.0,0.0,0.0,-4.5936,-5.0703,-5.4297,-5.4805,-5.666,-6.164,-6.3203,-6.4082,-6.457,-6.4179,-6.3885,-6.3886,-6.3198,-6.2612,-6.2226,-6.1815,-6.1573,-6.1512,-6.1504,-6.0867,-5.9567,-5.9555,-5.8715,-5.7062,-5.7061,-5.6602,-5.5767,-5.5767,-5.499,0.0,-5.3695,-5.2931,-5.1707,-5.1707,-5.1202,0.0,0.0,0.0,0.0,0.0,-4.6424,-4.5997,-4.6,-4.5994,-4.5989,-4.5955,-4.5943,-4.5918,-4.5723,-4.5543,-4.5276,-4.4609,-4.4289,-4.4068,-4.3568,-4.3388,-4.3276,-4.3031,-4.2576,-4.1868,-4.0726,-4.019,-3.9556,-3.8307,-3.7992,0.0,-3.5394,-3.1757,-2.8724,-2.7554,-2.6041,-2.5714,-2.7607,-2.8858,-2.917,-2.8043,-2.9673,-3.0076,-2.8219,-2.7024,0.0,0.0,0.0,-2.5641,-2.5357,-2.4701,0.0,0.0,0.0,-2.0137,-2.1306,0.0,0.0,0.0,-1.9645,-1.8203,0.0,0.0,0.0,0.0,0.0,0.0,0.0,0.0,0.0,0.0,0.0,0.0,0.0,0.0,0.0,0.0,-4.8457,-5.4101,-6.2031,-6.3223,-6.332,-6.3437,-6.5566,-6.7051,-6.7051,-6.6952,-6.6854,-6.6738,-6.5213,-6.3847,-6.2814,0.0,0.0,0.0,0.0,-6.0614,-5.8796,-5.8783,-5.7955,-5.6285,-5.6291,-5.5883,-5.5145,-5.5145,-5.4621,-5.3695,-5.3695,-5.3145,-5.2251,-5.2251,-5.1785,-5.0969,-5.0095,-4.8813,-4.7337,-4.6366,-4.6002,-4.6002,-4.6002,0.0,0.0,-4.5997,-4.5997,-4.5975,-4.588,-4.5749,-4.5616,-4.5352,-4.5186,-4.508,-4.4967,-4.4931,-4.4724,-4.3888,-4.3083,-4.2296,-4.1508,-4.0658,-3.9841,-3.9147,-3.875,-3.8263,-3.7442,-3.2184,-2.7184,-2.4491,-2.1552,-2.0692,-2.3618,-2.5297,-2.641,-2.6961,0.0,0.0,-2.9953,-2.6031,-2.5141,-2.8767,-2.556,-2.3697,-2.4048,-2.3094,-2.1162,-1.8217,-1.8104,-1.9366,-2.1985,-2.1925,-2.3539,-2.6539,-2.1287,-1.9892,0.0,0.0,0.0,0.0,0.0,0.0,0.0,0.0,0.0,0.0,0.0,0.0,0.0,0.0,0.0,-5.0507,-5.5156,-5.9746,-6.3515,-6.4648,-6.5351,-6.6055,-6.7207,-6.7949,-6.7949,-6.7304,-6.6561,-6.5744,-6.4823,-6.3574,-6.1933,-6.1635,0.0,-6.1407,-6.1357,-6.0472,-5.8656,-5.8757,-5.794,-5.6213,0.0,0.0,-5.6058,-5.6058,-5.5184,-5.3695,-5.3695,-5.2834,-5.1435,-5.1435,-5.093,-5.0062,-4.9182,-4.8658,-4.8153,-4.6585,-4.6002,-4.6002,-4.6002,-4.6002,-4.5997,-4.5994,-4.6003,-4.5943,-4.5599,-4.549,0.0,-4.5197,-4.5117,-4.5125,-4.5192,-4.5148,-4.5034,-4.4979,-4.4653,-4.4199,-4.3556,-4.2694,-4.1816,-4.1092,-4.0396,-3.9483,-3.816,-3.5546,-3.3284,-3.2166,-3.0686,-2.993,-3.0632,-3.0955,-3.0705,-2.961,-3.0455,-3.0314,-2.8429,-2.7944,-2.8105,-2.895,-2.805,-2.7329,-2.6915,-2.6708,-2.6173,-2.5316,-2.5301,-2.5579,-2.6132,-2.6134,-2.6242,-2.6419,-2.48,-2.4281,0.0,0.0,0.0,0.0,0.0,0.0,0.0,0.0,0.0,0.0,0.0,-4.2638,0.0,0.0,-5.3082,-5.4433,-5.9355,-6.3613,-6.5351,-6.5976,-6.6406,-6.6855,-6.6894,-6.707,-6.7519,-6.6367,-6.5544,-6.5419,-6.4284,-6.316,-6.2145,-6.1661,-6.1362,-6.1298,-6.1306,-6.0468,-5.8719,-5.878,-5.7935,-5.6246,-5.6285,-5.6078,-5.565,-5.565,-5.4699,-5.3048,-5.3048,-5.2348,-5.1202,-5.1202,-5.0697,-4.9809,-4.893,-4.8327,-4.7784,-4.6482,-4.6002,-4.6002,-4.6002,-4.6002,-4.5997,-4.6005,-4.6,-4.5941,-4.5642,-4.5552,-4.5491,-4.5269,-4.5192,-4.5233,-4.5286,-4.5254,-4.5192,-4.5192,-4.4779,-4.4304,-4.3958,-4.3224,-4.2508,-4.2201,-4.1378,-4.0463,-3.9735,-3.8359,-3.6712,-3.4795,-3.4069,-3.3748,-3.3789,-3.3758,-3.3295,-3.2137,-3.197,-3.1145,-2.9163,-2.8964,-2.8952,-2.9005,-2.8583,-2.8215,-2.7911,-2.7642,-2.7436,-2.7297,-2.7233,-2.7201,-2.7201,-2.717,-2.6991,-2.6674,-2.6191,-2.567,0.0,0.0,0.0,0.0,0.0,0.0,0.0,0.0,-4.1678,-4.4551,-4.6093,-4.7362,-4.8788,-5.3281,-5.7089,-5.7949,-6.2187,-6.5644,-6.6523,-6.6504,-6.6445,-6.6581,-6.5995,-6.5838,-6.6541,-6.5172,-6.4555,-6.5289,-6.379,-6.2781,-6.2613,-6.1771,-6.1283,-6.1223,-6.1271,-6.0507,-5.8819,-5.8796,-5.7962,-5.6291,-5.6291,-5.5922,-5.5242,-5.5242,-5.4291,-5.262,-5.2309,-5.1804,-5.1163,-5.0833,-5.027,-4.9537,-4.8502,-4.7667,-4.6968,-4.6249,-4.6002,-4.6002,-4.6002,-4.6002,-4.6002,-4.6002,-4.6002,-4.5969,-4.5786,-4.5723,-4.566,-4.5409,-4.5328,-4.5307,-4.5307,-4.5307,-4.5275,-4.517,-4.4652,-4.4157,-4.41,-4.3452,-4.2902,-4.3003,-4.2032,-4.1171,-4.1108,-4.0257,-3.864,-3.5813,-3.5467,-3.5463,-3.5292,-3.5105,-3.4734,-3.41,-3.317,-3.194,-3.0338,-2.9739,-2.9312,-2.8935,-2.8544,-2.8235,-2.802,-2.7554,-2.7299,-2.7299,-2.7321,-2.7358,-2.7358,-2.7448,-2.7416,-2.7246,-2.6928,-2.6201,-3.2422,-3.1621,-3.1307,-3.1241,-3.3416,-3.7421,0.0,0.0,-5.0058,-5.4086,-5.6851,-5.8594,-5.8789,-6.0644,-6.2422,-6.3301,-6.4004,-6.4746,-6.5625,-6.5078,-6.4822,-6.5485,-6.5481,-6.5462,-6.5559,-6.4636,-6.434,-6.5077,-6.3647,-6.2688,-6.2592,-6.1765,-6.1292,-6.1291,-6.1294,-6.0507,-5.8819,-5.8796,-5.7962,-5.6291,-5.6291,-5.6253,-5.6155,-5.6155,-5.5204,-5.3481,-5.1979,-5.128,-5.1086,-4.9532,-4.8832,-4.858,-4.6934,-4.6235,-4.6138,-4.6041,-4.6002,-4.6002,-4.6002,-4.6002,-4.6002,-4.6002,-4.6002,-4.598,-4.5899,-4.5791,-4.5676,-4.5522,-4.54,-4.5307,-4.5307,-4.5307,-4.5297,-4.5286,-4.521,-4.5133,-4.5133,-4.4454,-4.3843,-4.3854,-4.2564,-4.1387,-4.113,-4.0412,-3.9323,-3.779,-3.7465,-3.7096,-3.6258,-3.542,-3.4893,-3.4862,-3.3518,-3.194,-3.0338,-3.076,-3.0418,-2.8742,-2.8973,-2.8738,-2.7792,-2.745,-2.7299,-2.7299,-2.7937,-2.8248,-2.8265,-2.8904,-2.8853,-2.815,-2.8116,-2.742,-3.7747,-3.6384,0.0,0.0,-4.2027,-4.4238,-4.9931,-5.3025,-5.5469,-5.82,-6.0448,-6.207,-6.2578,-6.3672,-6.4629,0.0,-6.5488,-6.5762,-6.5625,-6.4371,-6.3227,-6.2512,-6.188,-6.2108,-6.3675,-6.3003,-6.2599,-6.2859,-6.2264,-6.1842,-6.1727,-6.1411,-6.124,-6.124,-6.1275,-6.0507,-5.8819,-5.8796,-5.7962,-5.6291,-5.6291,-5.6291,-5.6291,-5.6291,-5.534,-5.3617,-5.1921,-5.1202,-5.1105,-4.9862,-4.9066,-4.8483,-4.724,-4.6443,-4.6002,-4.6002,-4.6002,-4.6002,-4.6002,-4.6002,-4.6002,-4.6002,-4.6002,-4.5986,-4.5932,-4.5866,-4.5769,-4.5566,-4.5457,-4.54,-4.5328,-4.5307,-4.5307,-4.5307,-4.5307,-4.5307,-4.5307,-4.501,-4.4762,-4.4762,-4.3787,-4.2917,-4.2804,-4.1564,-4.0359,-3.9639,-3.8936,-3.8326,-3.7779,-3.6949,-3.6054,-3.5114,-3.3555,-3.2326,-3.1647,-3.1476,-3.1072,-3.0276,-3.0084,-2.9792,-2.934,-2.885,-2.8575,-2.8575,-2.8885,-2.9041,-2.9041,-2.9351,-2.9334,-2.899,-2.899,-2.8699,-4.0125,0.0,0.0,-4.6787,-4.9274,-5.1074,-5.4902,-5.7793,-6.0019,-6.123,-6.2676,-6.3848,-6.4238,-6.4824,0.0,-6.5566,-6.6133,-6.6328,-6.5683,-6.3838,-6.1978,-6.0442,-5.8929,-5.8856,-6.0991,-6.1069,-6.1065,-6.1232,-6.1244,-6.1306,-6.1456,-6.1299,-6.1201,-6.1201,-6.1042,-6.0274,-5.8819,-5.8582,-5.7748,-5.6291,-5.6058,-5.5942,-5.5922,-5.5689,-5.4899,-5.3617,-5.2154,-5.1416,-5.1105,-4.9998,-4.9163,-4.8483,-4.7376,-4.656,-4.6002,-4.6002,-4.6002,-4.6002,-4.6002,-4.6002,-4.6002,-4.6002,-4.6002,-4.5991,-4.5943,-4.5899,-4.5859,-4.5627,-4.5531,-4.5467,-4.5329,-4.5307,-4.5307,-4.5307,-4.5307,-4.5307,-4.5307,-4.5307,-4.5307,-4.5307,-4.4609,-4.4006,-4.4006,-4.2642,-4.1457,-4.1086,-4.0379,-3.9588,-3.879,-3.7991,-3.6868,-3.5188,-3.3959,-3.3078,-3.2638,-3.2265,-3.1874,-3.1433,-3.1037,-3.0725,-3.0511,-2.9857,-2.9506,-2.9506,-2.973,-2.9834,-2.9834,-3.0041,-3.0024,-2.9834,-2.9834,-2.9696,0.0,0.0,-4.2148,-4.6543,-5.2012,-5.7012,-5.9609,-6.2226,-6.4121,-6.418,-6.4902,-6.5273,-6.4453,-6.4316,-6.4629,-6.5469,-6.5625,-6.5625,-6.5605,-6.3312,-6.1283,-6.0317,-5.7876,-5.6581,0.0,-5.897,-6.0266,-6.105,-6.1108,-6.1466,-6.2317,-6.1619,-6.1201,-6.1201,-6.0519,-5.9704,-5.8819,-5.8026,-5.7191,-5.6291,-5.5437,-5.5048,-5.5009,-5.4155,-5.3753,-5.3656,-5.2756,-5.1921,-5.1066,-4.9357,-4.8619,-4.8425,-4.6721,-4.6021,-4.6002,-4.6002,-4.6002,-4.6002,-4.6002,-4.6002,-4.6002,-4.6002,-4.6002,-4.6002,-4.5997,-4.5955,-4.5873,-4.5739,-4.561,-4.5467,-4.5329,-4.5307,-4.5307,-4.5307,-4.5307,-4.5307,-4.5307,-4.5307,-4.5307,-4.5307,-4.4609,-4.4006,-4.4006,-4.33,-4.2544,-4.1958,-4.1849,-4.1067,-3.8967,-3.7991,-3.6868,-3.5188,-3.4968,-3.4307,-3.2729,-3.3293,-3.3054,-3.1507,-3.1574,-3.1308,-3.0529,-2.9857,-2.9506,-2.9506,-3.0265,-3.0662,-3.0679,-3.1369,-3.1351,-3.0662,-3.0662,-3.0213,0.0,0.0,-4.7617,-5.3066,-5.6797,-5.9648,-6.168,-6.3242,-6.414,-6.3555,-6.1366,-5.9292,-5.8414,-5.5907,-5.5376,-5.9721,-6.0425,-6.1423,-6.4336,-6.3428,-6.1264,-5.7997,-5.7286,0.0,0.0,0.0,0.0,-6.019,-6.0306,-6.0654,-6.1485,-6.1319,-6.1201,-6.1201,-6.048,-5.9684,-5.8819,-5.8007,-5.7153,-5.6291,-5.5417,-5.5009,-5.4951,-5.3494,-5.2834,-5.2795,-5.196,-5.1125,-5.025,-4.9085,-4.8269,-4.7628,-4.6443,-4.6002,-4.6002,-4.6002,-4.6002,-4.6002,-4.6002,-4.6002,-4.6002,-4.6002,-4.6002,-4.6002,-4.6002,-4.598,-4.5923,-4.5742,-4.5676,-4.5584,-4.536,-4.5307,-4.5307,-4.5307,-4.5307,-4.5307,-4.5307,-4.5307,-4.5307,-4.5307,-4.5048,-4.4857,-4.4857,-4.4007,-4.2939,-4.1824,-4.1033,-4.031,-3.9583,-3.8337,-3.7088,-3.5973,-3.5353,-3.4564,-3.3495,-3.3642,-3.3568,-3.3018,-3.2849,-3.2544,-3.2045,-3.1595,-3.1255,-3.1024,-3.1282,-3.142,-3.142,-3.1679,-3.1662,-3.142,-3.142,-3.1264,-4.6562,-4.9375,-5.1777,-5.8144,-6.0527,-6.1797,-6.3535,-6.3887,-6.3066,-6.0332,-5.7536,-5.4832,-5.2429,-4.9192,-4.897,-5.5376,-5.5908,-5.7241,-6.2207,-6.1846,-6.0129,-5.7545,-5.6834,0.0,0.0,0.0,0.0,-5.93,-5.9996,-6.0557,-6.1079,-6.1146,-6.1192,-6.1201,-6.0464,-5.9657,-5.8819,-5.8007,-5.7017,-5.5825,-5.4951,-5.4543,-5.4485,-5.3048,-5.2407,-5.2368,-5.1552,-5.0872,-5.025,-4.8755,-4.7997,-4.7648,-4.6463,-4.6002,-4.6002,-4.6002,-4.6002,-4.6002,-4.6002,-4.6002,-4.6002,-4.6002,-4.6002,-4.6002,-4.6002,-4.6002,-4.5969,-4.5807,-4.5739,-4.566,-4.5438,-4.5348,-4.5307,-4.5307,-4.5307,-4.5307,-4.5307,-4.5307,-4.5307,-4.5307,-4.5307,-4.5307,-4.5307,-4.4589,-4.3693,-4.2703,-4.1367,-4.0333,-3.9934,-3.8744,-3.7606,-3.6813,-3.5973,-3.5133,-3.4289,-3.3972,-3.3807,-3.3807,-3.348,-3.3154,-3.2811,-3.2487,-3.2144,-3.1818,-3.18,-3.18,-3.18,-3.18,-3.18,-3.18,-3.18,-3.18,-4.8555,-5.1875,-5.4765,-6.1406,-6.3066,-6.3476,-6.5039,-6.3926,-6.0879,-5.4961,-5.3375,-5.1529,0.0,0.0,-4.5533,-5.2443,-5.2413,-5.365,-5.9746,-5.9133,-5.8297,0.0,0.0,0.0,0.0,0.0,0.0,-5.8526,0.0,-6.1002,-6.1099,-6.1099,-6.1137,-6.1201,-6.042,-5.9607,-5.8819,-5.7968,-5.6699,-5.5068,-5.4135,-5.3695,-5.3675,-5.2756,-5.2348,-5.229,-5.1474,-5.1105,-5.0872,-4.8347,-4.7764,-4.8308,-4.6701,-4.6079,-4.6079,-4.6118,-4.6099,-4.6079,-4.6079,-4.6041,-4.6002,-4.6002,-4.6002,-4.6002,-4.6002,-4.6002,-4.598,-4.5925,-4.5805,-4.5684,-4.554,-4.5409,-4.5317,-4.5307,-4.5307,-4.5307,-4.5307,-4.5307,-4.5307,-4.5307,-4.5307,-4.5307,-4.5307,-4.5023,-4.4701,-4.4438,-4.2777,-4.1167,-4.0094,-3.9221,-3.8395,-3.7584,-3.6831,-3.5991,-3.5078,-3.4289,-3.3844,-3.3807,-3.3494,-3.3169,-3.2842,-3.2486,-3.2179,-3.1819,-3.1818,-3.18,-3.18,-3.18,-3.18,-3.18,-3.18,-3.18,-5.4961,-5.8125,-6.0137,-6.3203,-6.3965,-6.373,-6.289,-5.9375,-5.5137,-5.1035,-4.5497,-4.0602,0.0,0.0,0.0,-4.7927,-5.1426,0.0,-6.2363,-6.2363,0.0,0.0,0.0,-5.8439,-5.7392,-5.8275,0.0,0.0,-5.9358,-5.9783,-6.1041,-6.1099,-6.1137,-6.1201,-6.042,-5.9607,-5.8819,-5.7366,-5.6408,-5.5942,-5.4433,-5.3695,-5.3656,-5.2173,-5.1513,-5.1455,-5.06,-4.9862,-4.9163,-4.7842,-4.7045,-4.6676,-4.689,-4.6968,-4.7045,-4.7706,-4.7531,-4.6968,-4.6968,-4.654,-4.6002,-4.6002,-4.6002,-4.6002,-4.6002,-4.6002,-4.598,-4.5925,-4.588,-4.5791,-4.5566,-4.5476,-4.541,-4.5309,-4.5307,-4.5307,-4.5307,-4.5307,-4.5307,-4.5307,-4.5307,-4.5307,-4.5307,-4.5023,-4.4701,-4.4438,-4.3262,-4.2004,-4.094,-3.957,-3.8395,-3.7584,-3.7327,-3.6597,-3.5133,-3.4821,-3.4435,-3.3844,-3.3721,-3.3522,-3.3184,-3.286,-3.2503,-3.2179,-3.1929,-3.18,-3.18,-3.18,-3.18,-3.18,-3.18,-3.18,-5.873,-6.1543,-6.3164,-6.4531,-6.4004,-6.2402,-5.9531,-5.5488,-5.0488,-4.4003,-3.912,0.0,0.0,0.0,0.0,0.0,0.0,0.0,-6.0422,-6.1301,-6.1102,0.0,-6.0353,0.0,-5.9037,-5.9532,-6.0054,0.0,-5.9977,-6.0112,-6.106,-6.1099,-6.1146,-6.1236,-6.0428,-5.944,-5.8284,-5.6965,-5.6291,-5.6272,-5.4912,-5.4058,-5.3656,-5.2329,-5.1532,-5.1144,0.0,-4.9843,-4.9609,-4.7978,-4.7453,-4.7672,-4.7414,-4.7531,-4.7939,-4.8425,-4.8289,-4.7822,-4.7434,-4.6987,-4.6502,-4.6118,-4.6002,-4.6079,-4.6443,-4.6307,-4.6069,-4.642,-4.6222,-4.5873,-4.5723,-4.5593,-4.5476,-4.5409,-4.5339,-4.5307,-4.5307,-4.5307,-4.5307,-4.5307,-4.5307,-4.5307,-4.5307,-4.5023,-4.4701,-4.4438,-4.343,-4.2301,-4.1236,-4.001,-3.8909,-3.8102,-3.7713,-3.6978,-3.5665,-3.5224,-3.4656,-3.3844,-3.3807,-3.3652,-3.3321,-3.2986,-3.2651,-3.2318,-3.1966,-3.18,-3.18,-3.18,-3.18,-3.18,-3.18,-3.18,-6.1074,-6.3418,-6.4805,-6.5449,-6.3633,-6.0527,-5.5996,-5.1777,-4.6073,-3.6358,0.0,-3.3312,-3.1904,0.0,-3.5543,-4.486,0.0,-5.0263,-5.7231,-5.877,-5.9739,-6.1285,-6.0701,-6.0422,-6.104,-6.046,-6.0344,-6.106,-6.1099,-6.1099,-6.1099,-6.1099,-6.1115,-6.1131,-6.0189,-5.8998,-5.7619,-5.6738,-5.6291,-5.6291,-5.5417,-5.4601,-5.385,-5.297,-5.2135,-5.1319,0.0,0.0,-5.0833,-4.8463,-4.8366,-4.9596,-4.8191,-4.8114,-4.8794,-4.8891,-4.8871,-4.8658,-4.7764,-4.7395,-4.7162,-4.6268,-4.6002,-4.6138,-4.6909,-4.6599,-4.6157,-4.6909,-4.6542,-4.5919,-4.59,-4.5715,-4.5522,-4.5504,-4.54,-4.5307,-4.5307,-4.5307,-4.5307,-4.5307,-4.5307,-4.5307,-4.5307,-4.5057,-4.477,-4.4457,-4.3552,-4.2529,-4.1399,-4.0469,-3.9588,-3.8799,-3.8065,-3.7327,-3.6523,-3.5771,-3.4986,-3.4174,-3.4137,-3.4009,-3.3706,-3.3368,-3.3019,-3.2685,-3.2369,-3.2097,-3.1955,-3.1955,-3.1903,-3.18,-3.18,-3.18,-6.3945,-6.5664,-6.6308,-6.5742,-6.3633,-6.0195,-5.4453,-4.7166,0.0,0.0,0.0,-2.9352,-2.9769,-3.2753,0.0,-4.5957,0.0,0.0,0.0,0.0,-6.0659,0.0,0.0,0.0,0.0,0.0,0.0,0.0,0.0,-6.1099,-6.1099,-6.1155,-6.0907,-6.0336,-5.8821,-5.7877,-5.7599,-5.6738,-5.6291,-5.6291,-5.5417,-5.4912,-5.4737,-5.3863,-5.3009,-5.2154,-5.1338,0.0,-5.0023,-4.8852,-4.8541,-4.8871,-4.9285,-4.9537,-4.9771,-5.0484,-5.0289,-4.9557,-4.8677,-4.79,-4.7162,-4.6268,-4.6002,-4.6041,-4.6177,-4.6118,-4.6041,-4.6177,-4.6108,-4.5964,-4.5899,-4.5783,-4.5643,-4.5531,-4.54,-4.5307,-4.5307,-4.5307,-4.5307,-4.5307,-4.5307,-4.5307,-4.5307,-4.5246,-4.5042,-4.4465,-4.4243,-4.3625,-4.2277,-4.0799,-3.9588,-3.8799,-3.8579,-3.8175,-3.7364,-3.7162,-3.6721,-3.5917,-3.5862,-3.5848,-3.5791,-3.5399,-3.5037,-3.4691,-3.4375,-3.3713,-3.2714,-3.2714,-3.2403,-3.18,-3.18,-3.18,-6.2695,-6.4844,-6.6699,-6.582,-6.2988,-5.834,-5.0487,0.0,0.0,0.0,0.0,-2.7961,-2.9755,0.0,0.0,0.0,0.0,0.0,0.0,0.0,0.0,0.0,0.0,0.0,0.0,0.0,0.0,0.0,0.0,-6.1146,-6.1099,-6.0775,-6.001,-5.8792,-5.8,-5.7386,-5.6939,-5.6505,-5.6291,-5.6291,-5.5883,-5.5437,-5.499,-5.4563,-5.365,-5.2387,-5.1999,0.0,-5.0503,-4.9629,-4.9532,-4.9959,-4.9906,-5.0178,-5.0619,-5.1047,-5.095,-5.0386,-4.9066,-4.8327,-4.7764,-4.6424,-4.6307,-4.6676,-4.6676,-4.6676,-4.6676,-4.6676,-4.6676,-4.6549,-4.6083,-4.6519,-4.6955,-4.6367,-4.6071,-4.5812,-4.5392,-4.5307,-4.5307,-4.5307,-4.5307,-4.5307,-4.5307,-4.5162,-4.4934,-4.465,-4.4493,-4.3928,-4.2665,-4.1841,-4.0837,-3.9457,-3.8946,-3.8377,-3.7566,-3.7492,-3.7162,-3.634,-3.6303,-3.6303,-3.6303,-3.5912,-3.5609,-3.5468,-3.496,-3.4404,-3.3833,-3.3623,-3.3335,-3.3009,-3.3009,-3.3009,-6.1308,-6.4004,-6.6601,-6.5351,-6.1816,-5.6191,-4.6849,-4.1219,0.0,0.0,-2.646,-2.7741,-3.0017,0.0,0.0,0.0,0.0,0.0,0.0,0.0,0.0,0.0,0.0,0.0,0.0,0.0,0.0,0.0,0.0,0.0,-6.0893,-5.9974,-5.8866,-5.7564,-5.7385,-5.69,-5.6019,-5.6214,-5.6214,-5.6019,-5.6214,-5.5942,-5.5281,-5.5281,-5.433,-5.2678,-5.2678,0.0,0.0,-5.0464,-5.0581,-5.1125,-5.0445,-5.06,-5.1202,-5.1202,-5.1202,-5.095,-4.9202,-4.8599,-4.8347,-4.6773,-4.6735,-4.7293,-4.7293,-4.7293,-4.7331,-4.7531,-4.7434,-4.7201,-4.6696,-4.7468,-4.8188,-4.7331,-4.6801,-4.6328,-4.5679,-4.5564,-4.5507,-4.5326,-4.5307,-4.5307,-4.5307,-4.5087,-4.4879,-4.48,-4.4624,-4.4111,-4.31,-4.2664,-4.1856,-4.0333,-3.9441,-3.8634,-3.7841,-3.7768,-3.7492,-3.6853,-3.6798,-3.6798,-3.6798,-3.6501,-3.6292,-3.6214,-3.5685,-3.5277,-3.4918,-3.4613,-3.433,-3.4113,-3.4113,-3.4113,-6.2715,-6.539,-6.6308,-6.3848,-6.0019,-5.455,-4.5814,0.0,0.0,-2.7987,-2.7322,-2.821,-2.9314,-2.9668,-3.1969,0.0,0.0,0.0,0.0,0.0,0.0,0.0,0.0,0.0,0.0,0.0,0.0,0.0,0.0,0.0,-6.0193,-5.8629,-5.7681,-5.7593,-5.6835,-5.6,-5.5126,-5.5903,-5.5903,-5.5126,-5.5922,-5.6253,-5.6175,-5.6175,-5.5223,-5.3578,-5.3578,0.0,0.0,-5.1105,-5.1125,-5.1183,-5.1105,-5.1125,-5.1202,-5.1202,-5.1202,-5.095,-4.9202,-4.8599,-4.8444,-4.7492,-4.724,-4.7293,-4.7293,-4.7293,-4.7473,-4.8269,-4.792,-4.7453,-4.8172,-4.8379,-4.8329,-4.7979,-4.7172,-4.6481,-4.6405,-4.6385,-4.6175,-4.543,-4.5307,-4.5307,-4.5307,-4.5267,-4.5162,-4.4856,-4.4776,-4.4553,-4.3952,-4.2552,-4.1449,-4.1034,-4.0267,-3.946,-3.867,-3.8597,-3.856,-3.8487,-3.8487,-3.8487,-3.8487,-3.8438,-3.8245,-3.7901,-3.7817,-3.7094,-3.569,-3.5652,-3.5109,-3.4113,-3.4113,-3.4113,-5.5484,-6.0448,-6.4824,-6.2734,-5.8594,-5.291,-4.4729,0.0,0.0,-2.7272,-2.6657,-2.75,-2.8381,-2.8547,-2.9771,0.0,0.0,0.0,0.0,0.0,0.0,0.0,0.0,0.0,0.0,0.0,0.0,0.0,0.0,0.0,-5.9294,-5.8166,-5.728,-5.6835,-5.5961,-5.5592,-5.5786,-5.5612,-5.534,-5.5009,-5.5359,-5.5242,-5.4744,-5.5281,-5.4563,-5.295,-5.3481,0.0,0.0,-5.1202,-5.1202,-5.1202,-5.1202,-5.1202,-5.1202,-5.1202,-5.1202,-5.095,-4.9202,-4.8599,-4.8463,-4.7589,-4.7648,-4.8075,-4.8075,-4.8444,-4.8832,-4.8658,-4.8735,-4.8813,-4.8658,-4.8832,-4.9029,-4.8936,-4.847,-4.778,-4.6729,-4.65,-4.6271,-4.5449,-4.5307,-4.5307,-4.5307,-4.5307,-4.5256,-4.5121,-4.5098,-4.4953,-4.4519,-4.3765,-4.2766,-4.1477,-4.0044,-3.9056,-3.8726,-3.8707,-3.8707,-3.8707,-3.8707,-3.8707,-3.8707,-3.8707,-3.8627,-3.8449,-3.8219,-3.7803,-3.7166,-3.6692,-3.6225,-3.5789,-3.5526,-3.5421,-5.0125,-5.5738,-6.1054,-6.0351,-5.6093,-5.0153,0.0,0.0,-3.1924,-2.6602,-2.6145,-2.6803,-2.7194,-2.7662,-2.8397,-2.9631,0.0,0.0,0.0,0.0,0.0,0.0,0.0,0.0,0.0,0.0,0.0,0.0,0.0,0.0,0.0,-5.7624,-5.6886,-5.6311,-5.5709,-5.5553,-5.5903,-5.5553,-5.5126,-5.4621,-5.4873,-5.4543,-5.3714,-5.433,-5.3805,-5.2426,0.0,0.0,0.0,-5.1202,-5.1202,-5.1202,-5.1202,-5.1202,-5.1163,-5.0911,-5.0814,-5.0561,-4.8813,-4.8211,-4.8153,-4.7803,-4.8094,-4.8696,-4.9202,-4.9609,-4.9829,-4.9473,-4.9804,-5.0134,-4.9532,-4.9465,-4.9608,-4.9806,-4.9509,-4.8745,-4.7218,-4.6882,-4.6577,-4.5507,-4.5307,-4.5307,-4.5307,-4.5307,-4.5307,-4.5307,-4.5307,-4.5184,-4.4843,-4.443,-4.3617,-4.2165,-4.0304,-3.9034,-3.8726,-3.8707,-3.8707,-3.8707,-3.8707,-3.8707,-3.8707,-3.8707,-3.8707,-3.8707,-3.8417,-3.8219,-3.8101,-3.7542,-3.719,-3.7075,-3.6658,-3.6409,-4.905,-5.2667,-5.4426,-5.6211,-5.2068,-4.5984,0.0,0.0,-2.9745,-2.6215,-2.6145,-2.6455,-2.5662,-2.6884,-2.801,-2.801,-2.8765,0.0,0.0,0.0,0.0,0.0,0.0,0.0,0.0,0.0,0.0,0.0,0.0,0.0,0.0,-5.6796,-5.6311,-5.6291,-5.6291,-5.5883,-5.5029,-5.5864,-5.5417,-5.3714,-5.4582,-5.4543,-5.3695,-5.3714,-5.3228,0.0,0.0,0.0,0.0,-5.1202,-5.1202,-5.1202,-5.1202,-5.1202,-5.1105,-5.0237,-4.9906,-4.9654,-4.792,-4.7312,-4.7453,-4.8308,-4.858,-4.891,-5.0658,-5.0581,-5.0081,-5.093,-5.1183,-5.1183,-5.1183,-5.0436,-4.9868,-5.0527,-4.9971,-4.9026,-4.8004,-4.7788,-4.7292,-4.5621,-4.5307,-4.5307,-4.5307,-4.5307,-4.5307,-4.5307,-4.5307,-4.5184,-4.4843,-4.4092,-4.3496,-4.3216,-4.1451,-3.9841,-3.8793,-3.8707,-3.8707,-3.8707,-3.8707,-3.8707,-3.8707,-3.8707,-3.8707,-3.8707,-3.8692,-3.8499,-3.8101,-3.8085,-3.7879,-3.7469,-3.7094,-3.6678,-3.9836,-4.3728,-4.685,-4.6838,-4.406,-4.0219,-3.5924,-3.228,-2.9,-2.6099,-2.57,-2.5971,-2.6281,-2.63,-2.7232,-3.0133,-2.9863,0.0,0.0,0.0,0.0,0.0,0.0,0.0,0.0,0.0,0.0,0.0,0.0,0.0,0.0,-5.6214,-5.5689,-5.6272,-5.5728,-5.5573,-5.5883,-5.4971,-5.4258,-5.3695,-5.3378,-5.2795,-5.2005,-5.2606,0.0,0.0,0.0,0.0,0.0,-5.1202,-5.1202,-5.1144,-5.0542,-5.0309,-5.0212,-4.9318,-4.9007,-4.8852,-4.7706,-4.7293,-4.7434,-4.8327,-4.8599,-4.893,-5.0678,-5.1008,-5.0853,-5.1125,-5.1202,-5.1202,-5.1202,-5.0895,-5.0637,-5.0844,-5.0082,-4.9037,-4.8124,-4.7408,-4.6596,-4.5507,-4.5307,-4.5307,-4.5307,-4.5307,-4.5307,-4.5307,-4.5307,-4.5256,-4.5162,-4.4729,-4.4182,-4.3541,-4.2233,-4.0952,-3.9874,-3.912,-3.8707,-3.8707,-3.8707,-3.8707,-3.8707,-3.8707,-3.8707,-3.8707,-3.8707,-3.8627,-3.8515,-3.8236,-3.7896,-3.7505,-3.7377,-3.7246,0.0,-3.7089,-4.0118,-4.0203,-3.8373,0.0,0.0,-2.9968,-2.7449,-2.5773,-2.5468,-2.5642,-2.6145,-2.5836,-2.6358,-2.9007,-2.9089,0.0,0.0,0.0,0.0,0.0,0.0,0.0,0.0,0.0,0.0,0.0,0.0,0.0,0.0,-5.5767,-5.5242,-5.5786,-5.4951,-5.4776,-5.5301,-5.4239,-5.3544,-5.3233,-5.2708,-5.2028,-5.1267,-5.181,0.0,0.0,0.0,0.0,0.0,-5.1235,-5.1225,-5.1118,-5.0261,-4.9925,-4.9756,-4.8584,-4.8126,-4.7978,-4.7104,-4.6812,-4.6948,-4.7822,-4.8558,-4.9298,-5.0381,-5.0948,-5.1202,-5.1202,-5.1202,-5.1202,-5.1202,-5.1134,-5.0984,-5.0606,-4.998,-4.9093,-4.7789,-4.7011,-4.6325,-4.547,-4.5307,-4.5307,-4.5307,-4.5307,-4.5307,-4.5307,-4.5307,-4.5307,-4.5307,-4.5132,-4.4836,-4.4333,-4.3,-4.1857,-4.1198,-3.9742,-3.8822,-3.8707,-3.8719,-3.8719,-3.8707,-3.8707,-3.8707,-3.8707,-3.8707,-3.8707,-3.8707,-3.8451,-3.8135,-3.7755,-3.7755,-3.7703,0.0,-3.2268,0.0,0.0,0.0,0.0,0.0,-2.7612,0.0,-2.5317,-2.5373,-2.551,-2.5622,-2.5549,-2.5588,-2.5951,-2.7162,0.0,0.0,0.0,0.0,0.0,0.0,0.0,0.0,0.0,0.0,0.0,0.0,0.0,0.0,-5.5378,-5.4873,-5.4815,-5.396,-5.3578,-5.3695,-5.3642,-5.3233,-5.2508,-5.2434,-5.2025,-5.1297,-5.1299,0.0,0.0,0.0,0.0,0.0,-5.1271,-5.1227,-5.1023,-5.0221,-4.982,-4.9519,-4.7976,-4.7322,-4.7105,-4.6362,-4.6056,-4.6153,-4.7037,-4.8433,-4.9838,-4.9873,-5.0514,-5.1189,-5.1125,-5.1144,-5.1202,-5.1202,-5.1202,-5.0965,-5.0026,-4.9708,-4.91,-4.721,-4.6723,-4.6369,-4.5482,-4.5298,-4.5317,-4.5307,-4.5307,-4.5307,-4.5307,-4.5307,-4.5307,-4.5317,-4.5359,-4.5389,-4.5389,-4.3738,-4.2614,-4.2603,-4.0516,-3.9059,-3.8765,-3.8777,-3.8762,-3.8723,-3.8707,-3.8707,-3.8707,-3.8707,-3.8707,-3.8707,-3.8707,-3.8544,-3.8229,-3.8263,-3.8079,-2.4549,0.0,-2.7355,-2.7747,-2.7444,-2.6904,0.0,-2.5729,-2.5182,-2.5154,0.0,-2.559,-2.687,-2.6058,-2.6452,-3.0311,-2.9758,0.0,0.0,0.0,0.0,0.0,0.0,0.0,0.0,0.0,0.0,0.0,0.0,0.0,0.0,-5.4485,-5.3689,-5.3028,-5.2212,-5.2407,-5.3695,-5.3098,-5.2682,-5.2489,-5.1882,-5.1481,-5.1297,-5.1341,0.0,0.0,0.0,0.0,-5.1277,-5.1239,-5.0842,-5.0201,-4.9331,-4.8596,-4.7942,-4.7554,-4.6999,-4.6515,-4.6936,-4.666,-4.6287,-4.7108,-4.8097,-4.9095,-4.9702,-5.052,-5.1063,-5.0384,-5.0697,-5.1202,-5.1202,-5.1202,-5.1138,-5.09,-4.975,-4.8578,-4.8094,-4.6908,-4.5849,-4.5515,-4.5448,-4.5429,-4.5328,-4.5307,-4.5317,-4.5378,-4.5388,-4.5379,-4.538,-4.54,-4.541,-4.541,-4.4432,-4.3722,-4.3501,-4.0904,-3.9232,-3.9151,-3.8935,-3.8792,-3.8777,-3.8719,-3.8707,-3.8707,-3.8707,-3.8707,-3.8707,-3.875,-3.8747,-3.8649,-3.871,-3.8691,-2.3637,-2.4449,-2.5374,-2.4569,-2.5,-2.5621,-2.5518,0.0,0.0,0.0,0.0,0.0,0.0,0.0,0.0,0.0,0.0,0.0,0.0,0.0,0.0,0.0,0.0,0.0,0.0,0.0,0.0,0.0,0.0,0.0,0.0,-5.3572,-5.2892,-5.2407,-5.1233,-5.124,-5.2548,-5.2113,-5.1938,-5.1993,-5.1546,-5.1343,-5.1347,-5.1384,-5.1386,0.0,0.0,0.0,-5.1277,-5.0861,-5.0438,-4.9912,-4.868,-4.7899,-4.7393,-4.7004,-4.6549,-4.6223,-4.6691,-4.6557,-4.6342,-4.7174,-4.7746,-4.8277,-4.9134,-4.9975,-5.0626,-5.0531,-5.0833,-5.1202,-5.1202,-5.1202,-5.1008,-5.0192,-4.9225,-4.8264,-4.7424,-4.6472,-4.5742,-4.5618,-4.5573,-4.5522,-4.5447,-4.5381,-4.537,-4.54,-4.54,-4.539,-4.54,-4.5429,-4.5438,-4.5438,-4.4727,-4.4182,-4.403,-4.1727,-4.0203,-4.0052,-3.9518,-3.9173,-3.9031,-3.8989,-3.8925,-3.8777,-3.8795,-3.8795,-3.8795,-3.8837,-3.8848,-3.8877,-3.8921,-3.8964,-2.4662,-2.5288,-2.5524,-2.405,-2.4867,-2.602,-2.5849,0.0,0.0,0.0,0.0,0.0,0.0,0.0,0.0,0.0,0.0,0.0,0.0,0.0,0.0,0.0,0.0,0.0,0.0,0.0,0.0,0.0,0.0,0.0,0.0,-5.2678,-5.216,-5.2022,-5.0514,-5.008,-5.0826,-5.0826,-5.0896,-5.0996,-5.0996,-5.101,-5.1004,-5.1141,-5.1137,0.0,0.0,0.0,-5.0867,-5.017,-4.9813,-4.9569,-4.8131,-4.747,-4.7225,-4.662,-4.6289,-4.6127,-4.6181,-4.6209,-4.632,-4.7064,-4.7365,-4.7603,-4.8521,-4.9289,-5.0007,-5.0947,-5.1231,-5.1206,-5.12,-5.12,-5.0803,-4.919,-4.8704,-4.8164,-4.6492,-4.6028,-4.5899,-4.5777,-4.5681,-4.5624,-4.5595,-4.55,-4.541,-4.5419,-4.5419,-4.5419,-4.5429,-4.5485,-4.5513,-4.5513,-4.4914,-4.4489,-4.4489,-4.2869,-4.1722,-4.1438,-4.0337,-3.9583,-3.9357,-3.9324,-3.9192,-3.8964,-3.8921,-3.891,-3.891,-3.8925,-3.8935,-3.8993,-3.9007,-3.905,-2.452,-2.4817,-2.4843,-2.4576,-2.4719,-2.4938,-2.4903,0.0,0.0,0.0,0.0,0.0,0.0,0.0,0.0,0.0,0.0,0.0,0.0,0.0,0.0,0.0,0.0,0.0,0.0,0.0,0.0,0.0,0.0,0.0,0.0,0.0,-5.1047,-5.0317,-4.9375,-4.8976,-4.9175,-4.9175,-4.9178,-4.9199,-4.9209,-4.9194,-4.9228,-4.9967,-4.9893,0.0,0.0,-4.9877,-4.9167,-4.904,-4.8568,-4.7861,-4.7614,-4.7061,-4.646,-4.7073,-4.6821,-4.6181,-4.6268,-4.6245,-4.6225,-4.6415,-4.6975,-4.7711,-4.8552,-4.8892,-4.9309,-5.0844,-5.128,-5.1272,-5.1211,-5.1249,-5.1027,-5.0014,-4.9216,-4.8413,-4.7388,-4.6629,-4.6111,-4.5983,-4.5853,-4.5735,-4.5627,-4.55,-4.5419,-4.5485,-4.5485,-4.5504,-4.5568,-4.5577,-4.5586,-4.5586,-4.547,-4.5402,-4.5402,-4.4453,-4.3841,-4.3778,-4.121,-3.9664,-3.9571,-3.9389,-3.9285,-3.9232,-3.9021,-3.891,-3.891,-3.8968,-3.8979,-3.8993,-3.9064,-3.9087,-2.3825,-2.3731,-2.3953,-2.6233,-2.6089,-2.541,-2.541,-2.5045,0.0,0.0,0.0,0.0,0.0,0.0,0.0,0.0,0.0,0.0,0.0,0.0,0.0,0.0,0.0,0.0,0.0,0.0,0.0,0.0,0.0,0.0,0.0,0.0,-4.9672,-4.9266,-4.8479,-4.8072,-4.8105,-4.7673,-4.7903,-4.88,-4.8807,-4.8798,-4.8818,-4.9208,-4.9189,-4.8818,0.0,-4.9165,-4.8753,-4.8283,-4.7865,-4.7448,-4.6986,-4.655,-4.6245,-4.6655,-4.6545,-4.6191,-4.6248,-4.6249,-4.6262,-4.63,-4.6871,-4.7628,-4.804,-4.846,-4.9051,-5.0303,-5.0633,-5.0693,-5.1139,-5.0934,-5.0385,-4.9508,-4.8631,-4.777,-4.6932,-4.6468,-4.6176,-4.6111,-4.6002,-4.5908,-4.5878,-4.5722,-4.5621,-4.5665,-4.5601,-4.5568,-4.5605,-4.5594,-4.5594,-4.5594,-4.5594,-4.5594,-4.5594,-4.4797,-4.3912,-4.3008,-4.1485,-4.0409,-3.9951,-3.9705,-3.9566,-3.9566,-3.9344,-3.9219,-3.9219,-3.9115,-3.9045,-3.9045,-3.9087,-3.9101,-2.3139,-2.2704,-2.2879,-2.6704,0.0,-2.682,-2.7625,-2.7285,0.0,0.0,0.0,0.0,0.0,0.0,0.0,0.0,0.0,0.0,0.0,0.0,0.0,0.0,0.0,0.0,0.0,0.0,0.0,0.0,0.0,0.0,0.0,0.0,-4.8406,-4.8421,-4.7626,-4.7207,-4.7225,-4.6606,-4.6944,-4.8213,-4.8213,-4.8213,-4.8213,-4.8427,-4.8406,-4.8228,-4.8404,-4.8378,-4.8135,-4.747,-4.7209,-4.7137,-4.6482,-4.6211,-4.6206,-4.6206,-4.6201,-4.6208,-4.6206,-4.6238,-4.6289,-4.6288,-4.6857,-4.7526,-4.7582,-4.8162,-4.895,-4.9611,-4.9906,-5.0215,-5.1101,-5.0835,-5.0121,-4.9244,-4.8363,-4.7506,-4.6709,-4.6378,-4.6228,-4.6214,-4.6128,-4.6045,-4.6095,-4.5944,-4.5822,-4.5787,-4.5704,-4.5637,-4.5594,-4.5594,-4.5594,-4.5594,-4.5594,-4.5518,-4.5306,-4.4874,-4.3893,-4.222,-4.1536,-4.0919,-4.0288,-4.0042,-3.9882,-3.9882,-3.9671,-3.9561,-3.9561,-3.9351,-3.924,-3.9192,-3.9192,-3.917,-2.2716,-2.2099,-2.1636,-2.4252,-2.6666,0.0,-3.2414,-3.3104,0.0,-3.4167,0.0,0.0,0.0,0.0,0.0,0.0,0.0,0.0,0.0,0.0,0.0,0.0,0.0,0.0,0.0,0.0,0.0,0.0,0.0,0.0,0.0,0.0,0.0,-4.7577,-4.6758,-4.6326,-4.6383,-4.6321,-4.6358,-4.6475,-4.6475,-4.6475,-4.6515,-4.7315,-4.7251,-4.652,-4.726,-4.7135,-4.6384,-4.6326,-4.6298,-4.6287,-4.6294,-4.6258,-4.6203,-4.6193,-4.6203,-4.6193,-4.6194,-4.6209,-4.6226,-4.6289,-4.6883,-4.7584,-4.7606,-4.8152,-4.8816,-4.8874,-4.9478,-5.0291,-5.1163,-5.1352,-5.1078,-5.0217,-4.9339,-4.8482,-4.766,-4.6862,-4.6296,-4.6298,-4.6181,-4.6098,-4.6098,-4.5983,-4.5869,-4.5808,-4.5793,-4.5734,-4.5612,-4.5594,-4.5594,-4.5594,-4.5594,-4.5267,-4.4451,-4.5075,-4.4786,-4.3104,-4.1462,-4.0538,-4.0481,-4.0286,-4.0167,-4.0167,-3.9912,-3.9775,-3.9775,-3.9765,-3.966,-3.9458,-3.9458,-3.9337,-2.0677,-2.1674,-2.3253,-2.6316,-2.9393,0.0,0.0,-3.2972,-3.4736,-3.5571,-3.6179,0.0,0.0,0.0,0.0,0.0,0.0,0.0,0.0,0.0,0.0,0.0,0.0,0.0,0.0,0.0,0.0,0.0,0.0,0.0,0.0,0.0,0.0,-4.6699,-4.6401,-4.6273,-4.63,-4.63,-4.63,-4.63,-4.63,-4.6298,-4.631,-4.6642,-4.6596,-4.6253,-4.6565,-4.6499,-4.6192,-4.6192,-4.6203,-4.6209,-4.6222,-4.6222,-4.6196,-4.6203,-4.6199,-4.6199,-4.62,-4.6197,-4.6206,-4.6234,-4.6835,-4.7433,-4.6945,-4.7385,-4.8057,-4.8057,-4.8642,-4.9499,-5.0367,-5.0586,-5.0377,-4.9501,-4.8662,-4.7822,-4.6963,-4.6534,-4.63,-4.63,-4.6269,-4.6216,-4.6216,-4.6109,-4.5983,-4.5875,-4.5822,-4.5749,-4.562,-4.5594,-4.5594,-4.5594,-4.5594,-4.5479,-4.5152,-4.4913,-4.4509,-4.3893,-4.322,-4.2393,-4.1354,-4.1231,-4.0929,-4.04,-4.0157,-4.0052,-4.0052,-3.9872,-3.9754,-3.9683,-3.9683,-3.9637,-1.9113,-2.1251,-2.4212,-2.7067,0.0,0.0,-3.3002,-3.4291,-3.6217,-3.7937,-3.9175,0.0,0.0,0.0,0.0,0.0,0.0,0.0,0.0,0.0,0.0,0.0,0.0,0.0,0.0,0.0,0.0,0.0,0.0,0.0,0.0,0.0,0.0,0.0,-4.6273,-4.63,-4.63,-4.63,-4.63,-4.63,-4.6298,-4.6292,-4.6303,-4.6303,-4.6258,-4.6201,-4.6201,-4.6192,-4.6196,-4.6196,-4.6193,-4.6206,-4.6199,-4.6203,-4.6206,-4.6199,-4.6199,-4.6199,-4.6199,-4.6192,-4.6206,-4.6206,-4.6609,-4.6992,-4.6464,-4.6887,-4.752,-4.7258,-4.7978,-4.8876,-4.9226,-4.9694,-4.9948,-4.9345,-4.8388,-4.743,-4.6846,-4.6495,-4.63,-4.63,-4.63,-4.63,-4.63,-4.6216,-4.6128,-4.5987,-4.5928,-4.5835,-4.5684,-4.566,-4.5654,-4.5594,-4.5594,-4.5498,-4.521,-4.4893,-4.4586,-4.4316,-4.4566,-4.3835,-4.1885,-4.1788,-4.1393,-4.0516,-4.0364,-4.0295,-4.0295,-4.0101,-3.9993,-3.9932,-3.9932,-3.9872,-1.8356,-2.0846,-2.4063,0.0,0.0,0.0,-3.8518,-3.8089,-3.8372,-4.2028,0.0,0.0,0.0,0.0,0.0,0.0,0.0,0.0,0.0,0.0,0.0,0.0,0.0,0.0,0.0,0.0,0.0,0.0,0.0,0.0,0.0,0.0,0.0,0.0,-4.63,-4.63,-4.63,-4.63,-4.63,-4.63,-4.629,-4.6303,-4.6303,-4.6303,-4.625,-4.6203,-4.6203,-4.6193,-4.6199,-4.6199,-4.6209,-4.6203,-4.6206,-4.6209,-4.6203,-4.6206,-4.6199,-4.6199,-4.6199,-4.6192,-4.6206,-4.6206,-4.6207,-4.6206,-4.6289,-4.6854,-4.7321,-4.6523,-4.749,-4.8603,-4.7801,-4.8835,-5.0085,-5.0085,-4.8816,-4.7606,-4.7586,-4.6905,-4.63,-4.63,-4.63,-4.63,-4.63,-4.63,-4.6247,-4.6112,-4.6098,-4.602,-4.5822,-4.5807,-4.5749,-4.562,-4.5594,-4.5248,-4.4402,-4.5094,-4.5229,-4.4374,-4.5133,-4.4451,-4.1923,-4.1808,-4.1393,-4.0516,-4.0496,-4.0496,-4.0496,-4.0496,-4.0408,-4.0205,-4.0205,-4.0062,-2.0307,-2.4384,0.0,0.0,0.0,0.0,0.0,-3.9099,0.0,0.0,0.0,0.0,0.0,0.0,0.0,0.0,0.0,0.0,0.0,0.0,0.0,0.0,0.0,0.0,0.0,0.0,0.0,0.0,0.0,0.0,0.0,0.0,0.0,0.0,-4.63,-4.63,-4.63,-4.63,-4.6296,-4.631,-4.6306,-4.6279,-4.6233,-4.6223,-4.6225,-4.6206,-4.6206,-4.6203,-4.6199,-4.6199,-4.6203,-4.6206,-4.6199,-4.6203,-4.6206,-4.6199,-4.6199,-4.6199,-4.6199,-4.6209,-4.6203,-4.6203,-4.6192,-4.6202,-4.621,-4.6423,-4.6619,-4.6362,-4.7093,-4.7899,-4.7664,-4.7977,-4.8347,-4.8347,-4.7957,-4.743,-4.6827,-4.6475,-4.63,-4.63,-4.63,-4.63,-4.63,-4.63,-4.6247,-4.6112,-4.6098,-4.6041,-4.5892,-4.5869,-4.5858,-4.5815,-4.5761,-4.5638,-4.5387,-4.5508,-4.5498,-4.5229,-4.546,-4.472,-4.2797,-4.272,-4.2027,-4.0535,-4.0496,-4.0496,-4.0496,-4.0496,-4.0473,-4.0397,-4.0397,-4.0372,-2.0818,0.0,0.0,0.0,0.0,0.0,0.0,0.0,0.0,0.0,0.0,0.0,0.0,0.0,0.0,0.0,0.0,0.0,0.0,0.0,0.0,0.0,0.0,0.0,0.0,0.0,0.0,0.0,0.0,0.0,0.0,0.0,0.0,0.0,-4.6296,-4.6138,-4.5789,-4.6095,-4.6091,-4.5753,-4.6097,-4.6245,-4.6198,-4.6209,-4.6196,-4.6199,-4.6199,-4.6199,-4.6199,-4.6199,-4.6199,-4.6199,-4.6199,-4.6199,-4.6199,-4.6199,-4.6199,-4.6199,-4.6199,-4.6199,-4.6199,-4.6199,-4.62,-4.6206,-4.6201,-4.6231,-4.6268,-4.6289,-4.6673,-4.7074,-4.7082,-4.7081,-4.7178,-4.7528,-4.7332,-4.6944,-4.6417,-4.63,-4.63,-4.63,-4.63,-4.63,-4.63,-4.63,-4.6273,-4.6184,-4.6138,-4.6064,-4.5992,-4.593,-4.5899,-4.5899,-4.5858,-4.5828,-4.5828,-4.5737,-4.5676,-4.5676,-4.5302,-4.4489,-4.3162,-4.3104,-4.2431,-4.1046,-4.0689,-4.0496,-4.0496,-4.0496,-4.0496,-4.0496,-4.0496,-4.0496,-2.0755,0.0,0.0,0.0,0.0,0.0,0.0,0.0,0.0,0.0,0.0,0.0,0.0,0.0,0.0,0.0,0.0,0.0,0.0,0.0,0.0,0.0,0.0,0.0,0.0,0.0,0.0,0.0,0.0,0.0,0.0,0.0,0.0,-4.6142,-4.6093,-4.5679,-4.4881,-4.5687,-4.5679,0.0,-4.5783,-4.6203,-4.6203,-4.6203,-4.6193,-4.6199,-4.6199,-4.6199,-4.6199,-4.6199,-4.6199,-4.6199,-4.6199,-4.6199,-4.6199,-4.6199,-4.6199,-4.6199,-4.6199,-4.6199,-4.6199,-4.6199,-4.6199,-4.6206,-4.6192,-4.6204,-4.6218,-4.6269,-4.6307,-4.6305,-4.629,-4.6302,-4.6495,-4.7295,-4.6885,-4.63,-4.63,-4.63,-4.63,-4.63,-4.63,-4.63,-4.63,-4.63,-4.63,-4.63,-4.6206,-4.6128,-4.6128,-4.6005,-4.593,-4.593,-4.5925,-4.5915,-4.5915,-4.5847,-4.5808,-4.5808,-4.4878,-4.3992,-4.3264,-4.3074,-4.2566,-4.17,-4.0893,-4.0496,-4.0496,-4.0496,-4.0496,-4.0496,-4.0496,-4.0496,0.0,-2.8141,0.0,0.0,0.0,0.0,0.0,0.0,0.0,0.0,0.0,0.0,0.0,0.0,0.0,0.0,0.0,0.0,0.0,0.0,0.0,0.0,0.0,0.0,0.0,0.0,0.0,0.0,0.0,0.0,0.0,0.0,0.0,-4.5204,-4.4597,-4.4165,-4.3973,-4.4787,-4.5092,0.0,-4.5777,-4.6196,-4.6203,-4.6203,-4.6203,-4.6199,-4.6199,-4.6199,-4.6199,-4.6199,-4.6199,-4.6199,-4.6199,-4.6199,-4.6199,-4.6199,-4.6199,-4.6199,-4.6199,-4.6199,-4.6199,-4.6199,-4.6199,-4.6199,-4.6193,-4.6201,-4.6191,-4.6223,-4.6266,-4.6306,-4.6305,-4.6295,-4.6358,-4.6534,-4.6436,-4.63,-4.63,-4.63,-4.63,-4.63,-4.63,-4.63,-4.63,-4.63,-4.63,-4.63,-4.6273,-4.6267,-4.6267,-4.6238,-4.6214,-4.6214,-4.6112,-4.6057,-4.6057,-4.5949,-4.5886,-4.5886,-4.5037,-4.4434,-4.4218,-4.283,-4.1662,-4.0804,-4.0593,-4.0496,-4.0496,-4.0496,-4.0496,-4.0496,-4.0496,-4.0496,0.0,0.0,0.0,0.0,0.0,0.0,0.0,0.0,0.0,0.0,0.0,0.0,0.0,0.0,0.0,0.0,0.0,0.0,0.0,0.0,0.0,0.0,0.0,0.0,0.0,0.0,0.0,0.0,0.0,0.0,0.0,-4.419,-4.4109,-4.4882,-4.4487,-4.4075,-4.3665,-4.4905,-4.5306,-4.4907,-4.5784,-4.6206,-4.6199,-4.6199,-4.5965,-4.5595,-4.6024,-4.6199,-4.6199,-4.6199,-4.6199,-4.6199,-4.6199,-4.6199,-4.6199,-4.6199,-4.6199,-4.6199,-4.6199,-4.6199,-4.6199,-4.6199,-4.6199,-4.6199,-4.6199,-4.6196,-4.6203,-4.6201,-4.6228,-4.6245,-4.6249,-4.6287,-4.6297,-4.6297,-4.6309,-4.63,-4.63,-4.63,-4.63,-4.63,-4.63,-4.63,-4.63,-4.63,-4.63,-4.63,-4.63,-4.63,-4.63,-4.63,-4.63,-4.63,-4.624,-4.6206,-4.6206,-4.6064,-4.5996,-4.5996,-4.5153,-4.463,-4.4593,-4.3286,-4.2116,-4.115,-4.0708,-4.0496,-4.0496,-4.0496,-4.0496,-4.0496,-4.0496,-4.0496,0.0,0.0,0.0,0.0,0.0,0.0,0.0,0.0,0.0,0.0,0.0,0.0,0.0,0.0,0.0,0.0,0.0,0.0,0.0,0.0,0.0,0.0,0.0,0.0,0.0,0.0,0.0,0.0,0.0,0.0,-4.3987,-4.2985,-4.2966,-4.4211,-4.4239,-4.3902,-4.3181,-4.4744,-4.5163,-4.4465,-4.5319,-4.567,-4.5533,-4.567,-4.5514,-4.5166,-4.5887,-4.6199,-4.6199,-4.6199,-4.6199,-4.6199,-4.6199,-4.6199,-4.6199,-4.6199,-4.6199,-4.6199,-4.6199,-4.6199,-4.6199,-4.6199,-4.6199,-4.6199,-4.6199,-4.6199,-4.6206,-4.6209,-4.6201,-4.6193,-4.6196,-4.6249,-4.6307,-4.6307,-4.6297,-4.63,-4.63,-4.63,-4.63,-4.63,-4.63,-4.63,-4.63,-4.63,-4.63,-4.63,-4.63,-4.63,-4.63,-4.63,-4.63,-4.63,-4.63,-4.63,-4.63,-4.6206,-4.6138,-4.6138,-4.5126,-4.4573,-4.4715,-4.3743,-4.2773,-4.187,-4.1138,-4.0694,-4.0559,-4.0559,-4.0545,-4.0534,-4.0545,-4.053,0.0,0.0,0.0,0.0,0.0,0.0,0.0,0.0,0.0,0.0,0.0,0.0,0.0,0.0,0.0,0.0,0.0,0.0,0.0,0.0,0.0,0.0,0.0,0.0,0.0,0.0,0.0,0.0,0.0,0.0,-4.0521,-4.1702,-4.2164,-4.1623,-4.1601,-4.1542,-4.1425,-4.2357,-4.2763,-4.2666,-4.3523,-4.3543,-4.2841,-4.3601,-4.4715,-4.6024,-4.616,-4.6199,-4.6199,-4.6199,-4.6199,-4.6199,-4.6199,-4.6199,-4.6199,-4.6199,-4.6199,-4.6199,-4.6199,-4.6199,-4.6199,-4.6199,-4.6199,-4.6199,-4.6199,-4.6199,-4.6199,-4.6206,-4.6201,-4.6208,-4.6193,-4.6245,-4.6307,-4.6307,-4.6297,-4.63,-4.63,-4.63,-4.63,-4.63,-4.63,-4.63,-4.63,-4.63,-4.63,-4.63,-4.63,-4.63,-4.63,-4.63,-4.63,-4.63,-4.63,-4.63,-4.63,-4.6277,-4.6273,-4.6273,-4.4747,-4.4119,-4.475,-4.3286,-4.2327,-4.2062,-4.1946,-4.1514,-4.0766,-4.0766,-4.0738,-4.0675,-4.0724,-4.068,-1.9856,0.0,0.0,0.0,0.0,0.0,0.0,0.0,0.0,0.0,0.0,0.0,0.0,0.0,0.0,0.0,0.0,0.0,0.0,0.0,0.0,0.0,0.0,0.0,0.0,0.0,0.0,0.0,0.0,-4.0427,-4.0515,-4.0335,-4.0493,-4.1091,-4.062,-4.037,-4.037,-4.1205,-4.1848,-4.2296,-4.2237,-4.2491,-4.3017,-4.2919,-4.3562,-4.4773,-4.526,-4.5751,-4.6199,-4.6199,-4.6199,-4.6199,-4.6199,-4.6199,-4.6199,-4.6199,-4.6199,-4.6199,-4.6199,-4.6199,-4.6199,-4.6199,-4.6199,-4.6199,-4.6199,-4.6199,-4.6199,-4.6199,-4.6196,-4.6192,-4.6192,-4.6214,-4.624,-4.624,-4.6269,-4.63,-4.63,-4.6291,-4.63,-4.63,-4.63,-4.63,-4.63,-4.63,-4.63,-4.63,-4.63,-4.63,-4.63,-4.63,-4.63,-4.63,-4.63,-4.63,-4.63,-4.63,-4.63,-4.63,-4.5578,-4.5299,-4.5631,-4.4926,-4.4058,-4.3019,-4.2412,-4.1674,-4.081,-4.081,-4.0786,-4.0759,-4.0786,-4.0742,0.0,0.0,0.0,0.0,0.0,0.0,0.0,0.0,0.0,0.0,0.0,0.0,0.0,0.0,0.0,0.0,0.0,0.0,0.0,0.0,0.0,0.0,0.0,0.0,0.0,0.0,0.0,0.0,0.0,-3.9331,-3.9754,-3.8965,-3.8987,-4.0078,-3.9688,-3.9474,-3.9474,-4.0117,-4.0854,-4.1653,-4.1068,-4.1536,-4.2939,-4.2296,-4.2452,-4.3328,-4.4423,-4.5264,-4.5887,-4.6102,-4.6199,-4.6199,-4.6199,-4.6199,-4.6199,-4.6199,-4.6199,-4.6199,-4.6199,-4.6199,-4.6199,-4.6199,-4.6199,-4.6199,-4.6199,-4.6199,-4.6199,-4.6199,-4.6199,-4.6199,-4.6199,-4.6195,-4.6206,-4.6206,-4.6241,-4.6289,-4.6305,-4.6294,-4.63,-4.63,-4.63,-4.63,-4.63,-4.63,-4.63,-4.63,-4.63,-4.63,-4.63,-4.63,-4.63,-4.63,-4.6303,-4.6303,-4.6303,-4.6306,-4.6306,-4.6306,-4.6092,-4.6072,-4.6287,-4.6092,-4.5252,-4.3729,-4.2902,-4.1968,-4.0879,-4.0879,-4.0867,-4.0846,-4.0871,-4.0855,0.0,0.0,0.0,0.0,0.0,0.0,0.0,0.0,0.0,0.0,0.0,0.0,0.0,0.0,0.0,0.0,0.0,0.0,0.0,0.0,0.0,0.0,0.0,0.0,0.0,0.0,0.0,0.0,0.0,-3.6993,-3.6209,-3.7642,-3.8168,-3.7428,-3.8168,-3.8578,-3.8578,-3.8617,-3.9065,-3.9922,-3.9883,-4.0351,-4.1224,-4.1185,-4.1594,-4.2452,-4.415,-4.4933,-4.503,-4.5868,-4.6199,-4.6199,-4.6199,-4.6199,-4.6199,-4.6199,-4.6199,-4.6199,-4.6199,-4.6199,-4.6199,-4.6199,-4.6199,-4.6199,-4.6199,-4.6199,-4.6199,-4.6199,-4.6199,-4.6199,-4.6199,-4.6195,-4.6206,-4.6206,-4.6191,-4.6229,-4.6293,-4.6302,-4.63,-4.63,-4.63,-4.63,-4.63,-4.63,-4.63,-4.63,-4.63,-4.63,-4.63,-4.63,-4.63,-4.63,-4.6308,-4.6293,-4.6293,-4.6297,-4.6301,-4.6301,-4.5519,-4.5441,-4.6261,-4.5519,-4.4641,-4.3722,-4.3642,-4.2777,-4.1083,-4.1083,-4.1042,-4.0987,-4.1044,-4.0975,0.0,0.0,0.0,0.0,0.0,0.0,0.0,0.0,0.0,0.0,0.0,0.0,0.0,0.0,0.0,0.0,0.0,0.0,0.0,0.0,0.0,0.0,0.0,0.0,0.0,0.0,0.0,0.0,0.0,0.0,-3.6714,-3.6794,-3.6941,-3.7194,-3.696,-3.6824,-3.6824,-3.6824,-3.7272,-3.8149,-3.8694,-3.9415,-4.0273,-4.0273,-4.0737,-4.1555,-4.2182,-4.3078,-4.413,-4.5007,-4.5361,-4.542,-4.5985,-4.6199,-4.6199,-4.6199,-4.6199,-4.6199,-4.6199,-4.6199,-4.6199,-4.6199,-4.6199,-4.6199,-4.6199,-4.6199,-4.6199,-4.6199,-4.6199,-4.6199,-4.6199,-4.6193,-4.6195,-4.6201,-4.6197,-4.6213,-4.623,-4.6267,-4.6301,-4.6301,-4.6291,-4.63,-4.63,-4.63,-4.63,-4.63,-4.6305,-4.6308,-4.6308,-4.6293,-4.6295,-4.6295,-4.5809,-4.5693,-4.624,-4.5793,-4.5696,-4.6262,-4.6009,-4.5969,-4.6282,-4.5462,-4.4583,-4.3723,-4.3703,-4.2841,-4.1095,-4.1095,-4.1087,-4.1068,-4.1083,-4.1055,0.0,0.0,0.0,0.0,0.0,0.0,0.0,0.0,0.0,0.0,0.0,0.0,0.0,0.0,0.0,0.0,0.0,0.0,0.0,0.0,0.0,0.0,0.0,0.0,0.0,0.0,0.0,0.0,0.0,0.0,-3.6744,-3.6218,-3.6162,-3.6746,-3.6201,-3.5908,-3.5908,-3.5908,-3.6337,-3.7214,-3.7798,-3.8519,-3.9357,-3.9357,-3.9844,-4.0659,-4.0659,-4.1614,-4.3231,-4.4091,-4.4462,-4.452,-4.5105,-4.5514,-4.5771,-4.5771,-4.5946,-4.6199,-4.6199,-4.6199,-4.6199,-4.6199,-4.6199,-4.6199,-4.6199,-4.6199,-4.6199,-4.6199,-4.6199,-4.6199,-4.6199,-4.6199,-4.6206,-4.6201,-4.6206,-4.6192,-4.6169,-4.6221,-4.6269,-4.6307,-4.6301,-4.6291,-4.6306,-4.6305,-4.6306,-4.6308,-4.6294,-4.6296,-4.6296,-4.63,-4.6301,-4.6301,-4.5776,-4.5679,-4.6245,-4.5777,-4.568,-4.6266,-4.6305,-4.6305,-4.6305,-4.5739,-4.5036,-4.4157,-4.4137,-4.3413,-4.1964,-4.198,-4.1974,-4.1968,-4.1968,-4.1812,0.0,0.0,0.0,0.0,0.0,0.0,0.0,0.0,0.0,0.0,0.0,0.0,0.0,0.0,0.0,0.0,0.0,0.0,0.0,0.0,0.0,0.0,0.0,0.0,0.0,0.0,0.0,0.0,0.0,-3.5965,-3.5905,-3.5892,-3.5908,-3.5908,-3.5908,-3.5908,-3.5908,-3.5908,-3.6317,-3.7155,-3.7194,-3.7642,-3.8461,-3.85,-3.8967,-3.9766,-3.9786,-4.0718,-4.2257,-4.3172,-4.3562,-4.3562,-4.3582,-4.413,-4.4855,-4.4894,-4.5439,-4.618,-4.6199,-4.6199,-4.6199,-4.6199,-4.6199,-4.6199,-4.6199,-4.6199,-4.6199,-4.6199,-4.6199,-4.6199,-4.6199,-4.6199,-4.6199,-4.6196,-4.6196,-4.6185,-4.6102,-4.615,-4.6206,-4.6289,-4.6288,-4.6286,-4.6297,-4.6295,-4.6296,-4.6301,-4.6302,-4.6301,-4.6301,-4.6283,-4.6263,-4.6263,-4.6227,-4.6209,-4.6268,-4.625,-4.625,-4.6308,-4.6308,-4.6308,-4.6308,-4.6289,-4.5859,-4.5019,-4.5,-4.4589,-4.3748,-4.3702,-4.3693,-4.3705,-4.3666,-4.3217,-1.5747,0.0,0.0,0.0,0.0,0.0,0.0,0.0,0.0,0.0,0.0,0.0,0.0,0.0,0.0,0.0,0.0,0.0,0.0,0.0,0.0,0.0,0.0,0.0,0.0,0.0,0.0,0.0,-3.5996,-3.599,-3.5966,-3.5925,-3.5908,-3.5908,-3.5908,-3.5908,-3.5908,-3.5908,-3.6025,-3.6279,-3.6902,-3.7331,-3.7584,-3.8207,-3.8636,-3.8889,-3.9532,-3.9708,-3.9708,-4.1809,-4.2666,-4.2724,-4.3348,-4.3757,-4.4033,-4.4676,-4.505,-4.5342,-4.5985,-4.6199,-4.6199,-4.6199,-4.6199,-4.6199,-4.6199,-4.6199,-4.6199,-4.6199,-4.6199,-4.6199,-4.6199,-4.6199,-4.6192,-4.6142,-4.6134,-4.6102,-4.6032,-4.6046,-4.6061,-4.6075,-4.6128,-4.6165,-4.617,-4.6205,-4.623,-4.6229,-4.6269,-4.6306,-4.6306,-4.5741,-4.5351,-4.5351,-4.4238,-4.3984,-4.5254,-4.4785,-4.4961,-4.6211,-4.6308,-4.6308,-4.6308,-4.5683,-4.5254,-4.5,-4.5,-4.4882,-4.4647,-4.4001,-4.3705,-4.3682,-4.3056,-4.2978,0.0,0.0,0.0,0.0,0.0,0.0,0.0,-2.0069,0.0,0.0,0.0,0.0,0.0,0.0,0.0,0.0,0.0,0.0,0.0,0.0,0.0,0.0,0.0,0.0,0.0,0.0,0.0,-3.6004,-3.5996,-3.5987,-3.595,-3.5916,-3.5908,-3.5908,-3.5908,-3.5908,-3.5908,-3.5908,-3.5908,-3.5908,-3.6415,-3.6668,-3.6668,-3.7175,-3.7603,-3.7993,-3.85,-3.8831,-3.9162,-4.064,-4.1263,-4.1341,-4.2218,-4.2763,-4.3153,-4.4033,-4.4598,-4.503,-4.5907,-4.6199,-4.6141,-4.579,-4.5907,-4.6141,-4.5771,-4.5907,-4.6199,-4.6199,-4.6185,-4.6154,-4.6154,-4.6142,-4.6102,-4.6071,-4.6066,-4.6032,-4.5975,-4.5964,-4.5977,-4.5994,-4.602,-4.6066,-4.6098,-4.6126,-4.6161,-4.6158,-4.6189,-4.6217,-4.6217,-4.5764,-4.5468,-4.5468,-4.4551,-4.4354,-4.5371,-4.5029,-4.517,-4.6187,-4.6288,-4.6308,-4.6308,-4.5801,-4.5527,-4.5503,-4.5503,-4.5481,-4.5456,-4.5019,-4.4782,-4.476,-4.3881,-4.3763,0.0,0.0,0.0,0.0,0.0,0.0,-1.7165,-1.8062,0.0,0.0,0.0,0.0,0.0,0.0,0.0,0.0,0.0,0.0,0.0,0.0,0.0,0.0,0.0,0.0,0.0,-3.58,-3.5867,-3.5858,-3.5936,-3.5956,-3.5894,-3.5908,-3.5908,-3.5908,-3.5908,-3.5908,-3.5908,-3.5908,-3.5908,-3.5908,-3.5908,-3.5908,-3.5908,-3.6081,-3.6546,-3.7208,-3.7497,-3.8374,-3.9663,-3.9854,-3.9932,-4.0019,-4.0796,-4.1536,-4.2276,-4.3133,-4.3955,-4.4738,-4.5611,-4.5903,-4.5787,-4.5011,-4.5283,-4.5767,-4.4984,-4.5296,-4.5919,-4.601,-4.5982,-4.5972,-4.6069,-4.6037,-4.5997,-4.5991,-4.5991,-4.5975,-4.5892,-4.5899,-4.5902,-4.5968,-4.5985,-4.5998,-4.6056,-4.6086,-4.6086,-4.6091,-4.6095,-4.6098,-4.6098,-4.602,-4.5962,-4.5962,-4.5864,-4.5845,-4.5942,-4.6016,-4.6099,-4.6177,-4.6242,-4.6288,-4.6288,-4.6288,-4.6243,-4.6197,-4.6197,-4.6155,-4.6102,-4.6223,-4.6307,-4.6266,-4.5387,-4.5035,0.0,0.0,0.0,0.0,0.0,0.0,-2.1284,-2.0999,0.0,0.0,0.0,0.0,0.0,0.0,0.0,0.0,0.0,0.0,0.0,0.0,0.0,0.0,0.0,0.0,0.0,-3.4542,-3.4958,-3.496,-3.5558,-3.5916,-3.5892,-3.5908,-3.5908,-3.5908,-3.5908,-3.5908,-3.5908,-3.5908,-3.5908,-3.5908,-3.5908,-3.5908,-3.5947,-3.73,-3.7617,-3.7228,-3.9295,-3.961,-3.8785,-4.0131,-4.0743,-4.0854,-4.1029,-4.1205,-4.1438,-4.2257,-4.2666,-4.2919,-4.3796,-4.4108,-4.4088,-4.3913,-4.3971,-4.4065,-4.3841,-4.3888,-4.4156,-4.4817,-4.4973,-4.5138,-4.5842,-4.6007,-4.5991,-4.5922,-4.5929,-4.5892,-4.5822,-4.5827,-4.5815,-4.5835,-4.5841,-4.5841,-4.5854,-4.5942,-4.6018,-4.6013,-4.6076,-4.6098,-4.6098,-4.5494,-4.5043,-4.5043,-4.4435,-4.4299,-4.4984,-4.5076,-4.5378,-4.6083,-4.6134,-4.6139,-4.6139,-4.6139,-4.6134,-4.6122,-4.6122,-4.6115,-4.6102,-4.6239,-4.6268,-4.6198,-4.5337,-4.5327,0.0,0.0,0.0,-2.1777,0.0,0.0,0.0,-1.9407,0.0,0.0,0.0,0.0,0.0,0.0,0.0,0.0,0.0,0.0,0.0,0.0,0.0,0.0,0.0,0.0,0.0,-3.4433,-3.4862,-3.5268,-3.5671,-3.589,-3.5892,-3.5908,-3.5908,-3.5908,-3.5908,-3.5903,-3.5908,-3.5908,-3.5879,-3.5859,-3.5859,-3.5859,-3.5875,-3.6713,-3.6857,-3.6546,-3.8255,-3.8764,-3.8451,-3.9732,-4.0546,-4.0996,-4.0996,-4.1027,-4.1158,-4.1957,-4.2241,-4.2377,-4.3253,-4.3545,-4.3486,-4.3039,-4.3194,-4.3463,-4.2994,-4.3164,-4.3587,-4.3986,-4.4078,-4.4148,-4.46,-4.5004,-4.5298,-4.526,-4.5564,-4.5848,-4.5814,-4.5807,-4.5807,-4.5807,-4.5807,-4.5807,-4.5807,-4.5867,-4.5892,-4.5892,-4.5925,-4.5944,-4.5944,-4.5569,-4.5292,-4.5292,-4.4898,-4.4821,-4.5253,-4.5361,-4.5587,-4.602,-4.608,-4.6098,-4.6098,-4.6098,-4.608,-4.6059,-4.6059,-4.6012,-4.5944,-4.6117,-4.6173,-4.6147,-4.5699,-4.5753,0.0,0.0,0.0,0.0,0.0,-2.1464,0.0,0.0,0.0,0.0,0.0,0.0,0.0,0.0,0.0,0.0,0.0,0.0,0.0,0.0,0.0,0.0,0.0,0.0,0.0,-3.3964,-3.4774,-3.5584,-3.5817,-3.5897,-3.5908,-3.5908,-3.5906,-3.59,-3.59,-3.5885,-3.5872,-3.5891,-3.5853,-3.5795,-3.5795,-3.5795,-3.5814,-3.5961,-3.6112,-3.6326,-3.719,-3.803,-3.8835,-3.9539,-4.0248,-4.0907,-4.0907,-4.093,-4.1057,-4.1703,-4.1961,-4.2058,-4.2758,-4.2991,-4.2874,-4.2175,-4.2422,-4.284,-4.2141,-4.2427,-4.2999,-4.3174,-4.3181,-4.3174,-4.3329,-4.3983,-4.4555,-4.4381,-4.5084,-4.5768,-4.5587,-4.5691,-4.5807,-4.5807,-4.5807,-4.5807,-4.5807,-4.5807,-4.5807,-4.5807,-4.5807,-4.5807,-4.5807,-4.5807,-4.5807,-4.5807,-4.5807,-4.5807,-4.5807,-4.5911,-4.5969,-4.5969,-4.6012,-4.6033,-4.6033,-4.6033,-4.6017,-4.5969,-4.5969,-4.5917,-4.5807,-4.5954,-4.606,-4.6076,-4.6076,-4.6087,0.0,0.0,0.0,0.0,-2.43,0.0,0.0,0.0,0.0,0.0,0.0,0.0,0.0,0.0,0.0,0.0,0.0,0.0,0.0,0.0,0.0,0.0,0.0,0.0,0.0,0.0,-3.3889,-3.4694,-3.5455,-3.5906,-3.5892,-3.5908,-3.5897,-3.5908,-3.5908,-3.5868,-3.5803,-3.5803,-3.5799,-3.5795,-3.5795,-3.5795,-3.5814,-3.6546,-3.7284,-3.8059,-3.8864,-3.9727,-4.0521,-4.0626,-4.0762,-4.0907,-4.0907,-4.0893,-4.0917,-4.1005,-4.1043,-4.1063,-4.116,-4.1199,-4.1179,-4.1082,-4.1072,-4.1089,-4.0992,-4.1036,-4.1266,-4.1976,-4.2163,-4.2331,-4.3105,-4.3943,-4.44,-4.3634,-4.4639,-4.5587,-4.4891,-4.5297,-4.5807,-4.5807,-4.5807,-4.5807,-4.5807,-4.5807,-4.5807,-4.5807,-4.5807,-4.5807,-4.5807,-4.5807,-4.5807,-4.5807,-4.5807,-4.5807,-4.5807,-4.5801,-4.5808,-4.5808,-4.5828,-4.5835,-4.5835,-4.5835,-4.5828,-4.5808,-4.5808,-4.5821,-4.5807,-4.5822,-4.5898,-4.6017,-4.6017,-4.6046,0.0,0.0,0.0,0.0,0.0,0.0,0.0,0.0,-2.0917,0.0,0.0,0.0,0.0,0.0,0.0,0.0,0.0,0.0,0.0,0.0,0.0,0.0,0.0,0.0,0.0,0.0,0.0,0.0,0.0,-3.2916,-3.2881,-3.4798,-3.5885,-3.5846,-3.5846,-3.5803,-3.5736,-3.5736,-3.5742,-3.5733,-3.5733,-3.5733,-3.5752,-3.61,-3.6709,-3.7536,-3.8384,-3.8951,-3.9336,-3.9841,-4.0053,-4.0079,-4.0079,-4.0391,-4.0839,-4.0846,-4.0834,-4.0834,-4.0834,-4.0834,-4.0834,-4.0834,-4.0818,-4.0794,-4.0794,-4.0796,-4.0874,-4.1222,-4.1293,-4.139,-4.1757,-4.2473,-4.3131,-4.3266,-4.4214,-4.5142,-4.5278,-4.5548,-4.5807,-4.5807,-4.5807,-4.5807,-4.5807,-4.5807,-4.5807,-4.5807,-4.5807,-4.5807,-4.5807,-4.5807,-4.5807,-4.5807,-4.5807,-4.5807,-4.5807,-4.5807,-4.5807,-4.5807,-4.5807,-4.5807,-4.5807,-4.5807,-4.5807,-4.5807,-4.5807,-4.5807,-4.5807,-4.5807,-4.5834,-4.5873,-4.5873,-4.5904,-2.8001,0.0,0.0,0.0,0.0,0.0,0.0,0.0,0.0,0.0,0.0,0.0,0.0,0.0,0.0,0.0,0.0,0.0,0.0,0.0,0.0,0.0,0.0,0.0,0.0,0.0,0.0,-2.7507,-2.8544,-2.9429,-3.0299,-3.2739,-3.4636,-3.5739,-3.5778,-3.5756,-3.5708,-3.5703,-3.5707,-3.5704,-3.5704,-3.5704,-3.5704,-3.5704,-3.6149,-3.6942,-3.7574,-3.8121,-3.8605,-3.9249,-3.9636,-3.9868,-3.9868,-4.0246,-4.0798,-4.0796,-4.0797,-4.0797,-4.0797,-4.0797,-4.0797,-4.0797,-4.0797,-4.0797,-4.0797,-4.0797,-4.0797,-4.0797,-4.0797,-4.0797,-4.0797,-4.139,-4.2164,-4.2783,-4.3788,-4.4755,-4.5336,-4.5652,-4.5807,-4.5807,-4.5807,-4.5807,-4.5807,-4.5807,-4.5807,-4.5807,-4.5807,-4.5729,-4.549,-4.5624,-4.5675,-4.549,-4.5643,-4.5752,-4.58,-4.5807,-4.5807,-4.5807,-4.5807,-4.5807,-4.5807,-4.5807,-4.5807,-4.5807,-4.5807,-4.5807,-4.5807,-4.5807,-4.5807,-4.5807,-4.5807,-4.5807,0.0,0.0,0.0,-2.9885,0.0,0.0,0.0,0.0,-2.125,0.0,0.0,0.0,0.0,0.0,0.0,-1.8026,0.0,0.0,0.0,0.0,0.0,0.0,0.0,0.0,0.0,0.0,0.0,-2.3278,-2.4081,-2.6022,-2.9265,-2.9549,-3.1475,-3.5577,-3.5708,-3.5703,-3.5709,-3.5709,-3.5709,-3.5704,-3.5704,-3.5704,-3.5704,-3.5704,-3.6149,-3.6903,-3.6942,-3.7889,-3.9462,-3.9481,-4.0004,-4.0758,-4.0758,-4.0777,-4.0797,-4.0797,-4.0797,-4.0797,-4.0797,-4.0797,-4.0797,-4.0797,-4.0797,-4.0797,-4.0797,-4.0797,-4.0797,-4.0797,-4.0797,-4.0797,-4.0797,-4.139,-4.2009,-4.2048,-4.3343,-4.4613,-4.4632,-4.5258,-4.5807,-4.5807,-4.5807,-4.5807,-4.5807,-4.5807,-4.5807,-4.5807,-4.5807,-4.551,-4.4736,-4.5214,-4.5364,-4.4703,-4.5214,-4.5661,-4.5793,-4.5807,-4.5807,-4.5807,-4.5807,-4.5807,-4.5807,-4.5807,-4.5807,-4.5807,-4.5807,-4.5807,-4.5807,-4.5807,-4.5807,-4.5807,-4.5807,-4.5807,0.0,0.0,-3.1272,-3.1266,0.0,0.0,0.0,0.0,0.0,0.0,0.0,0.0,0.0,0.0,-2.0115,-1.9523,-1.9673,0.0,0.0,0.0,0.0,0.0,0.0,0.0,0.0,0.0,0.0,-1.945,-1.9446,-2.1026,0.0,-2.787,-3.1072,-3.471,-3.5407,-3.5706,-3.5704,-3.5704,-3.5704,-3.5704,-3.5704,-3.5704,-3.5704,-3.5704,-3.6149,-3.6903,-3.6903,-3.756,-3.8644,-3.8644,-3.9146,-3.9946,-3.9946,-4.0294,-4.0797,-4.0797,-4.0713,-4.06,-4.0508,-4.0477,-4.0477,-4.0477,-4.0477,-4.0477,-4.0477,-4.0477,-4.0477,-4.0477,-4.0477,-4.0477,-4.0477,-4.0669,-4.117,-4.2324,-4.2613,-4.3082,-4.4759,-4.4883,-4.468,-4.468,-4.5133,-4.5171,-4.4072,-4.4314,-4.493,-4.5689,-4.4852,-4.4232,-4.4449,-4.4619,-4.4617,-4.4306,-4.4993,-4.5253,-4.471,-4.4179,-4.388,-4.388,-4.388,-4.388,-4.388,-4.388,-4.419,-4.4866,-4.4866,-4.5174,-4.5807,-4.5807,-4.5807,-4.5807,-4.5807,-4.5807,-3.3613,-3.3465,0.0,-3.3073,-3.0718,0.0,-2.733,0.0,0.0,0.0,0.0,0.0,0.0,0.0,0.0,-1.9838,-1.9584,-1.8888,0.0,-1.6561,0.0,0.0,0.0,0.0,0.0,0.0,-1.2437,-1.4609,-1.4841,-1.698,0.0,0.0,-2.9044,-3.4239,-3.4935,-3.54,-3.5704,-3.5704,-3.5704,-3.5704,-3.5704,-3.5704,-3.5704,-3.5704,-3.5974,-3.6477,-3.6477,-3.7135,-3.8193,-3.8193,-3.8702,-3.952,-3.9849,-4.012,-4.0371,-4.07,-4.0668,-4.0496,-4.0399,-4.0342,-4.0309,-4.0309,-4.0309,-4.0309,-4.0309,-4.0309,-4.0309,-4.0309,-4.0309,-4.0309,-4.0309,-4.0309,-4.0596,-4.1737,-4.1583,-4.1698,-4.3636,-4.3847,-4.377,-4.4029,-4.4547,-4.4585,-4.3501,-4.3252,-4.3564,-4.4604,-4.3848,-4.322,-4.3379,-4.3555,-4.3521,-4.3187,-4.3827,-4.4103,-4.357,-4.3063,-4.2757,-4.2757,-4.2757,-4.2757,-4.2757,-4.2757,-4.3331,-4.4546,-4.4305,-4.4753,-4.5939,-4.5631,-4.5539,-4.5615,-4.5615,-4.57]},{"header":{"parameterUnit":"m.s-1","parameterCategory":1,"la1":30.6,"la2":29.2853,"lo1":-89.7004,"lo2":-87.6739,"dy":0.0162,"dx":0.0183,"nx":112,"ny":82,"refTime":"2023-06-28T06:00:00:Z","depth":0,"parameterNumber":3,"parameterNumberName":"V-component_of_WINDS"},"data":[0.0,0.0,0.0,0.0,0.0,0.0,0.0,0.0,0.0,0.0,0.0,0.0,0.0,0.0,0.0,0.0,0.0,0.0,0.0,0.0,0.0,0.0,0.0,0.0,0.0,0.0,0.0,0.0,0.0,0.0,0.0,0.0,0.0,0.0,0.0,0.0,0.0,0.0,0.0,0.0,0.0,0.0,0.0,0.0,0.0,0.0,0.0,0.0,0.0,0.0,0.0,0.0,0.0,0.0,0.0,0.0,0.0,0.0,0.0,0.0,0.0,0.0,0.0,0.0,0.0,0.0,0.0,0.0,0.0,0.0,0.0,0.0,0.0,0.0,0.0,0.0,0.0,0.0,0.0,0.0,0.0,0.0,0.0,0.0,0.0,0.0,0.0,0.0,0.0,0.0,0.0,-1.0989,-1.2933,-1.3968,-1.3626,-1.3253,-1.2576,-1.1458,0.0,0.0,0.0,0.0,0.0,0.0,0.0,0.0,0.0,0.0,0.0,0.0,0.0,0.0,0.0,0.0,0.0,0.0,0.0,0.0,0.0,0.0,0.0,0.0,0.0,0.0,0.0,0.0,0.0,0.0,0.0,0.0,0.0,0.0,0.0,0.0,0.0,0.0,0.0,0.0,0.0,0.0,0.0,0.0,0.0,0.0,0.0,0.0,0.0,0.0,0.0,0.0,0.0,0.0,0.0,0.0,0.0,0.0,0.0,0.0,0.0,0.0,0.0,0.0,0.0,0.0,0.0,0.0,0.0,0.0,0.0,0.0,0.0,0.0,0.0,0.0,0.0,0.0,0.0,0.0,0.0,0.0,0.0,0.0,0.0,0.0,0.0,0.0,0.0,0.0,0.0,0.0,0.0,0.0,0.0,0.0,0.0,0.0,0.0,0.0,0.0,0.0,0.0,0.0,-0.9024,-1.181,-1.3293,-1.3968,-1.3626,-1.2906,-1.2151,-1.1428,0.0,0.0,0.0,0.0,0.0,0.0,0.0,0.0,0.0,0.0,0.0,0.0,0.0,0.0,0.0,0.0,0.0,0.0,0.0,0.0,0.0,0.0,0.0,0.0,0.0,0.0,0.0,0.0,0.0,0.0,0.0,0.0,0.0,0.0,0.0,0.0,0.0,0.0,0.0,0.0,0.0,0.0,0.0,0.0,0.0,0.0,0.0,0.0,0.0,0.0,0.0,0.0,0.0,0.0,0.0,0.0,0.0,0.0,0.0,0.0,0.0,0.0,0.0,0.0,0.0,0.0,0.0,0.0,0.0,0.0,0.0,0.0,0.0,0.0,0.0,0.0,0.0,0.0,0.0,0.0,0.0,0.0,0.0,0.0,0.0,0.0,0.0,0.0,0.0,0.0,0.0,0.0,0.0,0.0,0.0,0.0,0.0,0.0,0.0,0.0,0.0,0.0,0.0,-0.8718,-1.0414,-1.2565,-1.3427,-1.3753,-1.3613,-1.2488,-1.1599,-1.1122,-0.982,0.0,0.0,0.0,0.0,0.0,0.0,0.0,0.0,0.0,0.0,0.0,0.0,0.0,0.0,0.0,0.0,0.0,0.0,0.0,0.0,0.0,0.0,0.0,0.0,0.0,0.0,0.0,0.0,0.0,0.0,0.0,0.0,0.0,0.0,0.0,0.0,0.0,0.0,0.0,0.0,0.0,0.0,0.0,0.0,0.0,0.0,0.0,0.0,0.0,0.0,0.0,0.0,0.0,0.0,0.0,0.0,0.0,0.0,0.0,0.0,0.0,0.0,0.0,0.0,0.0,0.0,0.0,0.0,0.0,0.0,0.0,0.0,0.0,0.0,0.0,0.0,0.0,0.0,0.0,0.0,0.0,0.0,0.0,0.0,0.0,0.0,0.0,0.0,0.0,0.0,0.0,0.0,0.0,0.0,0.0,0.0,0.0,0.0,0.0,0.0,0.0,0.0,-0.9917,-1.1536,-1.2953,-1.3367,-1.3447,-1.33,-1.1868,-1.0884,-1.0623,-0.9004,0.0,0.0,0.0,0.0,0.0,0.0,0.0,0.0,0.0,0.0,0.0,0.0,0.0,0.0,0.0,0.0,0.0,0.0,0.0,0.0,0.0,0.0,0.0,0.0,0.0,0.0,0.0,0.0,0.0,0.0,0.0,0.0,0.0,0.0,0.0,0.0,0.0,0.0,0.0,0.0,0.0,0.0,0.0,0.0,0.0,0.0,0.0,0.0,0.0,0.0,0.0,0.0,0.0,0.0,0.0,0.0,0.0,0.0,0.0,0.0,0.0,0.0,0.0,0.0,0.0,0.0,0.0,0.0,0.0,0.0,0.0,0.0,0.0,0.0,0.0,0.0,0.0,0.0,0.0,0.0,0.0,0.0,0.0,0.0,0.0,0.0,0.0,0.0,0.0,0.0,0.0,0.0,0.0,0.0,0.0,0.0,0.0,0.0,0.0,0.0,0.0,0.0,-1.0074,-1.1484,-1.269,-1.306,-1.3013,-1.2445,-1.0802,-0.9874,-0.9967,-0.7985,0.0,0.0,0.0,0.0,0.0,0.0,0.0,0.0,0.0,0.0,0.0,0.0,0.0,0.0,0.0,0.0,0.0,0.0,0.0,0.0,0.0,0.0,0.0,0.0,0.0,0.0,0.0,0.0,0.0,0.0,0.0,0.0,0.0,0.0,0.0,0.0,0.0,0.0,0.0,0.0,0.0,0.0,0.0,0.0,0.0,0.0,0.0,0.0,0.0,0.0,0.0,0.0,0.0,0.0,0.0,0.0,0.0,0.0,0.0,0.0,0.0,0.0,0.0,0.0,0.0,0.0,0.0,0.0,0.0,0.0,0.0,0.0,0.0,0.0,0.0,0.0,0.0,0.0,0.0,0.0,0.0,0.0,0.0,0.0,0.0,0.0,0.0,0.0,0.0,0.0,0.0,0.0,0.0,0.0,0.0,0.0,0.0,0.0,0.0,0.0,0.0,0.0,-0.9766,-1.1035,0.0,-1.2685,-1.2478,-1.2064,-1.0755,-0.977,-0.9315,0.0,0.0,0.0,0.0,0.0,0.0,0.0,0.0,0.0,0.0,0.0,0.0,0.0,0.0,0.0,0.0,0.0,0.0,0.0,0.0,0.0,0.0,0.0,0.0,0.0,0.0,0.0,0.0,0.0,0.0,0.0,0.0,0.0,0.0,0.0,0.0,0.0,0.0,0.0,0.0,0.0,0.0,0.0,0.0,0.0,0.0,0.0,0.0,0.0,0.0,0.0,0.0,0.0,0.0,0.0,0.0,0.0,0.0,0.0,0.0,0.0,0.0,0.0,0.0,0.0,0.0,0.0,0.0,0.0,0.0,0.0,0.0,0.0,0.0,0.0,0.0,0.0,0.0,0.0,0.0,0.0,0.0,0.0,0.0,0.0,0.0,0.0,0.0,0.0,0.0,0.0,0.0,0.0,0.0,0.0,0.0,0.0,0.0,0.0,0.0,0.0,0.0,-0.849,-0.9679,-1.0889,0.0,-1.2268,-1.1971,-1.1531,-1.0294,-0.9342,-0.8813,0.0,0.0,0.0,0.0,0.0,0.0,0.0,0.0,0.0,0.0,0.0,0.0,0.0,0.0,0.0,0.0,0.0,0.0,0.0,0.0,0.0,0.0,0.0,0.0,0.0,0.0,0.0,0.0,0.0,0.0,0.0,0.0,0.0,0.0,0.0,0.0,0.0,0.0,0.0,0.0,0.0,0.0,0.0,0.0,0.0,0.0,0.0,0.0,0.0,0.0,0.0,0.0,0.0,0.0,0.0,0.0,0.0,0.0,0.0,0.0,0.0,0.0,0.0,0.0,0.0,0.0,0.0,0.0,0.0,0.0,0.0,0.0,0.0,0.0,0.0,0.0,0.0,0.0,0.0,0.0,0.0,0.0,0.0,0.0,0.0,0.0,0.0,0.0,0.0,0.0,0.0,0.0,0.0,0.0,0.0,0.0,0.0,0.0,0.0,0.0,0.0,0.0,-0.8322,-0.9907,-1.1102,-1.1362,-1.1683,-1.1538,-1.066,-0.9246,-0.8432,0.0,0.0,0.0,0.0,0.0,0.0,0.0,0.0,0.0,0.0,0.0,0.0,0.0,0.0,0.0,0.0,0.0,0.0,0.0,0.0,0.0,0.0,0.0,0.0,0.0,0.0,0.0,0.0,0.0,0.0,0.0,0.0,0.0,0.0,0.0,0.0,0.0,0.0,0.0,0.0,0.0,0.0,0.0,0.0,0.0,0.0,0.0,0.0,0.0,0.0,0.0,0.0,0.0,0.0,0.0,0.0,0.0,0.0,0.0,0.0,0.0,0.0,0.0,0.0,0.0,0.0,0.0,0.0,0.0,0.0,0.0,0.0,0.0,0.0,0.0,0.0,0.0,0.0,0.0,0.0,0.0,0.0,0.0,0.0,0.0,0.0,0.0,0.0,0.0,0.0,0.0,0.0,0.0,0.0,0.0,0.0,0.0,0.0,0.0,0.0,0.0,0.0,0.0,-0.8295,-0.9755,-1.0875,-1.1335,-1.1323,-1.0982,-1.0307,-0.9472,-0.8735,-0.8194,0.0,0.0,0.0,0.0,0.0,0.0,0.0,0.0,0.0,0.0,0.0,0.0,0.0,0.0,0.0,0.0,0.0,0.0,0.0,0.0,0.0,0.0,0.0,0.0,0.0,0.0,0.0,0.0,0.0,0.0,0.0,0.0,0.0,0.0,0.0,0.0,0.0,0.0,0.0,0.0,0.0,0.0,0.0,0.0,0.0,0.0,0.0,0.0,0.0,0.0,0.0,0.0,0.0,0.0,0.0,0.0,0.0,0.0,0.0,0.0,0.0,0.0,0.0,0.0,0.0,0.0,0.0,0.0,0.0,0.0,0.0,0.0,0.0,0.0,0.0,0.0,0.0,0.0,0.0,0.0,0.0,0.0,0.0,0.0,0.0,0.0,0.0,0.0,0.0,0.0,0.0,0.0,0.0,0.0,0.0,0.0,0.0,0.0,0.0,0.0,0.0,0.0,-0.8295,-0.9682,-1.0767,-1.1202,-1.0995,-1.0613,-0.9993,-0.9484,-0.8912,-0.8202,0.0,0.0,0.0,0.0,0.0,0.0,0.0,0.0,0.0,0.0,0.0,0.0,0.0,0.0,0.0,0.0,0.0,0.0,0.0,0.0,0.0,0.0,0.0,0.0,0.0,0.0,0.0,0.0,0.0,0.0,0.0,0.0,0.0,0.0,0.0,0.0,0.0,0.0,0.0,0.0,0.0,0.0,0.0,0.0,0.0,0.0,0.0,0.0,0.0,0.0,0.0,0.0,0.0,0.0,0.0,0.0,0.0,0.0,0.0,0.0,0.0,0.0,0.0,0.0,0.0,0.0,0.0,0.0,0.0,0.0,0.0,0.0,0.0,0.0,0.0,0.0,0.0,0.0,0.0,0.0,0.0,0.0,0.0,0.0,0.0,0.0,0.0,0.0,0.0,0.0,0.0,0.0,0.0,0.0,0.0,0.0,0.0,0.0,0.0,0.0,0.0,0.0,-0.8322,-0.9682,-1.0707,-1.0962,-1.074,-1.0325,-0.9762,-0.9357,-0.8956,-0.8424,0.0,0.0,0.0,0.0,0.0,0.0,0.0,0.0,0.0,0.0,0.0,0.0,0.0,0.0,0.0,0.0,0.0,0.0,0.0,0.0,0.0,0.0,0.0,0.0,0.0,0.0,0.0,0.0,0.0,0.0,0.0,0.0,0.0,0.0,0.0,0.0,0.0,0.0,0.0,0.0,0.0,0.0,0.0,0.0,0.0,0.0,0.0,0.0,0.0,0.0,0.0,0.0,0.0,0.0,0.0,0.0,0.0,0.0,0.0,0.0,-0.1041,0.0,0.0,0.0,0.0,0.0,0.0,0.0,0.0,0.0,0.0,0.0,0.0,0.0,0.0,0.0,0.0,0.0,0.0,0.0,0.0,0.0,0.0,0.0,0.0,0.0,0.0,0.0,0.0,0.0,0.0,0.0,0.0,0.0,0.0,0.0,0.0,0.0,0.0,0.0,0.0,0.0,-0.8407,-0.9733,-1.0707,-1.0962,-1.0521,-1.0067,-0.9742,-0.9198,-0.874,-0.841,0.0,0.0,0.0,0.0,0.0,0.0,0.0,0.0,0.0,0.0,0.0,0.0,0.0,0.0,0.0,0.0,0.0,0.0,0.0,0.0,0.0,0.0,0.0,0.0,0.0,0.0,0.0,0.0,0.0,0.0,0.0,0.0,0.0,0.0,0.0,0.0,0.0,0.0,0.0,0.0,0.0,0.0,0.0,0.0,0.0,0.0,0.0,0.0,0.0,0.0,0.0,0.0,0.0,0.0,0.0,0.0,0.0,0.0,0.0,0.0,0.0,-0.1498,0.0,0.0,0.0,0.0,0.0,0.0,0.0,0.0,0.0,0.0,0.0,0.0,0.0,0.0,0.0,0.0,0.0,0.0,0.0,0.0,0.0,0.0,0.0,0.0,0.0,0.0,0.0,0.0,0.0,0.0,0.0,0.0,0.0,0.0,0.0,0.0,0.0,0.0,0.0,0.0,-0.9268,-0.9962,-1.0514,-1.0942,-1.0341,-0.9793,-0.9492,-0.9065,-0.8809,-0.8781,-0.8477,0.0,0.0,0.0,0.0,0.0,0.0,0.0,0.0,0.0,0.0,0.0,0.0,0.0,0.0,0.0,0.0,0.0,0.0,0.0,0.0,0.0,0.0,0.0,0.0,0.0,0.0,0.0,0.0,0.0,0.0,0.0,0.0,0.0,0.0,0.0,0.0,0.0,0.0,0.0,0.0,0.0,0.0,0.0,0.0,0.0,0.0,0.0,0.0,0.0,0.0,0.0,0.0,0.0,0.0444,0.0305,0.0042,-0.0041,0.0193,0.054,-0.0388,-0.0163,0.073,0.0,0.0,0.0,0.0,0.0,0.0,0.0,0.0,0.0,0.0,0.0,0.0,0.0,0.0,0.0,0.0,0.0,0.0,0.0,0.0,0.0,0.0,0.0,0.0,0.0,-0.7203,-0.665,0.0,0.0,0.0,0.0,0.0,0.0,0.0,0.0,0.0,0.0,0.0,0.0,-1.021,-1.0329,-1.0506,-1.1075,-1.0358,-0.9699,-0.9317,-0.9024,-0.8938,-0.9124,-0.8622,-0.8508,0.0,0.0,0.0,0.0,0.0,0.0,0.0,0.0,0.0,0.0,0.0,0.0,0.0,0.0,0.0,0.0,0.0,0.0,0.0,0.0,0.0,0.0,0.0,0.0,0.0,0.0,0.0,0.0,0.0,0.0,0.0,0.0,0.1945,0.2654,0.0,0.0,0.0,0.0,0.0,0.0,0.0,0.0,0.0,0.0,0.0,0.0,0.0,-0.0707,-0.012,0.0087,0.0613,0.1483,0.1451,0.1384,0.1329,0.1322,0.1393,0.1436,0.1063,0.0,-0.0391,0.046,0.0,0.0,0.0,0.0,0.0,0.0,0.0,0.0,0.0,0.0,0.0,0.0,0.0,0.0,0.0,0.0,0.0,0.0,0.0,0.0,0.0,0.0,-0.6668,-0.6924,-0.7157,-0.7368,0.0,-0.7312,-0.7228,-0.7398,-0.6991,0.0,0.0,0.0,0.0,0.0,0.0,0.0,-1.0425,-1.0839,-1.12,-1.1574,-1.0945,-1.0251,-0.9673,-0.9324,-0.9064,-0.8851,-0.8777,-0.9127,-1.0065,-0.9067,0.0,0.0,0.0,0.0,0.0,0.0,0.0,0.0,0.0,0.0,0.0,0.0,0.0,0.0,0.0,0.0,0.0,0.0,0.0,0.0,0.0,0.0,0.0,0.0,0.0,0.0,0.0,0.0,0.0,0.1649,0.2111,0.2415,0.1044,-0.0132,0.0,0.0,0.0,0.0,0.0,0.0,0.0,0.0,0.0,0.0,-0.0044,0.0272,0.099,0.1143,0.1356,0.1743,0.1742,0.1751,0.1767,0.0984,0.0646,0.0684,0.0291,-0.0183,-0.0699,-0.0577,-0.0708,-0.1166,0.0,0.0,0.0,0.0,-0.5544,-0.545,-0.4922,-0.3866,0.0,-0.3992,0.0,0.0,0.0,0.0,0.0,0.0,0.0,0.0,0.0,0.0,0.0,-0.7396,-0.7632,-0.7722,-0.7555,-0.7438,-0.7316,0.0,-0.7425,-0.7603,-0.7384,0.0,0.0,0.0,0.0,0.0,-1.1106,-1.1301,-1.135,-1.1417,-1.1002,-1.0468,-0.9872,-0.9674,-0.9517,-0.9305,-0.9299,-0.9492,-0.9953,-0.9657,-0.9728,0.0,0.0,0.0,0.0,0.0,0.0,0.0,0.0,0.0,0.0,0.0,0.0,0.0,0.0,0.0,0.0,0.0,0.0,0.0,0.0,0.0,0.0,0.0,0.0,0.0,0.0,0.0,0.0,0.2029,0.24,0.2457,0.1467,0.0449,0.0,0.0,0.0,0.0,0.0,0.0,-0.0438,-0.0422,0.0,0.0816,0.0898,0.1197,0.1796,0.1834,0.1811,0.1841,0.1502,0.1342,0.1362,0.0,-0.0687,-0.0847,-0.1158,-0.1528,-0.1925,-0.2487,-0.1726,-0.0455,-0.3017,-0.4175,-0.4369,-0.4369,-0.4369,-0.4357,-0.4227,-0.4166,-0.4192,-0.4366,0.0,-0.5035,-0.5231,0.0,0.0,0.0,0.0,-0.7029,-0.7655,-0.7729,-0.7774,-0.8222,-0.8367,-0.8369,-0.816,-0.8203,-0.8042,0.0,-0.7601,-0.7983,-0.7503,0.0,0.0,0.0,0.0,-1.0148,-1.1708,-1.1696,-1.1513,-1.1422,-1.1137,-1.0696,-1.0023,-0.9962,-0.9876,-0.9715,-0.9715,-0.9715,-0.9715,-0.9918,-1.0003,-0.9934,0.0,0.0,0.0,0.0,0.0,0.0,0.0,0.0,0.0,0.0,0.0,0.0,0.0,0.0,0.0,0.0,0.0,0.0,0.0,0.0,0.0,0.0,0.0,0.0,0.0,0.0,0.0,0.0,0.0,0.3438,0.2033,0.0,0.0,0.0,0.0,-0.0891,-0.0755,-0.0336,0.0502,0.0493,0.0848,0.1702,0.1821,0.1867,0.196,0.1935,0.1937,0.1967,0.0656,0.0059,0.006,-0.1359,-0.2392,-0.3058,-0.2932,-0.3742,-0.5115,-0.4802,-0.4504,-0.4342,-0.4485,-0.459,-0.4606,-0.4606,-0.4606,-0.4581,-0.4738,-0.4685,-0.4581,-0.4511,-0.5184,-0.5943,-0.5584,-0.5929,0.0,0.0,-0.6052,-0.6591,-0.6957,-0.7974,-0.8945,-0.9174,-0.9434,-0.9657,-0.9759,-1.0134,-0.9872,0.0,-0.7253,-0.7238,-0.7697,0.0,-0.9215,-0.9161,-1.0579,-1.1741,-1.1968,-1.1908,-1.1894,-1.1955,-1.1594,-1.1029,-1.0167,-1.0094,-0.9973,-0.9729,-0.9715,-0.9715,-0.9715,-0.9427,-0.957,-1.0262,-0.9392,0.0,0.0,0.0,0.0,0.0,0.0,0.0,0.0,0.0,0.0,0.0,0.0,0.0,0.0,0.0,0.0,0.0,0.0,0.0,0.0,0.0,0.0,0.0,0.0,0.0,0.0,0.0,0.0,0.1379,0.1223,0.0,0.0,-0.032,-0.0498,-0.0546,0.0341,0.093,0.1031,0.1307,0.1595,0.1892,0.1995,0.2022,0.2033,0.1073,0.0628,0.0688,-0.0742,-0.1349,-0.1343,-0.267,-0.3347,-0.3565,-0.4346,-0.4969,-0.5367,-0.5175,-0.4905,-0.4734,-0.4705,-0.4673,-0.4732,-0.4703,-0.4675,-0.4734,-0.4683,-0.4758,-0.4921,-0.496,-0.5355,-0.5804,-0.5501,-0.636,-0.7293,-0.7044,-0.7817,-0.8795,-0.8896,-0.927,-0.9602,-0.9375,-0.9378,-0.9368,-0.9119,-0.8982,-0.8705,-0.8021,-0.8305,-0.8647,-0.8642,-0.8632,-0.8953,-0.9869,-1.0621,-1.1269,-1.1758,-1.2003,-1.2092,-1.1943,-1.173,-1.1349,-1.0805,-1.0612,-1.0316,-0.9742,-0.9715,-0.9512,-0.9138,-0.9018,-0.9399,-1.0345,-0.9705,-0.9331,0.0,0.0,0.0,0.0,0.0,0.0,0.0,0.0,0.0,0.0,0.0,0.0,0.0,0.0,0.0,0.0,0.0,0.0,0.0,0.0,0.0,0.0,0.0,0.0,0.0,0.0,0.1081,0.0097,0.0568,0.064,-0.0262,0.0105,0.0369,0.0213,0.1131,0.1594,0.1386,0.1677,0.1649,0.1151,0.1298,0.1174,0.0714,-0.0258,-0.0703,-0.063,-0.2067,-0.2672,-0.2707,-0.4,-0.4493,-0.4444,-0.5274,-0.5588,-0.5418,-0.5357,-0.5138,-0.4907,-0.4818,-0.4792,-0.4774,-0.4745,-0.4767,-0.4768,-0.4702,-0.4776,-0.4977,-0.5131,-0.5298,-0.5441,-0.5395,-0.6249,-0.7372,-0.7777,-0.8718,-0.9709,-1.0114,-1.0341,-1.0366,-0.999,-0.9972,-1.0009,-0.9615,-0.9229,-0.9,-0.8948,-0.8918,-0.8735,-0.8307,-0.803,-0.8234,-0.9218,-0.9375,-0.9688,-1.0595,-1.0984,-1.1214,-1.1245,-1.1368,-1.1355,-1.1088,-1.0427,-1.0007,-1.0003,-0.9569,-0.9254,-0.9105,-0.889,-0.901,-0.9541,-0.9066,-0.9003,-0.9383,0.0,0.0,0.0,0.0,0.0,0.0,0.0,0.0,0.0,0.0,0.0,0.0,0.0,0.0,0.0,0.0,0.0,0.0,0.0,0.0,0.0,0.0,0.0,-0.0885,-0.0144,0.0317,0.0051,0.0233,0.0373,0.0416,0.073,0.1115,0.1362,0.1444,0.1518,0.1517,0.1558,0.0923,-0.0527,-0.0267,-0.0734,-0.204,-0.2141,-0.2109,-0.2014,-0.3348,-0.3939,-0.3999,-0.5297,-0.5865,-0.5778,-0.5778,-0.5674,-0.5504,-0.5504,-0.5402,-0.5172,-0.5049,-0.4924,-0.4792,-0.479,-0.4786,-0.4784,-0.4834,-0.4781,-0.4761,-0.505,-0.5032,-0.5002,-0.5289,-0.5766,-0.6472,-0.7728,-0.8469,-0.9169,-1.0389,-1.1037,-1.1308,-1.1045,-1.1352,-1.16,-1.1316,-1.1075,-1.0882,-1.06,-0.8922,-0.7327,-0.6683,-0.7038,-0.7325,-0.7199,-0.7039,0.0,-0.8622,-0.8952,-0.9323,-0.9948,-1.0613,-1.1022,-1.0955,-0.9511,-0.914,-1.0486,-0.9309,-0.8896,-0.9675,-0.9089,-0.8535,-0.8051,-0.765,-0.8577,-1.0924,0.0,0.0,0.0,0.0,0.0,0.0,0.0,0.0,0.0,0.0,0.0,0.0,0.0,0.0,0.0,0.0,0.0,0.0,0.0,0.0,0.0,0.0,-0.0288,-0.0248,-0.0052,0.0056,0.0,0.0065,0.0132,0.0132,0.0461,0.0592,0.0395,0.1122,0.1456,0.1191,0.0732,0.0134,-0.0534,-0.1474,-0.22,-0.2692,-0.3533,-0.3872,-0.3713,-0.4893,-0.5417,-0.536,-0.573,-0.5831,-0.5682,-0.5682,-0.5582,-0.5416,-0.5416,-0.5349,-0.5184,-0.5136,-0.5112,-0.5024,-0.4959,-0.4892,-0.4834,-0.5037,-0.5072,-0.5153,-0.5598,-0.5726,-0.5898,-0.6923,-0.7902,-0.8754,-0.9303,-1.0125,-1.0806,-1.0608,-1.0939,-1.1109,-1.032,-1.081,-1.1161,-1.0031,-0.9778,-0.9634,-0.9234,-0.8463,-0.7938,-0.8246,-0.8896,-0.9198,-0.8757,-0.9433,0.0,-1.0616,-1.0913,-1.0972,-1.0616,-1.1137,-1.1159,-1.0295,-1.0189,-1.0184,-1.0227,-0.9883,-0.9675,-0.9715,-0.9988,-1.0497,-1.1211,-1.0695,-1.0792,0.0,0.0,0.0,0.0,0.0,0.0,0.0,0.0,0.0,0.0,0.0,0.0,0.0,0.0,0.0,0.0,0.0,0.0,0.0,0.0,0.0,0.0,-0.0351,0.0,0.0,0.0,0.0,0.0,0.0,0.0,0.0,0.035,0.0418,0.0209,0.0827,0.082,0.0,-0.0337,-0.1075,-0.2484,-0.3089,-0.3656,-0.4361,-0.5014,-0.5201,-0.5055,-0.5683,-0.5949,-0.5861,-0.5861,-0.578,0.0,-0.5584,-0.5563,-0.5435,-0.5435,-0.5382,0.0,0.0,0.0,0.0,0.0,-0.4879,-0.4834,-0.4987,-0.5037,-0.5087,-0.5388,-0.5489,-0.5689,-0.6833,-0.7826,-0.8749,-0.9482,-1.0378,-1.1038,-1.0863,-1.1019,-1.1142,-1.0679,-1.0961,-1.1121,-1.0154,-0.9881,-0.9679,-0.9108,-0.9165,0.0,-0.9401,-0.9144,-0.8988,-0.9119,-0.9254,-0.9582,-1.0151,-1.0539,-1.0653,-1.038,-1.0984,-1.1133,-1.0411,-1.0037,0.0,0.0,0.0,-0.9555,-0.9861,-1.039,0.0,0.0,0.0,-1.1048,-1.184,0.0,0.0,0.0,-1.2818,-1.2924,0.0,0.0,0.0,0.0,0.0,0.0,0.0,0.0,0.0,0.0,0.0,0.0,0.0,0.0,0.0,0.0,0.0,0.0,0.0,0.0,0.0,0.0,0.0,0.0,0.0,0.0292,0.0438,0.0218,0.0427,-0.007,-0.1508,0.0,0.0,0.0,0.0,-0.5236,-0.6374,-0.6308,-0.6155,-0.5978,-0.5916,-0.5874,-0.5796,-0.5796,-0.5741,-0.5584,-0.5584,-0.5586,-0.5492,-0.5492,-0.5443,-0.5357,-0.5265,-0.513,-0.4975,-0.4873,-0.4784,-0.4784,-0.4784,0.0,0.0,-0.4834,-0.4834,-0.5035,-0.5989,-0.6786,-0.7633,-0.897,-0.9862,-1.0511,-1.09,-1.1047,-1.1151,-1.135,-1.1343,-1.1185,-1.088,-1.0657,-1.0304,-0.9624,-1.0157,-1.0611,-1.0208,-0.885,-0.8149,-0.9005,-0.8165,-0.7788,-0.883,-0.9301,-0.9613,-0.9813,0.0,0.0,-1.0902,-0.9571,-0.9275,-1.0506,-0.9493,-0.9334,-1.0425,-1.083,-1.0609,-0.9712,-0.9881,-1.0707,-1.2186,-1.2373,-1.3487,-1.54,-1.366,-1.4222,0.0,0.0,0.0,0.0,0.0,0.0,0.0,0.0,0.0,0.0,0.0,0.0,0.0,0.0,0.0,-0.0275,-0.006,0.0,0.0,0.0,0.0,0.0,0.0,0.0,0.0,0.0073,-0.0363,-0.1506,-0.0283,-0.0069,-0.1554,-0.2354,0.0,-0.4092,-0.5908,-0.7024,-0.7397,-0.6889,-0.6473,-0.628,0.0,0.0,-0.5892,-0.5892,-0.58,-0.5584,-0.5584,-0.5553,-0.5406,-0.5406,-0.5353,-0.5207,-0.5169,-0.5114,-0.5061,-0.4845,-0.4784,-0.4784,-0.4784,-0.4784,-0.4834,-0.5037,-0.514,-0.5489,-0.7375,-0.8021,0.0,-0.9813,-1.0261,-1.0314,-1.0019,-1.0216,-1.0449,-1.0075,-1.0617,-1.0918,-0.9906,-0.9906,-0.9798,-0.911,-0.9002,-0.9479,-1.0762,-1.1123,-1.1137,-1.0724,-1.0942,-1.119,-1.1263,-1.1458,-1.1404,-1.0814,-1.1235,-1.1221,-1.0347,-1.0309,-1.0438,-1.0573,-1.0803,-1.1495,-1.2802,-1.2918,-1.3121,-1.3461,-1.3488,-1.3672,-1.4005,-1.4042,-1.4659,-1.5796,-1.6105,-1.6532,0.0,0.0,0.0,0.0,0.0,0.0,0.0,0.0,0.0,0.0,0.0,-0.1256,0.0,0.0,-0.0637,-0.0178,-0.0065,0.0,0.0,0.0,0.0,0.0,0.0,0.0,0.0,0.0,-0.0572,-0.1999,-0.1262,-0.1723,-0.3869,-0.4379,-0.4964,-0.5902,-0.6782,-0.7224,-0.721,-0.6697,-0.6345,-0.616,-0.5978,-0.5894,-0.5849,-0.5849,-0.5749,-0.5576,-0.5576,-0.5502,-0.5382,-0.5382,-0.5328,-0.518,-0.5143,-0.5079,-0.5022,-0.4885,-0.4784,-0.4784,-0.4784,-0.4784,-0.4834,-0.4937,-0.4987,-0.5336,-0.7229,-0.7776,-0.8124,-0.9571,-1.0019,-0.9924,-0.9677,-0.9826,-1.0019,-1.0019,-1.0338,-1.0483,-0.9896,-0.978,-0.9667,-0.9066,-0.9173,-0.9668,-1.0554,-1.1271,-1.184,-1.2151,-1.2442,-1.2576,-1.2466,-1.2496,-1.2283,-1.1697,-1.1755,-1.1451,-1.0615,-1.0649,-1.0681,-1.0593,-1.1476,-1.2305,-1.2978,-1.3631,-1.4169,-1.4476,-1.4556,-1.4616,-1.4616,-1.4714,-1.5,-1.5478,-1.6208,-1.695,0.0,0.0,0.0,0.0,0.0,0.0,0.0,0.0,-0.0318,-0.0097,-0.0251,-0.0362,-0.0266,-0.0232,-0.0187,0.0,0.0,0.0,0.0,0.0,-0.0072,-0.0363,-0.0432,-0.0431,-0.0436,-0.064,-0.1409,-0.2851,-0.2715,-0.3702,-0.6305,-0.6084,-0.6441,-0.7653,-0.7252,-0.6894,-0.6702,-0.6374,-0.6092,-0.5916,-0.5916,-0.5878,-0.5806,-0.5806,-0.5706,-0.5531,-0.5498,-0.5445,-0.5377,-0.5343,-0.5284,-0.5152,-0.5098,-0.501,-0.4937,-0.4861,-0.4784,-0.4784,-0.4784,-0.4784,-0.4784,-0.4784,-0.4784,-0.5085,-0.6537,-0.7089,-0.7487,-0.8981,-0.948,-0.9579,-0.9579,-0.9579,-0.9727,-1.0117,-1.0104,-0.9992,-0.9979,-0.9832,-0.9609,-0.9239,-0.9559,-0.9979,-1.0154,-1.0646,-1.1491,-1.2902,-1.2997,-1.2951,-1.302,-1.2907,-1.2728,-1.2412,-1.2114,-1.1665,-1.1042,-1.0861,-1.0777,-1.0782,-1.1933,-1.2645,-1.2696,-1.3851,-1.4515,-1.4515,-1.468,-1.4777,-1.4777,-1.502,-1.5119,-1.5064,-1.5547,-1.6452,-0.0035,0.0069,0.0273,0.075,0.0328,0.0286,0.0,0.0,0.0109,0.1298,0.0682,-0.0064,-0.0064,-0.0066,0.0,0.0,0.0,0.0,0.0,0.0,-0.0495,-0.1715,-0.1858,-0.1857,-0.186,-0.3034,-0.4429,-0.598,-0.48,-0.4796,-0.651,-0.6151,-0.5969,-0.6172,-0.6713,-0.6894,-0.6702,-0.6374,-0.6092,-0.5916,-0.5916,-0.5912,-0.5902,-0.5902,-0.5802,-0.5562,-0.5463,-0.539,-0.5369,-0.5206,-0.5132,-0.5106,-0.4881,-0.4808,-0.4798,-0.4788,-0.4784,-0.4784,-0.4784,-0.4784,-0.4784,-0.4784,-0.4784,-0.4985,-0.5839,-0.6639,-0.7388,-0.8283,-0.9031,-0.9579,-0.9579,-0.9579,-0.9628,-0.9677,-0.9661,-0.9645,-0.9645,-0.955,-0.9419,-0.9371,-0.9144,-0.9223,-1.0064,-1.0123,-1.0583,-1.2188,-1.249,-1.2728,-1.3107,-1.3067,-1.2916,-1.2775,-1.2241,-1.1665,-1.1042,-1.1196,-1.1335,-1.1394,-1.2373,-1.3097,-1.3368,-1.41,-1.4515,-1.4515,-1.4854,-1.5059,-1.5069,-1.5449,-1.5503,-1.5284,-1.5345,-1.5632,0.0741,0.0476,0.0,0.0,0.0596,0.0145,0.1035,0.0521,0.0061,0.0635,0.033,0.0,0.0,0.0,0.0,0.0,0.0,0.0,0.0,-0.0702,-0.138,-0.1842,-0.3378,-0.4139,-0.3476,-0.3922,-0.4927,-0.6399,-0.5858,-0.6159,-0.7716,-0.7404,-0.7181,-0.7181,-0.7049,-0.6894,-0.6702,-0.6374,-0.6092,-0.5916,-0.5916,-0.5916,-0.5916,-0.5916,-0.5816,-0.5576,-0.5457,-0.5382,-0.5371,-0.5241,-0.5157,-0.5096,-0.4965,-0.4881,-0.4784,-0.4784,-0.4784,-0.4784,-0.4784,-0.4784,-0.4784,-0.4784,-0.4784,-0.4935,-0.5741,-0.6242,-0.6789,-0.8035,-0.863,-0.9031,-0.948,-0.9579,-0.9579,-0.9579,-0.9579,-0.9579,-0.9579,-0.9567,-0.9514,-0.9514,-0.9307,-0.9269,-0.9686,-0.9931,-1.0485,-1.1695,-1.2323,-1.287,-1.3611,-1.3494,-1.3212,-1.2824,-1.2254,-1.1806,-1.1558,-1.1456,-1.1424,-1.1433,-1.2654,-1.3421,-1.3565,-1.4621,-1.5194,-1.5194,-1.5359,-1.5441,-1.5441,-1.5606,-1.5638,-1.5536,-1.5536,-1.5623,0.0963,0.0,0.0,0.097,0.0591,0.0,0.0,0.0,0.0,0.0,0.0,0.0,0.0,0.0,0.0,0.0,0.0,0.0,0.0,-0.1114,-0.2029,-0.2375,-0.4508,-0.5797,-0.5403,-0.541,-0.588,-0.6909,-0.6978,-0.7459,-0.8569,-0.8274,-0.8125,-0.8125,-0.736,-0.6867,-0.6702,-0.6351,-0.607,-0.5916,-0.5892,-0.588,-0.5878,-0.5853,-0.571,-0.5576,-0.5482,-0.5404,-0.5371,-0.5255,-0.5167,-0.5096,-0.4979,-0.4894,-0.4784,-0.4784,-0.4784,-0.4784,-0.4784,-0.4784,-0.4784,-0.4784,-0.4784,-0.4885,-0.5489,-0.5839,-0.6292,-0.7686,-0.8233,-0.8581,-0.9377,-0.9579,-0.9579,-0.9579,-0.9579,-0.9579,-0.9579,-0.9579,-0.9579,-0.9579,-0.9482,-0.9404,-0.9404,-0.9698,-1.0288,-1.1539,-1.2153,-1.2911,-1.3975,-1.3828,-1.3373,-1.2851,-1.2402,-1.208,-1.1919,-1.1744,-1.1562,-1.1402,-1.2856,-1.368,-1.3584,-1.4967,-1.5689,-1.5689,-1.5808,-1.5863,-1.5863,-1.5973,-1.5964,-1.5863,-1.5863,-1.5831,0.0,0.0,0.0,0.0051,0.0,0.0,0.0,0.0,0.0,0.0,0.0,0.0,0.0,0.0,0.0,0.0,0.0,0.0,0.0,-0.1036,-0.2341,-0.3689,-0.4936,-0.6322,0.0,-0.8156,-0.8336,-0.8512,-0.852,-0.8638,-0.8758,-0.8386,-0.8125,-0.8125,-0.7297,-0.6868,-0.6702,-0.6227,-0.5948,-0.5916,-0.5827,-0.5786,-0.5782,-0.5692,-0.559,-0.558,-0.5545,-0.5457,-0.5367,-0.5188,-0.511,-0.509,-0.4859,-0.4786,-0.4784,-0.4784,-0.4784,-0.4784,-0.4784,-0.4784,-0.4784,-0.4784,-0.4784,-0.4784,-0.4834,-0.5388,-0.6192,-0.6989,-0.7786,-0.8581,-0.9377,-0.9579,-0.9579,-0.9579,-0.9579,-0.9579,-0.9579,-0.9579,-0.9579,-0.9579,-0.9482,-0.9404,-0.9404,-0.9253,-0.9773,-1.1685,-1.2,-1.2507,-1.3943,-1.3828,-1.3373,-1.2851,-1.277,-1.2529,-1.1953,-1.2118,-1.2031,-1.1429,-1.3038,-1.3858,-1.3592,-1.4967,-1.5689,-1.5689,-1.6092,-1.626,-1.627,-1.6679,-1.667,-1.626,-1.626,-1.6149,0.0,0.0,0.0,0.0,0.0,0.0,0.0,0.0,0.0,0.0,-0.0402,-0.0711,-0.0701,-0.1098,-0.1269,-0.0782,-0.0725,-0.0536,-0.007,-0.1107,-0.234,-0.3547,-0.4949,0.0,0.0,0.0,0.0,-0.8459,-0.8475,-0.8524,-0.8641,-0.8277,-0.8125,-0.8125,-0.7292,-0.6866,-0.6702,-0.6225,-0.5944,-0.5916,-0.5825,-0.5782,-0.5776,-0.5622,-0.5553,-0.5549,-0.5461,-0.5373,-0.5282,-0.5159,-0.5073,-0.5006,-0.4881,-0.4784,-0.4784,-0.4784,-0.4784,-0.4784,-0.4784,-0.4784,-0.4784,-0.4784,-0.4784,-0.4784,-0.4784,-0.4985,-0.5486,-0.6836,-0.7388,-0.7935,-0.9229,-0.9579,-0.9579,-0.9579,-0.9579,-0.9579,-0.9579,-0.9579,-0.9579,-0.9579,-0.9575,-0.9535,-0.9535,-0.9857,-1.0805,-1.2637,-1.3332,-1.3831,-1.4309,-1.3906,-1.3453,-1.3093,-1.2911,-1.2623,-1.2191,-1.2245,-1.2218,-1.2017,-1.3064,-1.3856,-1.4268,-1.5239,-1.6011,-1.6496,-1.6633,-1.6707,-1.6707,-1.6844,-1.6835,-1.6707,-1.6707,-1.6667,0.0,0.0,0.0,0.0,0.0,0.0,0.0,0.0,0.0,0.0,-0.0565,-0.1137,-0.1144,-0.161,-0.1817,-0.1269,-0.1037,-0.0749,-0.0068,-0.108,-0.2362,-0.3583,-0.4972,0.0,0.0,0.0,0.0,-0.8334,-0.8432,-0.8511,-0.8584,-0.839,-0.8192,-0.8125,-0.7424,-0.6929,-0.6702,-0.6225,-0.593,-0.5867,-0.5776,-0.5733,-0.5727,-0.5576,-0.5508,-0.5504,-0.5418,-0.5347,-0.5282,-0.5124,-0.5045,-0.5008,-0.4883,-0.4784,-0.4784,-0.4784,-0.4784,-0.4784,-0.4784,-0.4784,-0.4784,-0.4784,-0.4784,-0.4784,-0.4784,-0.4784,-0.5085,-0.6387,-0.6989,-0.7487,-0.8832,-0.9381,-0.9579,-0.9579,-0.9579,-0.9579,-0.9579,-0.9579,-0.9579,-0.9579,-0.9579,-0.9579,-0.9579,-1.0294,-1.1402,-1.2903,-1.3691,-1.4184,-1.4486,-1.4102,-1.3687,-1.3353,-1.3093,-1.2831,-1.2522,-1.2365,-1.2305,-1.2305,-1.3062,-1.3818,-1.4565,-1.5365,-1.6158,-1.6874,-1.6908,-1.6908,-1.6908,-1.6908,-1.6908,-1.6908,-1.6908,-1.6908,0.0,0.0,0.0,0.0,0.0,0.0,0.0,0.0,0.0,0.0,-0.064,-0.1181,0.0,0.0,-0.1739,-0.1373,-0.0972,-0.0527,-0.0065,-0.0968,-0.2227,0.0,0.0,0.0,0.0,0.0,0.0,-0.8225,0.0,-0.8573,-0.8587,-0.8587,-0.8456,-0.8125,-0.7619,-0.7187,-0.6702,-0.6221,-0.5959,-0.5788,-0.569,-0.5584,-0.5582,-0.5545,-0.5502,-0.5496,-0.541,-0.5371,-0.5347,-0.5081,-0.502,-0.5077,-0.4857,-0.4792,-0.4792,-0.4796,-0.4794,-0.4792,-0.4792,-0.4788,-0.4784,-0.4784,-0.4784,-0.4784,-0.4784,-0.4784,-0.4985,-0.5792,-0.6539,-0.7338,-0.8184,-0.8981,-0.9529,-0.9579,-0.9579,-0.9579,-0.9579,-0.9579,-0.9579,-0.9579,-0.9579,-0.9579,-0.9579,-1.0498,-1.156,-1.2533,-1.3129,-1.3675,-1.4445,-1.4275,-1.3975,-1.3633,-1.336,-1.31,-1.2811,-1.2522,-1.2318,-1.2305,-1.3025,-1.3781,-1.4494,-1.5321,-1.6088,-1.683,-1.6874,-1.6908,-1.6908,-1.6908,-1.6908,-1.6908,-1.6908,-1.6908,0.0,0.0,0.0,0.0,0.0,0.0,0.0,0.0,0.0,0.0,-0.0993,-0.1861,0.0,0.0,0.0,-0.1988,-0.1403,0.0,-0.0068,-0.0272,0.0,0.0,0.0,-0.5434,-0.7874,-0.819,0.0,0.0,-0.8342,-0.8402,-0.8579,-0.8587,-0.8456,-0.8125,-0.7619,-0.7187,-0.6702,-0.6156,-0.5929,-0.588,-0.5661,-0.5584,-0.558,-0.5484,-0.5414,-0.5408,-0.5318,-0.5241,-0.5167,-0.5028,-0.4945,-0.4906,-0.4928,-0.4937,-0.4945,-0.5014,-0.4996,-0.4937,-0.4937,-0.4892,-0.4784,-0.4784,-0.4784,-0.4784,-0.4784,-0.4784,-0.4985,-0.5792,-0.6142,-0.6639,-0.8035,-0.8531,-0.8878,-0.9476,-0.9579,-0.9579,-0.9579,-0.9579,-0.9579,-0.9579,-0.9579,-0.9579,-0.9579,-1.0498,-1.156,-1.2533,-1.3278,-1.4004,-1.4749,-1.4402,-1.3975,-1.3633,-1.354,-1.332,-1.2831,-1.2717,-1.2576,-1.2318,-1.2482,-1.2952,-1.3745,-1.4502,-1.5286,-1.6088,-1.6621,-1.6908,-1.6908,-1.6908,-1.6908,-1.6908,-1.6908,-1.6908,0.0,0.0,0.0,0.0,0.0,0.0,0.0,0.0,-0.0055,-0.0336,-0.1281,0.0,0.0,0.0,0.0,0.0,0.0,0.0,-0.0923,-0.0936,-0.1934,0.0,-0.5081,0.0,-0.81,-0.8367,-0.844,0.0,-0.8429,-0.8448,-0.8581,-0.8587,-0.839,-0.7858,-0.7553,-0.7101,-0.6383,-0.605,-0.5916,-0.5914,-0.5772,-0.5682,-0.558,-0.55,-0.5416,-0.5375,0.0,-0.5239,-0.5214,-0.5043,-0.4988,-0.4958,-0.4983,-0.4996,-0.5039,-0.509,-0.5075,-0.5026,-0.4986,-0.4939,-0.4888,-0.4796,-0.4784,-0.4792,-0.4881,-0.4867,-0.4893,-0.5443,-0.5778,-0.6192,-0.7089,-0.7885,-0.8531,-0.8981,-0.9327,-0.9579,-0.9579,-0.9579,-0.9579,-0.9579,-0.9579,-0.9579,-0.9579,-1.0498,-1.156,-1.2533,-1.333,-1.4102,-1.4907,-1.4563,-1.4162,-1.3868,-1.368,-1.3413,-1.3025,-1.2864,-1.2656,-1.2318,-1.2305,-1.2666,-1.3462,-1.4214,-1.4966,-1.5762,-1.6508,-1.6908,-1.6908,-1.6908,-1.6908,-1.6908,-1.6908,-1.6908,0.0,0.0,0.0,0.0,0.0,0.0,0.0,-0.0056,-0.0251,-0.0793,0.0,-0.211,-0.2091,0.0,-0.2408,-0.142,0.0,-0.1042,-0.1999,-0.2116,-0.3196,-0.6036,-0.638,-0.6951,-0.8443,-0.8497,-0.8481,-0.8581,-0.8587,-0.8587,-0.8587,-0.8587,-0.8182,-0.7438,-0.7257,-0.6852,-0.5992,-0.5963,-0.5916,-0.5916,-0.5825,-0.5739,-0.56,-0.5567,-0.548,-0.5394,0.0,0.0,-0.5343,-0.5094,-0.5084,-0.5158,-0.5065,-0.5057,-0.5128,-0.5139,-0.5137,-0.5114,-0.502,-0.4981,-0.4957,-0.4863,-0.4784,-0.4798,-0.493,-0.4898,-0.48,-0.493,-0.5406,-0.5842,-0.5992,-0.7138,-0.8283,-0.8382,-0.9031,-0.9579,-0.9579,-0.9579,-0.9579,-0.9579,-0.9579,-0.9579,-0.9579,-1.035,-1.137,-1.2538,-1.3263,-1.3973,-1.4915,-1.473,-1.4409,-1.4122,-1.3854,-1.354,-1.3293,-1.3019,-1.2777,-1.2438,-1.2425,-1.2716,-1.3447,-1.4164,-1.4961,-1.5766,-1.6493,-1.6932,-1.6991,-1.6991,-1.6963,-1.6908,-1.6908,-1.6908,0.0,0.0,0.0,0.0,0.0,0.0,0.0,-0.036,0.0,0.0,0.0,-0.2665,-0.2114,-0.2542,0.0,-0.1354,0.0,0.0,0.0,0.0,-0.3179,0.0,0.0,0.0,0.0,0.0,0.0,0.0,0.0,-0.8587,-0.8587,-0.8323,-0.7816,-0.7008,-0.6507,-0.6147,-0.599,-0.5963,-0.5916,-0.5916,-0.5825,-0.5772,-0.5753,-0.5661,-0.5571,-0.5482,-0.5396,0.0,-0.5202,-0.5135,-0.5102,-0.5137,-0.5126,-0.5152,-0.5176,-0.5306,-0.5286,-0.5154,-0.5116,-0.5035,-0.4957,-0.4863,-0.4784,-0.4788,-0.4802,-0.4796,-0.4788,-0.4802,-0.4897,-0.5135,-0.5839,-0.6689,-0.7587,-0.8233,-0.9031,-0.9579,-0.9579,-0.9579,-0.9579,-0.9579,-0.9579,-0.9579,-0.9579,-0.9772,-1.0502,-1.2436,-1.2791,-1.3494,-1.5127,-1.485,-1.4409,-1.4122,-1.4041,-1.3895,-1.3553,-1.348,-1.332,-1.3073,-1.3053,-1.3092,-1.3248,-1.3944,-1.4782,-1.5718,-1.6442,-1.6993,-1.7394,-1.7394,-1.7229,-1.6908,-1.6908,-1.6908,0.0,0.0,0.0,0.0,0.0,-0.0064,-0.0386,0.0,0.0,0.0,0.0,-0.2846,-0.2538,0.0,0.0,0.0,0.0,0.0,0.0,0.0,0.0,0.0,0.0,0.0,0.0,0.0,0.0,0.0,0.0,-0.839,-0.8587,-0.8069,-0.7435,-0.6763,-0.6288,-0.5968,-0.5922,-0.5939,-0.5916,-0.5916,-0.5874,-0.5827,-0.578,-0.5735,-0.5639,-0.5506,-0.5465,0.0,-0.5308,-0.5216,-0.5206,-0.5251,-0.519,-0.5219,-0.532,-0.5365,-0.5355,-0.5296,-0.5157,-0.5079,-0.502,-0.4879,-0.4867,-0.4906,-0.4906,-0.4906,-0.4906,-0.4906,-0.4906,-0.4995,-0.5301,-0.6073,-0.6913,-0.7759,-0.8851,-0.9738,-0.9648,-0.9579,-0.9579,-0.9579,-0.9579,-0.9579,-0.9579,-1.0064,-1.0788,-1.1755,-1.2339,-1.3169,-1.4431,-1.4305,-1.4161,-1.4312,-1.4175,-1.3968,-1.3626,-1.36,-1.348,-1.3227,-1.3213,-1.3213,-1.3213,-1.392,-1.4523,-1.4964,-1.6163,-1.692,-1.7146,-1.7596,-1.7724,-1.7505,-1.7505,-1.7505,0.0,0.0,0.0,0.0,0.0,-0.0184,-0.0767,-0.0989,0.0,0.0,-0.2927,-0.3069,-0.289,0.0,0.0,0.0,0.0,0.0,0.0,0.0,0.0,0.0,0.0,0.0,0.0,0.0,0.0,0.0,0.0,0.0,-0.822,-0.7563,-0.6967,-0.6495,-0.6158,-0.5918,-0.5888,-0.5908,-0.5908,-0.5888,-0.5908,-0.588,-0.581,-0.581,-0.571,-0.5537,-0.5537,0.0,0.0,-0.5304,-0.5316,-0.5373,-0.5302,-0.5318,-0.5382,-0.5382,-0.5382,-0.5355,-0.5171,-0.5108,-0.5081,-0.4916,-0.4912,-0.5023,-0.5023,-0.5023,-0.5027,-0.4996,-0.4986,-0.4961,-0.4908,-0.5566,-0.6558,-0.7549,-0.8885,-0.9847,-0.9709,-0.9685,-0.9673,-0.9583,-0.9579,-0.9579,-0.9579,-1.0306,-1.093,-1.117,-1.1853,-1.2753,-1.3796,-1.3811,-1.3954,-1.4531,-1.4355,-1.4062,-1.3726,-1.37,-1.36,-1.3414,-1.3394,-1.3394,-1.3394,-1.3966,-1.4342,-1.4539,-1.5841,-1.6638,-1.6936,-1.7636,-1.8014,-1.8091,-1.8091,-1.8091,0.0,0.0,0.0,0.0,0.0,-0.0179,-0.075,0.0,0.0,-0.2572,-0.3294,-0.3589,-0.2855,-0.3413,-0.3572,0.0,0.0,0.0,0.0,0.0,0.0,0.0,0.0,0.0,0.0,0.0,0.0,0.0,0.0,0.0,-0.7058,-0.681,-0.6508,-0.6053,-0.5974,-0.5886,-0.5794,-0.5876,-0.5876,-0.5794,-0.5878,-0.5912,-0.5904,-0.5904,-0.5804,-0.5572,-0.5572,0.0,0.0,-0.5371,-0.5373,-0.538,-0.5371,-0.5373,-0.5382,-0.5382,-0.5382,-0.5355,-0.5171,-0.5108,-0.5092,-0.4992,-0.4965,-0.5023,-0.5023,-0.5023,-0.499,-0.5073,-0.5037,-0.4988,-0.5063,-0.5673,-0.6685,-0.8298,-0.933,-0.988,-0.9864,-0.986,-0.9815,-0.9657,-0.9579,-0.9579,-0.9579,-0.9673,-1.0064,-1.1028,-1.1268,-1.2042,-1.4016,-1.3775,-1.3818,-1.4834,-1.4656,-1.4362,-1.4075,-1.4048,-1.4035,-1.4008,-1.4008,-1.4008,-1.4008,-1.4085,-1.449,-1.5265,-1.5471,-1.6129,-1.7359,-1.7437,-1.7696,-1.8091,-1.8091,-1.8091,-0.0666,-0.033,0.0,0.0,0.0,-0.0231,-0.122,0.0,0.0,-0.3047,-0.3569,-0.3743,-0.3485,-0.3727,-0.3853,0.0,0.0,0.0,0.0,0.0,0.0,0.0,0.0,0.0,0.0,0.0,0.0,0.0,0.0,0.0,-0.6494,-0.6563,-0.64,-0.5974,-0.5882,-0.5843,-0.5863,-0.5845,-0.5816,-0.5782,-0.5818,-0.5806,-0.5693,-0.581,-0.5735,-0.5565,-0.5562,0.0,0.0,-0.5382,-0.5382,-0.5382,-0.5382,-0.5382,-0.5382,-0.5382,-0.5382,-0.5355,-0.5171,-0.5108,-0.5094,-0.5002,-0.5008,-0.5053,-0.5053,-0.5092,-0.5132,-0.5114,-0.5122,-0.513,-0.5114,-0.6158,-0.7437,-0.8025,-0.9202,-1.0156,-0.9933,-0.9884,-0.9835,-0.9661,-0.9579,-0.9579,-0.9579,-0.9579,-0.9723,-1.0158,-1.0256,-1.0792,-1.2242,-1.2756,-1.3228,-1.3979,-1.418,-1.4215,-1.4095,-1.4088,-1.4088,-1.4088,-1.4088,-1.4088,-1.4088,-1.4088,-1.425,-1.4615,-1.5151,-1.5659,-1.6209,-1.7256,-1.7864,-1.8039,-1.8593,-1.8834,-0.1094,-0.0669,-0.0266,-0.0066,-0.0122,-0.0547,0.0,0.0,-0.2372,-0.3384,-0.3704,-0.3797,-0.3822,-0.3857,-0.3959,-0.4164,0.0,0.0,0.0,0.0,0.0,0.0,0.0,0.0,0.0,0.0,0.0,0.0,0.0,0.0,0.0,-0.6311,-0.623,-0.5919,-0.5855,-0.5839,-0.5876,-0.5839,-0.5794,-0.5741,-0.5767,-0.5733,-0.5586,-0.571,-0.5655,-0.551,0.0,0.0,0.0,-0.5382,-0.5382,-0.5382,-0.5382,-0.5382,-0.5377,-0.5351,-0.5341,-0.5314,-0.513,-0.5067,-0.5061,-0.5024,-0.5055,-0.5118,-0.5171,-0.5214,-0.5182,-0.52,-0.5235,-0.5269,-0.5206,-0.6293,-0.7525,-0.7777,-0.8953,-1.0028,-0.9983,-0.9965,-0.99,-0.9673,-0.9579,-0.9579,-0.9579,-0.9579,-0.9579,-0.9579,-0.9579,-0.9965,-1.1077,-1.1749,-1.2353,-1.2992,-1.3485,-1.3871,-1.4095,-1.4088,-1.4088,-1.4088,-1.4088,-1.4088,-1.4088,-1.4088,-1.4088,-1.4088,-1.4699,-1.5151,-1.5394,-1.6617,-1.7342,-1.7634,-1.8527,-1.9054,-0.1124,-0.0977,-0.0891,-0.0184,-0.0454,-0.1054,0.0,0.0,-0.2864,-0.348,-0.3704,-0.3747,-0.3635,-0.3778,-0.3905,-0.3905,-0.4011,0.0,0.0,0.0,0.0,0.0,0.0,0.0,0.0,0.0,0.0,0.0,0.0,0.0,0.0,-0.597,-0.5919,-0.5916,-0.5916,-0.5874,-0.5784,-0.5872,-0.5825,-0.5586,-0.5737,-0.5733,-0.5584,-0.5586,-0.5536,0.0,0.0,0.0,0.0,-0.5382,-0.5382,-0.5382,-0.5382,-0.5382,-0.5371,-0.5225,-0.519,-0.5164,-0.5037,-0.5025,-0.4988,-0.5077,-0.5106,-0.5141,-0.5324,-0.5316,-0.5209,-0.5353,-0.538,-0.538,-0.538,-0.5914,-0.6676,-0.772,-0.8587,-0.9308,-1.004,-1.0212,-1.0106,-0.9697,-0.9579,-0.9579,-0.9579,-0.9579,-0.9579,-0.9579,-0.9579,-0.9965,-1.1077,-1.0942,-1.1148,-1.2188,-1.2722,-1.333,-1.4024,-1.4088,-1.4088,-1.4088,-1.4088,-1.4088,-1.4088,-1.4088,-1.4088,-1.4088,-1.413,-1.4538,-1.5394,-1.5436,-1.5884,-1.6731,-1.7594,-1.8487,-0.2306,-0.1909,-0.1534,-0.1278,-0.1394,-0.1668,-0.2276,-0.2576,-0.2856,-0.3465,-0.3641,-0.3679,-0.3723,-0.3725,-0.3827,-0.4235,-0.4197,0.0,0.0,0.0,0.0,0.0,0.0,0.0,0.0,0.0,0.0,0.0,0.0,0.0,0.0,-0.5908,-0.5853,-0.5914,-0.5857,-0.5841,-0.5874,-0.5778,-0.5643,-0.5584,-0.561,-0.5549,-0.5409,-0.466,0.0,0.0,0.0,0.0,0.0,-0.5382,-0.5382,-0.5375,-0.5312,-0.5288,-0.5277,-0.5184,-0.5151,-0.5135,-0.5014,-0.5023,-0.4986,-0.5079,-0.5108,-0.5143,-0.5326,-0.5361,-0.5345,-0.5373,-0.5382,-0.5382,-0.5382,-0.6024,-0.6667,-0.7033,-0.8156,-0.9144,-0.9245,-0.9645,-0.9904,-0.9673,-0.9579,-0.9579,-0.9579,-0.9579,-0.9579,-0.9579,-0.9579,-0.9723,-1.0064,-1.0635,-1.1067,-1.121,-1.1861,-1.2618,-1.3293,-1.3805,-1.4088,-1.4088,-1.4088,-1.4088,-1.4088,-1.4088,-1.4088,-1.4088,-1.4088,-1.425,-1.4496,-1.511,-1.5842,-1.6698,-1.6984,-1.7269,0.0,-0.296,-0.2498,-0.2371,-0.2221,0.0,0.0,-0.3183,-0.3218,-0.3823,-0.3749,-0.3632,-0.3704,-0.366,-0.3734,-0.4109,-0.4088,0.0,0.0,0.0,0.0,0.0,0.0,0.0,0.0,0.0,0.0,0.0,0.0,0.0,0.0,-0.5861,-0.5806,-0.5863,-0.5776,-0.5757,-0.5812,-0.5641,-0.5333,-0.4891,-0.4843,-0.4552,-0.4035,-0.3282,0.0,0.0,0.0,0.0,0.0,-0.4426,-0.4313,-0.4641,-0.4121,-0.4148,-0.4517,-0.4464,-0.474,-0.5043,-0.4951,-0.492,-0.4934,-0.5026,-0.4943,-0.4801,-0.4962,-0.5186,-0.5382,-0.5382,-0.5382,-0.5382,-0.5382,-0.5826,-0.626,-0.6606,-0.7414,-0.827,-0.8696,-0.9138,-0.9478,-0.9561,-0.9579,-0.9579,-0.9579,-0.9579,-0.9579,-0.9579,-0.9579,-0.9579,-0.9579,-1.0109,-1.0351,-1.0184,-1.0721,-1.1314,-1.1716,-1.2817,-1.3652,-1.4088,-1.3997,-1.3997,-1.4088,-1.4088,-1.4088,-1.4088,-1.4088,-1.4088,-1.4088,-1.4664,-1.5311,-1.6075,-1.6075,-1.6198,0.0,-0.4034,0.0,0.0,0.0,0.0,0.0,-0.4065,0.0,-0.4436,-0.4104,-0.3727,-0.3772,-0.3733,-0.3739,-0.382,-0.3908,0.0,0.0,0.0,0.0,0.0,0.0,0.0,0.0,0.0,0.0,0.0,0.0,0.0,0.0,-0.5821,-0.5767,-0.5761,-0.5671,-0.5572,-0.5584,-0.552,-0.4891,-0.3672,-0.3609,-0.2954,-0.1791,-0.1735,0.0,0.0,0.0,0.0,0.0,-0.2799,-0.2517,-0.3344,-0.2302,-0.2502,-0.33,-0.325,-0.388,-0.4743,-0.4719,-0.4638,-0.4647,-0.484,-0.461,-0.4251,-0.4308,-0.4808,-0.5324,-0.5373,-0.5375,-0.5382,-0.5382,-0.5382,-0.5582,-0.6364,-0.6544,-0.6955,-0.8271,-0.8554,-0.8751,-0.9409,-0.9525,-0.9529,-0.9579,-0.9579,-0.9579,-0.9579,-0.9579,-0.9579,-0.9529,-0.9331,-0.9183,-0.9183,-0.9446,-0.9643,-0.9689,-1.1331,-1.2833,-1.387,-1.3779,-1.3822,-1.4046,-1.4088,-1.4088,-1.4088,-1.4088,-1.4088,-1.4088,-1.4088,-1.4363,-1.4914,-1.488,-1.524,-0.6007,0.0,-0.4916,-0.483,-0.4747,-0.4774,0.0,-0.5001,-0.4952,-0.5089,0.0,-0.5003,-0.5375,-0.5154,-0.5172,-0.5995,-0.5348,0.0,0.0,0.0,0.0,0.0,0.0,0.0,0.0,0.0,0.0,0.0,0.0,0.0,0.0,-0.5727,-0.5643,-0.5573,-0.5488,-0.5508,-0.5584,-0.4645,-0.3973,-0.367,-0.2719,-0.2079,-0.1791,-0.084,0.0,0.0,0.0,0.0,-0.2687,-0.3022,-0.2776,-0.2302,-0.2855,-0.2706,-0.2093,-0.2024,-0.2206,-0.2489,-0.3282,-0.3314,-0.3034,-0.3604,-0.3733,-0.3756,-0.4239,-0.4531,-0.4804,-0.5129,-0.5328,-0.5382,-0.5382,-0.5382,-0.5431,-0.5631,-0.6053,-0.6449,-0.6813,-0.722,-0.7775,-0.8538,-0.868,-0.8882,-0.948,-0.9579,-0.9529,-0.9335,-0.9286,-0.9232,-0.9027,-0.8928,-0.8878,-0.8878,-0.8888,-0.9144,-0.9793,-1.1248,-1.2229,-1.2485,-1.3264,-1.3737,-1.3779,-1.3997,-1.4088,-1.4088,-1.4088,-1.4088,-1.4088,-1.3913,-1.3864,-1.4019,-1.3851,-1.3844,-0.6778,-0.6323,-0.5916,-0.5927,-0.5714,-0.5621,-0.6156,0.0,0.0,0.0,0.0,0.0,0.0,0.0,0.0,0.0,0.0,0.0,0.0,0.0,0.0,0.0,0.0,0.0,0.0,0.0,0.0,0.0,0.0,0.0,0.0,-0.5631,-0.5559,-0.5508,-0.4877,-0.4596,-0.4655,-0.3987,-0.312,-0.1986,-0.1294,-0.0672,-0.0112,0.0504,0.0168,0.0,0.0,0.0,-0.1791,-0.1332,-0.1046,-0.098,-0.1062,-0.1045,-0.0931,-0.0872,-0.1117,-0.1564,-0.2498,-0.2797,-0.2784,-0.2937,-0.3182,-0.3429,-0.349,-0.3769,-0.4207,-0.5033,-0.5343,-0.5382,-0.5382,-0.5382,-0.5361,-0.5275,-0.55,-0.5819,-0.6086,-0.6428,-0.6836,-0.7378,-0.7882,-0.8283,-0.8474,-0.8924,-0.9179,-0.9031,-0.9031,-0.8977,-0.8825,-0.8676,-0.8627,-0.8627,-0.8391,-0.8438,-0.8908,-0.9922,-1.0772,-1.139,-1.1894,-1.2351,-1.2918,-1.3045,-1.3355,-1.3779,-1.3786,-1.3786,-1.3786,-1.361,-1.3519,-1.3434,-1.3307,-1.3179,-0.7101,-0.6894,-0.669,-0.6754,-0.6344,-0.6157,-0.7138,0.0,0.0,0.0,0.0,0.0,0.0,0.0,0.0,0.0,0.0,0.0,0.0,0.0,0.0,0.0,0.0,0.0,0.0,0.0,0.0,0.0,0.0,0.0,0.0,-0.5537,-0.5425,-0.5238,-0.4142,-0.3392,-0.3053,-0.3053,-0.2055,0.0,0.0167,0.0779,0.1781,0.1786,0.1227,0.0,0.0,0.0,-0.111,0.0766,0.1033,0.0379,0.1155,0.0984,0.0361,0.0356,-0.0101,-0.0755,-0.1663,-0.2371,-0.2833,-0.2467,-0.269,-0.2964,-0.2649,-0.2907,-0.3606,-0.4793,-0.5102,-0.5156,-0.5212,-0.5212,-0.506,-0.4899,-0.4851,-0.4956,-0.5503,-0.5601,-0.5687,-0.6027,-0.698,-0.7584,-0.7273,-0.8074,-0.8775,-0.8726,-0.8726,-0.8726,-0.8676,-0.8482,-0.8333,-0.8333,-0.8021,-0.7845,-0.7845,-0.8333,-0.9154,-1.0284,-1.0338,-1.0745,-1.1752,-1.1929,-1.2357,-1.3179,-1.3307,-1.3398,-1.3398,-1.3355,-1.3264,-1.3094,-1.3052,-1.2924,-0.7031,-0.7058,-0.7036,-0.7047,-0.6972,-0.6916,-0.7111,0.0,0.0,0.0,0.0,0.0,0.0,0.0,0.0,0.0,0.0,0.0,0.0,0.0,0.0,0.0,0.0,0.0,0.0,0.0,0.0,0.0,0.0,0.0,0.0,0.0,-0.4972,-0.3905,-0.3669,-0.2567,-0.0644,-0.0644,-0.0429,-0.0054,0.0966,0.1557,0.1719,0.1799,0.1688,0.0,0.0,0.1578,0.1126,0.0481,0.0795,0.1671,0.0571,0.0924,0.2028,0.185,0.1788,0.1663,0.0404,-0.0656,-0.1513,-0.1672,-0.1846,-0.2031,-0.2438,-0.2669,-0.2908,-0.3667,-0.3867,-0.3979,-0.448,-0.4258,-0.3848,-0.3772,-0.3711,-0.3704,-0.3782,-0.3721,-0.3831,-0.458,-0.5579,-0.6478,-0.7074,-0.8074,-0.8726,-0.8482,-0.8482,-0.8382,-0.8137,-0.8088,-0.8038,-0.8038,-0.8018,-0.7955,-0.7955,-0.7938,-0.8027,-0.8262,-0.9561,-1.0443,-1.0788,-1.1574,-1.2057,-1.2229,-1.3009,-1.3398,-1.3398,-1.3228,-1.3137,-1.3094,-1.2881,-1.2747,-0.6832,-0.6805,-0.6812,-0.7214,-0.7296,-0.7256,-0.7256,-0.7182,0.0,0.0,0.0,0.0,0.0,0.0,0.0,0.0,0.0,0.0,0.0,0.0,0.0,0.0,0.0,0.0,0.0,0.0,0.0,0.0,0.0,0.0,0.0,0.0,-0.4127,-0.3553,-0.2329,-0.1154,-0.0105,0.052,0.0836,0.0905,0.1438,0.1704,0.1705,0.1718,0.1718,0.1705,0.0,0.1824,0.1862,0.1317,0.1567,0.2227,0.1538,0.1727,0.2424,0.2445,0.2287,0.1916,0.1413,0.0353,-0.0808,-0.0909,-0.1483,-0.2132,-0.2097,-0.2328,-0.2624,-0.2967,-0.3319,-0.36,-0.3913,-0.3785,-0.3523,-0.3462,-0.3401,-0.3393,-0.3333,-0.3249,-0.3229,-0.3325,-0.4176,-0.4926,-0.5024,-0.6426,-0.7481,-0.7335,-0.7836,-0.8137,-0.8041,-0.7988,-0.7988,-0.7988,-0.7988,-0.7988,-0.7988,-0.7899,-0.7743,-0.7584,-0.8771,-0.9469,-0.9453,-1.0361,-1.088,-1.088,-1.1794,-1.2272,-1.2272,-1.2662,-1.2875,-1.2875,-1.2747,-1.2705,-0.6882,-0.6698,-0.6587,-0.7343,0.0,-0.7438,-0.7531,-0.7439,0.0,0.0,0.0,0.0,0.0,0.0,0.0,0.0,0.0,0.0,0.0,0.0,0.0,0.0,0.0,0.0,0.0,0.0,0.0,0.0,0.0,0.0,0.0,0.0,-0.2961,-0.2697,-0.0987,0.0051,0.0309,0.117,0.1639,0.1684,0.1684,0.1684,0.1684,0.1691,0.1743,0.179,0.1796,0.1954,0.2154,0.2176,0.2319,0.2573,0.2385,0.2321,0.2422,0.2775,0.2522,0.1967,0.2017,0.1059,-0.0151,-0.0353,-0.1278,-0.2231,-0.1818,-0.1998,-0.2298,-0.2383,-0.2725,-0.3126,-0.3349,-0.3221,-0.3066,-0.3012,-0.3011,-0.2958,-0.2857,-0.2837,-0.2726,-0.227,-0.3074,-0.3674,-0.3274,-0.4778,-0.6134,-0.6384,-0.7086,-0.7739,-0.7988,-0.7988,-0.7988,-0.7988,-0.7988,-0.7975,-0.7938,-0.7913,-0.774,-0.7444,-0.8027,-0.8325,-0.8197,-0.9061,-0.9575,-0.9575,-1.0491,-1.0971,-1.0971,-1.1703,-1.2137,-1.2357,-1.2357,-1.2491,-0.7573,-0.7074,-0.6589,-0.7386,-0.7552,0.0,-0.7969,-0.8024,0.0,-0.8282,0.0,0.0,0.0,0.0,0.0,0.0,0.0,0.0,0.0,0.0,0.0,0.0,0.0,0.0,0.0,0.0,0.0,0.0,0.0,0.0,0.0,0.0,0.0,-0.0363,-0.0102,0.0455,0.1468,0.1567,0.1619,0.1623,0.1623,0.1623,0.1624,0.1652,0.1805,0.198,0.2063,0.2213,0.238,0.2377,0.2528,0.273,0.2224,0.2171,0.2472,0.2977,0.313,0.2977,0.2269,0.1412,0.0605,-0.0151,-0.1023,-0.1766,-0.1714,-0.1734,-0.1758,-0.176,-0.1836,-0.2031,-0.2625,-0.2354,-0.1895,-0.1918,-0.1885,-0.1799,-0.1821,-0.1739,-0.1718,-0.1667,-0.2521,-0.3224,-0.3224,-0.4175,-0.5277,-0.6234,-0.6487,-0.6886,-0.7889,-0.7988,-0.7988,-0.7988,-0.7988,-0.7931,-0.7838,-0.7897,-0.7847,-0.76,-0.7357,-0.7194,-0.7183,-0.8105,-0.8584,-0.8584,-0.9536,-1.0009,-1.0009,-1.0053,-1.0534,-1.1408,-1.1408,-1.1886,-0.7019,-0.673,-0.6558,-0.7206,-0.7876,0.0,0.0,-0.8068,-0.8339,-0.854,-0.8686,0.0,0.0,0.0,0.0,0.0,0.0,0.0,0.0,0.0,0.0,0.0,0.0,0.0,0.0,0.0,0.0,0.0,0.0,0.0,0.0,0.0,0.0,-0.0051,0.0658,0.1212,0.1617,0.1617,0.1617,0.1617,0.1617,0.1667,0.187,0.1884,0.2034,0.2272,0.2288,0.2437,0.2674,0.2674,0.2826,0.3029,0.2827,0.2827,0.2927,0.313,0.318,0.318,0.2876,0.2219,0.1513,0.1211,0.0204,-0.088,-0.0871,-0.1293,-0.1678,-0.1678,-0.1699,-0.1783,-0.2089,-0.1988,-0.1814,-0.1729,-0.1699,-0.167,-0.164,-0.1625,-0.1617,-0.1617,-0.1919,-0.222,-0.222,-0.3073,-0.4175,-0.5227,-0.5982,-0.6786,-0.7839,-0.7988,-0.7988,-0.7988,-0.7988,-0.7968,-0.7911,-0.7919,-0.7848,-0.774,-0.7621,-0.7475,-0.7292,-0.7642,-0.7771,-0.7625,-0.8536,-0.9017,-0.9017,-0.9618,-1.0096,-1.0448,-1.0448,-1.0621,-0.6581,-0.6446,-0.6459,-0.6968,0.0,0.0,-0.8114,-0.8351,-0.8695,-0.8802,-0.8999,0.0,0.0,0.0,0.0,0.0,0.0,0.0,0.0,0.0,0.0,0.0,0.0,0.0,0.0,0.0,0.0,0.0,0.0,0.0,0.0,0.0,0.0,0.0,0.1212,0.1617,0.1617,0.1617,0.1617,0.1617,0.1667,0.1819,0.2022,0.2022,0.2171,0.2522,0.2522,0.2674,0.2927,0.2927,0.2977,0.3079,0.318,0.313,0.3079,0.318,0.318,0.318,0.318,0.2674,0.2017,0.2017,0.1068,-0.0051,-0.0304,-0.0818,-0.1348,-0.1599,-0.1675,-0.1707,-0.1773,-0.179,-0.1799,-0.1723,-0.169,-0.1708,-0.1636,-0.1624,-0.1617,-0.1617,-0.1617,-0.1617,-0.1617,-0.222,-0.3074,-0.4124,-0.4929,-0.5882,-0.7338,-0.7487,-0.764,-0.7988,-0.7988,-0.7971,-0.7921,-0.7916,-0.7862,-0.7814,-0.7858,-0.7729,-0.7433,-0.7415,-0.7299,-0.7098,-0.7709,-0.8061,-0.8061,-0.8707,-0.9187,-0.9449,-0.9449,-0.9618,-0.65,-0.6299,-0.6335,0.0,0.0,0.0,-0.8627,-0.9013,-0.9257,-0.9125,0.0,0.0,0.0,0.0,0.0,0.0,0.0,0.0,0.0,0.0,0.0,0.0,0.0,0.0,0.0,0.0,0.0,0.0,0.0,0.0,0.0,0.0,0.0,0.0,0.1617,0.1617,0.1617,0.1617,0.1617,0.1617,0.1869,0.2022,0.2022,0.2022,0.2323,0.2826,0.2826,0.2977,0.318,0.318,0.3029,0.2826,0.3079,0.3029,0.2826,0.3079,0.318,0.318,0.318,0.2674,0.2017,0.2017,0.1462,0.0655,-0.0151,-0.0409,-0.0568,-0.1371,-0.1658,-0.1697,-0.1721,-0.1759,-0.1804,-0.1804,-0.1758,-0.1714,-0.1714,-0.1638,-0.1617,-0.1617,-0.1617,-0.1617,-0.1617,-0.1617,-0.1969,-0.3022,-0.3224,-0.3976,-0.6134,-0.6387,-0.6786,-0.7839,-0.7988,-0.7928,-0.7779,-0.7901,-0.7924,-0.7824,-0.7907,-0.7838,-0.7439,-0.7419,-0.7299,-0.7098,-0.7095,-0.7095,-0.7095,-0.7095,-0.758,-0.85,-0.85,-0.8973,-0.677,-0.6791,0.0,0.0,0.0,0.0,0.0,-0.8982,0.0,0.0,0.0,0.0,0.0,0.0,0.0,0.0,0.0,0.0,0.0,0.0,0.0,0.0,0.0,0.0,0.0,0.0,0.0,0.0,0.0,0.0,0.0,0.0,0.0,0.0,0.1617,0.1617,0.1617,0.1617,0.1718,0.187,0.1971,0.2122,0.2271,0.2473,0.2777,0.3079,0.3079,0.313,0.318,0.318,0.313,0.3079,0.318,0.313,0.3079,0.318,0.318,0.318,0.318,0.3029,0.2826,0.2826,0.232,0.1613,0.1361,0.0506,-0.0458,-0.0708,-0.1233,-0.1725,-0.1717,-0.1728,-0.1741,-0.1741,-0.1727,-0.1708,-0.1635,-0.1623,-0.1617,-0.1617,-0.1617,-0.1617,-0.1617,-0.1617,-0.1969,-0.3022,-0.3224,-0.3725,-0.5077,-0.5277,-0.5377,-0.5727,-0.6431,-0.6872,-0.6834,-0.7564,-0.7971,-0.7924,-0.7965,-0.7885,-0.7546,-0.7533,-0.7411,-0.7102,-0.7095,-0.7095,-0.7095,-0.7095,-0.7228,-0.7533,-0.7533,-0.7665,-0.6191,0.0,0.0,0.0,0.0,0.0,0.0,0.0,0.0,0.0,0.0,0.0,0.0,0.0,0.0,0.0,0.0,0.0,0.0,0.0,0.0,0.0,0.0,0.0,0.0,0.0,0.0,0.0,0.0,0.0,0.0,0.0,0.0,0.0,0.1718,0.1762,0.1699,0.1861,0.1962,0.2098,0.2265,0.2424,0.2573,0.2725,0.2927,0.318,0.318,0.318,0.318,0.318,0.318,0.318,0.318,0.318,0.318,0.318,0.318,0.318,0.318,0.318,0.318,0.318,0.2876,0.2422,0.2118,0.1312,0.0404,-0.0202,-0.0764,-0.1233,-0.1593,-0.1644,-0.1647,-0.1712,-0.1705,-0.1639,-0.1621,-0.1617,-0.1617,-0.1617,-0.1617,-0.1617,-0.1617,-0.1617,-0.1818,-0.2471,-0.2923,-0.3423,-0.4074,-0.4524,-0.4824,-0.4824,-0.5377,-0.5779,-0.5779,-0.6734,-0.7388,-0.7388,-0.7733,-0.7845,-0.7611,-0.76,-0.7482,-0.7238,-0.7129,-0.7095,-0.7095,-0.7095,-0.7095,-0.7095,-0.7095,-0.7095,-0.5319,0.0,0.0,0.0,0.0,0.0,0.0,0.0,0.0,0.0,0.0,0.0,0.0,0.0,0.0,0.0,0.0,0.0,0.0,0.0,0.0,0.0,0.0,0.0,0.0,0.0,0.0,0.0,0.0,0.0,0.0,0.0,0.0,0.1662,0.1912,0.1994,0.1911,0.2244,0.2394,0.0,0.265,0.2826,0.2826,0.2826,0.2977,0.318,0.318,0.318,0.318,0.318,0.318,0.318,0.318,0.318,0.318,0.318,0.318,0.318,0.318,0.318,0.318,0.318,0.318,0.3079,0.232,0.2068,0.1715,0.0252,-0.0303,-0.0556,-0.1313,-0.1566,-0.1624,-0.1652,-0.1637,-0.1617,-0.1617,-0.1617,-0.1617,-0.1617,-0.1617,-0.1617,-0.1617,-0.1617,-0.1617,-0.1617,-0.2422,-0.3074,-0.3074,-0.3924,-0.4524,-0.4524,-0.4574,-0.4674,-0.4674,-0.5629,-0.6234,-0.6234,-0.7058,-0.751,-0.7483,-0.7547,-0.7506,-0.7353,-0.721,-0.7095,-0.7095,-0.7095,-0.7095,-0.7095,-0.7095,-0.7095,0.0,-0.6691,0.0,0.0,0.0,0.0,0.0,0.0,0.0,0.0,0.0,0.0,0.0,0.0,0.0,0.0,0.0,0.0,0.0,0.0,0.0,0.0,0.0,0.0,0.0,0.0,0.0,0.0,0.0,0.0,0.0,0.0,0.0,0.2122,0.2142,0.217,0.2112,0.2249,0.2412,0.0,0.275,0.2927,0.313,0.313,0.313,0.318,0.318,0.318,0.318,0.318,0.318,0.318,0.318,0.318,0.318,0.318,0.318,0.318,0.318,0.318,0.318,0.318,0.318,0.318,0.2977,0.2522,0.1916,0.1564,0.0555,-0.0455,-0.0606,-0.1111,-0.1619,-0.1625,-0.1622,-0.1617,-0.1617,-0.1617,-0.1617,-0.1617,-0.1617,-0.1617,-0.1617,-0.1617,-0.1617,-0.1617,-0.1818,-0.1969,-0.1969,-0.217,-0.227,-0.227,-0.3022,-0.3524,-0.3524,-0.4526,-0.5127,-0.5127,-0.533,-0.5751,-0.6461,-0.7119,-0.7346,-0.7149,-0.7112,-0.7095,-0.7095,-0.7095,-0.7095,-0.7095,-0.7095,-0.7095,0.0,0.0,0.0,0.0,0.0,0.0,0.0,0.0,0.0,0.0,0.0,0.0,0.0,0.0,0.0,0.0,0.0,0.0,0.0,0.0,0.0,0.0,0.0,0.0,0.0,0.0,0.0,0.0,0.0,0.0,0.0,0.2074,0.2119,0.2303,0.238,0.2406,0.2384,0.2599,0.2771,0.2894,0.2951,0.3079,0.318,0.318,0.3164,0.3138,0.3168,0.318,0.318,0.318,0.318,0.318,0.318,0.318,0.318,0.318,0.318,0.318,0.318,0.318,0.318,0.318,0.318,0.318,0.318,0.2927,0.2472,0.2118,0.1412,0.0656,0.0252,-0.0404,-0.101,-0.101,-0.1314,-0.1617,-0.1617,-0.1617,-0.1617,-0.1617,-0.1617,-0.1617,-0.1617,-0.1617,-0.1617,-0.1617,-0.1617,-0.1617,-0.1617,-0.1617,-0.1617,-0.1617,-0.212,-0.2422,-0.2422,-0.3423,-0.4024,-0.4024,-0.4447,-0.4937,-0.5426,-0.5795,-0.6388,-0.721,-0.7132,-0.7095,-0.7095,-0.7095,-0.7095,-0.7095,-0.7095,-0.7095,0.0,0.0,0.0,0.0,0.0,0.0,0.0,0.0,0.0,0.0,0.0,0.0,0.0,0.0,0.0,0.0,0.0,0.0,0.0,0.0,0.0,0.0,0.0,0.0,0.0,0.0,0.0,0.0,0.0,0.0,0.2209,0.23,0.2299,0.2414,0.2609,0.2685,0.2641,0.2982,0.3158,0.3061,0.3169,0.3194,0.3184,0.3194,0.3183,0.3109,0.3158,0.318,0.318,0.318,0.318,0.318,0.318,0.318,0.318,0.318,0.318,0.318,0.318,0.318,0.318,0.318,0.318,0.318,0.318,0.318,0.3079,0.2371,0.2118,0.1865,0.1159,0.0303,-0.0404,-0.0404,-0.101,-0.1617,-0.1617,-0.1617,-0.1617,-0.1617,-0.1617,-0.1617,-0.1617,-0.1617,-0.1617,-0.1617,-0.1617,-0.1617,-0.1617,-0.1617,-0.1617,-0.1617,-0.1617,-0.1617,-0.1617,-0.2422,-0.2923,-0.2923,-0.3651,-0.4145,-0.4306,-0.4212,-0.5015,-0.6819,-0.67,-0.6627,-0.6605,-0.6605,-0.6694,-0.6874,-0.6694,-0.6782,0.0,0.0,0.0,0.0,0.0,0.0,0.0,0.0,0.0,0.0,0.0,0.0,0.0,0.0,0.0,0.0,0.0,0.0,0.0,0.0,0.0,0.0,0.0,0.0,0.0,0.0,0.0,0.0,0.0,0.0,0.2301,0.2505,0.2625,0.2819,0.2863,0.2859,0.2851,0.2962,0.3037,0.303,0.3091,0.3093,0.3043,0.3097,0.3127,0.3168,0.3177,0.318,0.318,0.318,0.318,0.318,0.318,0.318,0.318,0.318,0.318,0.318,0.318,0.318,0.318,0.318,0.318,0.318,0.318,0.318,0.318,0.3079,0.2522,0.1967,0.1865,0.0706,-0.0404,-0.0404,-0.101,-0.1617,-0.1617,-0.1617,-0.1617,-0.1617,-0.1617,-0.1617,-0.1617,-0.1617,-0.1617,-0.1617,-0.1617,-0.1617,-0.1617,-0.1617,-0.1617,-0.1617,-0.1617,-0.1617,-0.1617,-0.1717,-0.1818,-0.1818,-0.1856,-0.2312,-0.3178,-0.3122,-0.361,-0.4699,-0.4686,-0.4684,-0.469,-0.469,-0.5092,-0.5852,-0.5045,-0.5536,-0.5999,0.0,0.0,0.0,0.0,0.0,0.0,0.0,0.0,0.0,0.0,0.0,0.0,0.0,0.0,0.0,0.0,0.0,0.0,0.0,0.0,0.0,0.0,0.0,0.0,0.0,0.0,0.0,0.0,0.0441,0.2035,0.2467,0.2743,0.2873,0.2885,0.2823,0.2823,0.2926,0.2972,0.3004,0.3,0.3018,0.3055,0.3048,0.3094,0.3131,0.3165,0.3149,0.318,0.318,0.318,0.318,0.318,0.318,0.318,0.318,0.318,0.318,0.318,0.318,0.318,0.318,0.318,0.318,0.318,0.318,0.318,0.318,0.2927,0.2674,0.2674,0.1816,0.0958,0.0958,0.0,-0.0909,-0.0909,-0.1263,-0.1617,-0.1617,-0.1617,-0.1617,-0.1617,-0.1617,-0.1617,-0.1617,-0.1617,-0.1617,-0.1617,-0.1617,-0.1617,-0.1617,-0.1617,-0.1617,-0.1617,-0.1617,-0.1617,-0.1617,-0.1592,-0.173,-0.2192,-0.2207,-0.2357,-0.2725,-0.3757,-0.4288,-0.4289,-0.4289,-0.4512,-0.4914,-0.4512,-0.4732,0.0,0.0,0.0,0.0,0.0,0.0,0.0,0.0,0.0,0.0,0.0,0.0,0.0,0.0,0.0,0.0,0.0,0.0,0.0,0.0,0.0,0.0,0.0,0.0,0.0,0.0,0.0,0.0,0.0,0.0601,0.1996,0.2469,0.2726,0.2803,0.2775,0.276,0.276,0.2805,0.2902,0.2958,0.2917,0.295,0.305,0.3004,0.3015,0.3077,0.3106,0.3116,0.3158,0.3173,0.318,0.318,0.318,0.318,0.318,0.318,0.318,0.318,0.318,0.318,0.318,0.318,0.318,0.318,0.318,0.318,0.318,0.318,0.318,0.318,0.318,0.2623,0.2017,0.2017,0.0908,-0.0202,-0.0606,-0.1162,-0.1617,-0.1617,-0.1617,-0.1617,-0.1617,-0.1617,-0.1617,-0.1617,-0.1617,-0.1617,-0.1617,-0.1617,-0.1617,-0.1617,-0.1516,-0.1516,-0.1516,-0.1415,-0.1415,-0.1415,-0.1408,-0.1408,-0.1414,-0.1408,-0.1383,-0.1336,-0.2718,-0.3441,-0.3576,-0.3576,-0.371,-0.3933,-0.3666,-0.3844,0.0,0.0,0.0,0.0,0.0,0.0,0.0,0.0,0.0,0.0,0.0,0.0,0.0,0.0,0.0,0.0,0.0,0.0,0.0,0.0,0.0,0.0,0.0,0.0,0.0,0.0,0.0,0.0,0.0,0.1171,0.2413,0.2632,0.2669,0.2617,0.2669,0.2698,0.2698,0.27,0.2732,0.2792,0.2789,0.2822,0.2928,0.2925,0.2954,0.3015,0.3087,0.3093,0.3099,0.3157,0.318,0.318,0.318,0.318,0.318,0.318,0.318,0.318,0.318,0.318,0.318,0.318,0.318,0.318,0.318,0.318,0.318,0.318,0.318,0.318,0.318,0.2623,0.2017,0.2017,0.1361,0.0303,-0.1212,-0.1566,-0.1617,-0.1617,-0.1617,-0.1617,-0.1617,-0.1617,-0.1617,-0.1617,-0.1617,-0.1617,-0.1617,-0.1617,-0.1617,-0.1617,-0.1364,-0.1212,-0.1212,-0.101,-0.0859,-0.0859,-0.0844,-0.0843,-0.0858,-0.0844,-0.0828,-0.0859,-0.0952,-0.1167,-0.1569,-0.1569,-0.2061,-0.2956,-0.2016,-0.2551,0.0,0.0,0.0,0.0,0.0,0.0,0.0,0.0,0.0,0.0,0.0,0.0,0.0,0.0,0.0,0.0,0.0,0.0,0.0,0.0,0.0,0.0,0.0,0.0,0.0,0.0,0.0,0.0,0.0,0.0,0.1322,0.213,0.2583,0.2601,0.2585,0.2575,0.2575,0.2575,0.2606,0.2668,0.2706,0.2756,0.2816,0.2816,0.2893,0.2951,0.295,0.3012,0.3086,0.3147,0.3122,0.3126,0.3165,0.318,0.318,0.318,0.318,0.318,0.318,0.318,0.318,0.318,0.318,0.318,0.318,0.318,0.318,0.318,0.318,0.318,0.318,0.2977,0.2623,0.2118,0.1765,0.1261,0.0151,-0.0454,-0.0808,-0.0808,-0.1263,-0.1617,-0.1617,-0.1617,-0.1617,-0.1617,-0.1465,-0.1364,-0.1364,-0.1212,-0.1111,-0.1111,-0.1,-0.0947,-0.0958,-0.0849,-0.0798,-0.0808,-0.0803,-0.0802,-0.0808,-0.0794,-0.0778,-0.0811,-0.0811,-0.0935,-0.1211,-0.1211,-0.148,-0.1928,-0.1569,-0.1792,0.0,0.0,0.0,0.0,0.0,0.0,0.0,0.0,0.0,0.0,0.0,0.0,0.0,0.0,0.0,0.0,0.0,0.0,0.0,0.0,0.0,0.0,0.0,0.0,0.0,0.0,0.0,0.0,0.0,0.0,0.1002,0.1938,0.2529,0.257,0.2531,0.2511,0.2511,0.2511,0.2541,0.2602,0.2643,0.2694,0.2752,0.2752,0.2786,0.2888,0.2888,0.2956,0.307,0.3083,0.3109,0.3113,0.3154,0.3183,0.315,0.315,0.3162,0.318,0.318,0.318,0.318,0.318,0.318,0.318,0.318,0.318,0.318,0.318,0.318,0.318,0.318,0.318,0.3079,0.2522,0.2422,0.232,0.1965,0.0908,-0.0101,-0.0354,-0.0808,-0.1263,-0.1415,-0.1465,-0.1415,-0.1364,-0.1162,-0.1061,-0.1061,-0.0909,-0.0808,-0.0808,-0.0699,-0.0648,-0.0656,-0.0599,-0.0548,-0.0555,-0.0556,-0.0556,-0.0556,-0.0549,-0.054,-0.053,-0.053,-0.0663,-0.087,-0.1008,-0.1237,-0.142,-0.142,-0.1414,0.0,0.0,0.0,0.0,0.0,0.0,0.0,0.0,0.0,0.0,0.0,0.0,0.0,0.0,0.0,0.0,0.0,0.0,0.0,0.0,0.0,0.0,0.0,0.0,0.0,0.0,0.0,0.0,0.0,0.0903,0.1528,0.2156,0.2511,0.2511,0.2511,0.2511,0.2511,0.2511,0.254,0.2598,0.2601,0.2632,0.2689,0.2692,0.2725,0.2781,0.2782,0.2892,0.3001,0.3066,0.3094,0.3094,0.3095,0.3086,0.3087,0.309,0.3128,0.3179,0.318,0.318,0.318,0.318,0.318,0.318,0.318,0.318,0.318,0.318,0.318,0.318,0.318,0.318,0.318,0.323,0.323,0.3381,0.3932,0.2368,0.0655,-0.0101,-0.0303,-0.0505,-0.101,-0.1111,-0.1061,-0.0808,-0.0758,-0.0808,-0.0808,-0.0757,-0.0757,-0.0757,-0.0555,-0.0403,-0.0404,-0.0151,0.0,0.0,0.0,0.0,0.0,0.0,0.0,0.0,0.0,-0.0146,-0.0382,-0.0858,-0.124,-0.1478,-0.1477,-0.1462,-0.5731,0.0,0.0,0.0,0.0,0.0,0.0,0.0,0.0,0.0,0.0,0.0,0.0,0.0,0.0,0.0,0.0,0.0,0.0,0.0,0.0,0.0,0.0,0.0,0.0,0.0,0.0,0.0,0.0,0.0667,0.0863,0.1922,0.2511,0.2511,0.2511,0.2511,0.2511,0.2511,0.2519,0.2537,0.258,0.261,0.2628,0.2672,0.2702,0.2719,0.2764,0.2777,0.2777,0.2969,0.303,0.3034,0.3079,0.3108,0.3079,0.3124,0.3101,0.3121,0.3165,0.318,0.318,0.318,0.318,0.318,0.318,0.318,0.318,0.318,0.318,0.318,0.318,0.318,0.3281,0.3682,0.3783,0.3932,0.4483,0.413,0.3473,0.2667,0.2014,0.1562,0.1411,0.0756,0.0252,0.0353,-0.0151,-0.0505,-0.0505,-0.0349,-0.0198,-0.0198,-0.0145,-0.0096,-0.0099,-0.0049,0.0,0.0,0.0,0.0,0.0,0.0,0.0,0.0,0.0,-0.0147,-0.039,-0.0528,-0.0715,-0.0905,-0.0939,-0.0938,0.0,0.0,0.0,0.0,0.0,0.0,0.0,-0.4495,0.0,0.0,0.0,0.0,0.0,0.0,0.0,0.0,0.0,0.0,0.0,0.0,0.0,0.0,0.0,0.0,0.0,0.0,0.0,-0.0904,0.0039,0.0825,0.1373,0.2079,0.2511,0.2511,0.2511,0.2511,0.2511,0.2511,0.2511,0.2511,0.2546,0.2564,0.2564,0.26,0.2629,0.2657,0.2692,0.2715,0.2738,0.2886,0.2931,0.2936,0.2998,0.3037,0.3065,0.3079,0.3119,0.3099,0.316,0.318,0.3176,0.3152,0.316,0.3176,0.315,0.316,0.318,0.318,0.3381,0.3531,0.3531,0.3682,0.3932,0.4284,0.4334,0.4483,0.5035,0.5135,0.4832,0.3822,0.3218,0.2818,0.2618,0.2064,0.1662,0.1763,0.1411,0.1109,0.1109,0.1248,0.134,0.134,0.1313,0.1355,0.1337,0.0933,0.069,0.0655,0.0252,0.0,0.0,0.0,0.0199,0.0645,0.0645,0.0794,0.1091,0.0098,-0.0537,-0.0732,-0.0718,-0.0764,0.0,0.0,0.0,0.0,0.0,0.0,-0.4379,-0.3798,0.0,0.0,0.0,0.0,0.0,0.0,0.0,0.0,0.0,0.0,0.0,0.0,0.0,0.0,0.0,0.0,0.0,-0.1211,-0.0939,-0.0352,0.0314,0.1216,0.2431,0.2511,0.2511,0.2511,0.2511,0.2511,0.2511,0.2511,0.2511,0.2511,0.2511,0.2511,0.2511,0.2563,0.2636,0.2683,0.2745,0.281,0.286,0.2918,0.2924,0.2798,0.2897,0.295,0.3003,0.3063,0.3074,0.3079,0.3189,0.321,0.3202,0.3098,0.3117,0.32,0.3195,0.3217,0.3261,0.3369,0.372,0.4073,0.4081,0.4433,0.4834,0.4885,0.4885,0.5035,0.5584,0.5687,0.5331,0.4123,0.3922,0.3772,0.3271,0.3122,0.3122,0.3324,0.3274,0.3224,0.3224,0.3218,0.3214,0.3214,0.3207,0.3206,0.3213,0.2311,0.1761,0.1764,0.0858,0.0353,0.0353,0.0353,0.0807,0.1765,0.1765,0.2267,0.3173,0.0807,-0.0404,-0.0555,-0.0545,-0.059,0.0,0.0,0.0,0.0,0.0,0.0,-0.5134,-0.4896,0.0,0.0,0.0,0.0,0.0,0.0,0.0,0.0,0.0,0.0,0.0,0.0,0.0,0.0,0.0,0.0,0.0,-0.0791,-0.0458,-0.0305,0.0776,0.1725,0.247,0.2511,0.2511,0.2511,0.2511,0.2511,0.2511,0.2511,0.2511,0.2511,0.2511,0.2511,0.2514,0.3017,0.3208,0.3175,0.374,0.3727,0.3308,0.382,0.3565,0.2902,0.2914,0.2926,0.2943,0.3001,0.303,0.3048,0.3111,0.3133,0.3131,0.3119,0.3123,0.3178,0.3547,0.3695,0.3766,0.4266,0.4479,0.4595,0.4616,0.4734,0.4885,0.5334,0.5436,0.5584,0.6134,0.6237,0.6184,0.5882,0.5832,0.5832,0.5732,0.4981,0.4431,0.4481,0.3778,0.3224,0.3224,0.3181,0.3199,0.3199,0.3205,0.3195,0.3195,0.3004,0.2875,0.2869,0.267,0.2569,0.2569,0.2569,0.267,0.2871,0.2871,0.2972,0.3173,0.1009,0.0353,0.1109,0.1138,0.0692,0.0,0.0,0.0,-0.581,0.0,0.0,0.0,-0.4325,0.0,0.0,0.0,0.0,0.0,0.0,0.0,0.0,0.0,0.0,0.0,0.0,0.0,0.0,0.0,0.0,0.0,-0.0225,0.0266,0.0616,0.1518,0.2195,0.247,0.2511,0.2511,0.2511,0.2511,0.2589,0.2787,0.2787,0.2902,0.3137,0.3137,0.3137,0.3178,0.3454,0.3589,0.3559,0.3936,0.3946,0.3745,0.4088,0.3993,0.3587,0.3587,0.3454,0.3284,0.3579,0.3696,0.3708,0.3784,0.381,0.3805,0.3765,0.3779,0.385,0.4045,0.4109,0.4197,0.4526,0.4779,0.503,0.5032,0.5277,0.5612,0.5908,0.5999,0.6087,0.6337,0.6387,0.6387,0.6387,0.6387,0.6387,0.6387,0.5937,0.5584,0.5584,0.5131,0.4778,0.4778,0.479,0.481,0.481,0.4818,0.481,0.4806,0.4318,0.3988,0.3976,0.3475,0.3224,0.3224,0.3224,0.3475,0.3979,0.3979,0.4279,0.4778,0.2619,0.1865,0.2418,0.2395,0.2098,0.0,0.0,0.0,0.0,0.0,-0.4416,0.0,0.0,0.0,0.0,0.0,0.0,0.0,0.0,0.0,0.0,0.0,0.0,0.0,0.0,0.0,0.0,0.0,0.0,0.0,0.0148,0.0873,0.1709,0.2112,0.2392,0.2511,0.2511,0.255,0.2628,0.2628,0.2824,0.3217,0.3219,0.3413,0.3802,0.3802,0.3802,0.3804,0.3899,0.3955,0.3978,0.4155,0.4207,0.421,0.4418,0.4408,0.43,0.43,0.4076,0.3773,0.4199,0.4364,0.4374,0.4447,0.4471,0.4459,0.4386,0.4459,0.4597,0.4522,0.46,0.4757,0.4776,0.5063,0.5445,0.5464,0.5888,0.6311,0.6287,0.6336,0.6381,0.6407,0.6371,0.6387,0.6387,0.6387,0.6387,0.6387,0.6387,0.6387,0.6387,0.6387,0.6387,0.6387,0.6387,0.6387,0.6387,0.6387,0.6387,0.6387,0.5586,0.5085,0.5085,0.4279,0.3825,0.3825,0.3825,0.4228,0.5085,0.5085,0.5536,0.6387,0.4678,0.3726,0.3525,0.3525,0.3374,0.0,0.0,0.0,0.0,-0.4779,0.0,0.0,0.0,0.0,0.0,0.0,0.0,0.0,0.0,0.0,0.0,0.0,0.0,0.0,0.0,0.0,0.0,0.0,0.0,0.0,0.0,0.1072,0.2236,0.1936,0.1921,0.247,0.2511,0.2668,0.3023,0.3023,0.3256,0.3724,0.3724,0.3763,0.3802,0.3802,0.3802,0.3804,0.4285,0.4537,0.4631,0.5117,0.5142,0.4931,0.5349,0.505,0.43,0.43,0.4253,0.421,0.431,0.4314,0.4316,0.4326,0.433,0.4328,0.4318,0.4589,0.4954,0.4942,0.522,0.557,0.5713,0.5785,0.5855,0.5962,0.6176,0.6289,0.6132,0.6274,0.6407,0.6309,0.6366,0.6387,0.6387,0.6387,0.6387,0.6387,0.6387,0.6387,0.6387,0.6387,0.6387,0.6387,0.6387,0.6387,0.6387,0.6387,0.6387,0.6387,0.6284,0.6234,0.6234,0.6084,0.6034,0.6034,0.6034,0.6084,0.6234,0.6234,0.6287,0.6387,0.6134,0.5534,0.4634,0.4634,0.413,0.0,0.0,0.0,0.0,0.0,0.0,0.0,0.0,-0.4066,0.0,0.0,0.0,0.0,0.0,0.0,0.0,0.0,0.0,0.0,0.0,0.0,0.0,0.0,0.0,0.0,0.0,0.0,0.0,0.0,0.1869,0.2407,0.27,0.3061,0.3491,0.3491,0.3724,0.4151,0.4151,0.427,0.4506,0.4506,0.4506,0.4509,0.4713,0.4874,0.5025,0.5309,0.5344,0.5266,0.5466,0.5362,0.501,0.501,0.487,0.4743,0.5015,0.5104,0.5104,0.5104,0.5104,0.5104,0.5104,0.5238,0.5416,0.5416,0.5552,0.5699,0.5748,0.5803,0.5817,0.5869,0.5969,0.6062,0.6081,0.6214,0.6344,0.6363,0.6401,0.6387,0.6387,0.6387,0.6387,0.6387,0.6387,0.6387,0.6387,0.6387,0.6387,0.6387,0.6387,0.6387,0.6387,0.6387,0.6387,0.6387,0.6387,0.6387,0.6387,0.6387,0.6387,0.6387,0.6387,0.6387,0.6387,0.6387,0.6387,0.6387,0.6387,0.6187,0.5734,0.5734,0.5484,-0.5792,0.0,0.0,0.0,0.0,0.0,0.0,0.0,0.0,0.0,0.0,0.0,0.0,0.0,0.0,0.0,0.0,0.0,0.0,0.0,0.0,0.0,0.0,0.0,0.0,0.0,0.0,0.1321,0.1309,0.1607,0.2351,0.272,0.3221,0.3954,0.3958,0.4153,0.4543,0.4582,0.4701,0.5018,0.5018,0.5018,0.5018,0.5018,0.508,0.5192,0.5322,0.5358,0.5426,0.5472,0.5526,0.5559,0.5559,0.5388,0.5235,0.5552,0.5688,0.5688,0.5688,0.5688,0.5688,0.5688,0.5688,0.5688,0.5688,0.5688,0.5688,0.5688,0.5688,0.5688,0.5688,0.5817,0.5926,0.6013,0.6154,0.629,0.6372,0.6365,0.6387,0.6387,0.6387,0.6387,0.6387,0.6387,0.6387,0.6387,0.6387,0.6376,0.6393,0.6564,0.6623,0.6393,0.6567,0.6634,0.6437,0.6387,0.6387,0.6387,0.6387,0.6387,0.6387,0.6387,0.6387,0.6387,0.6387,0.6387,0.6387,0.6387,0.6387,0.6387,0.6387,0.6387,0.0,0.0,0.0,-0.5303,0.0,0.0,0.0,0.0,-0.3771,0.0,0.0,0.0,0.0,0.0,0.0,-0.3158,0.0,0.0,0.0,0.0,0.0,0.0,0.0,0.0,0.0,0.0,0.0,0.0381,0.0263,0.0823,0.2303,0.2423,0.3031,0.4329,0.4384,0.4582,0.4979,0.4979,0.4979,0.5018,0.5018,0.5018,0.5018,0.5018,0.508,0.5186,0.5192,0.5325,0.5502,0.5505,0.5578,0.5683,0.5683,0.5686,0.5688,0.5688,0.5688,0.5688,0.5688,0.5688,0.5688,0.5688,0.5688,0.5688,0.5688,0.5688,0.5688,0.5688,0.5688,0.5688,0.5688,0.5817,0.5904,0.5909,0.6092,0.632,0.6322,0.6361,0.6387,0.6387,0.6387,0.6387,0.6387,0.6387,0.6387,0.6387,0.6387,0.6396,0.6287,0.706,0.7236,0.6382,0.706,0.7232,0.6487,0.6387,0.6387,0.6387,0.6387,0.6387,0.6387,0.6387,0.6387,0.6387,0.6387,0.6387,0.6387,0.6387,0.6387,0.6387,0.6387,0.6387,0.0,0.0,-0.5303,-0.5337,0.0,0.0,0.0,0.0,0.0,0.0,0.0,0.0,0.0,0.0,-0.357,-0.3442,-0.3491,0.0,0.0,0.0,0.0,0.0,0.0,0.0,0.0,0.0,0.0,0.034,0.0509,0.1102,0.0,0.2776,0.3506,0.4647,0.474,0.4859,0.5018,0.5018,0.5018,0.5018,0.5018,0.5018,0.5018,0.5018,0.508,0.5186,0.5186,0.5279,0.5431,0.5431,0.5502,0.557,0.557,0.5618,0.5688,0.5688,0.5994,0.6476,0.6915,0.7092,0.7092,0.7092,0.7092,0.7092,0.7092,0.7092,0.7092,0.7092,0.7092,0.7092,0.7092,0.7125,0.7213,0.7415,0.7466,0.75,0.7892,0.7864,0.7778,0.7778,0.7907,0.7914,0.7622,0.7714,0.7468,0.6523,0.6304,0.6364,0.6891,0.7317,0.7566,0.7762,0.8136,0.8234,0.7833,0.7691,0.7589,0.7589,0.7589,0.7589,0.7589,0.7589,0.7395,0.7006,0.7006,0.6802,0.6387,0.6387,0.6387,0.6387,0.6387,0.6387,-0.5512,-0.545,0.0,-0.5054,-0.4557,0.0,-0.4237,0.0,0.0,0.0,0.0,0.0,0.0,0.0,0.0,-0.3453,-0.3431,-0.3331,0.0,-0.292,0.0,0.0,0.0,0.0,0.0,0.0,-0.0774,-0.0016,0.0308,0.1039,0.0,0.0,0.3534,0.4774,0.4871,0.4936,0.5018,0.5018,0.5018,0.5018,0.5018,0.5018,0.5018,0.5018,0.5056,0.5127,0.5127,0.5219,0.541,0.541,0.5439,0.551,0.5556,0.5594,0.5629,0.5675,0.6169,0.6868,0.7305,0.7614,0.779,0.779,0.779,0.779,0.779,0.779,0.779,0.779,0.779,0.779,0.779,0.779,0.7845,0.8018,0.7989,0.8011,0.8383,0.8424,0.8409,0.8509,0.8609,0.8616,0.8357,0.8309,0.8025,0.7164,0.6945,0.7039,0.7503,0.8072,0.846,0.8541,0.9116,0.9324,0.8914,0.8761,0.8699,0.8699,0.8699,0.8699,0.8699,0.8699,0.8619,0.8407,0.8311,0.8143,0.7945,0.7892,0.7621,0.7276,0.7276,0.6983]}]]